[[{"header":{"parameterUnit":"m.s-1","parameterCategory":1,"la1":31.0,"la2":29.5877,"lo1":-88.7671,"lo2":-86.6584,"dy":0.0162,"dx":0.0185,"nx":115,"ny":88,"refTime":"2026-03-13T00:00:00:Z","depth":0,"parameterNumber":2,"parameterNumberName":"U-component_of_WINDS"},"data":[0.0,0.0,0.0,0.0,0.0,0.0,0.0,0.0,0.0,0.0,0.0,0.0,0.0,0.0,0.0,0.0,0.0,0.0,0.0,0.0,0.0,0.0,0.0,0.0,0.0,0.0,0.0,0.0,0.0,0.0,0.0,0.0,0.0,0.0,0.0,0.0,0.0,0.0,0.0,0.0,0.0,0.0,0.0,0.0,0.0,0.0,0.0,0.0,0.0,0.0,0.0,0.0,0.0,0.0,0.0,0.0,0.0,0.0,0.0,0.0,0.0,0.0,0.0,0.0,0.0,0.0,0.0,0.0,0.0,0.0,0.0,0.0,0.0,0.0,0.0,0.0,0.0,0.0,0.0,0.0,0.0,0.0,0.0,0.0,0.0,0.0,0.0,0.0,0.0,0.0,0.0,0.0,0.0,0.0,0.0,0.0,0.0,0.0,0.0,0.0,0.0,0.0,0.0,0.0,0.0,0.0,0.0,0.0,0.0,0.0,0.0,0.0,0.0,0.0,0.0,0.0,0.0,0.0,0.0,0.0,0.0,0.0,0.0,0.0,0.0,0.0,0.0,0.0,0.0,0.0,0.0,0.0,0.0,0.0,0.0,0.0,0.0,0.0,0.0,0.0,0.0,0.0,0.0,0.0,0.0,0.0,0.0,0.0,0.0,0.0,0.0,0.0,0.0,0.0,0.0,0.0,0.0,0.0,0.0,0.0,0.0,0.0,0.0,0.0,0.0,0.0,0.0,0.0,0.0,0.0,0.0,0.0,0.0,0.0,0.0,0.0,0.0,0.0,0.0,0.0,0.0,0.0,0.0,0.0,0.0,0.0,0.0,0.0,0.0,0.0,0.0,0.0,0.0,0.0,0.0,0.0,0.0,0.0,0.0,0.0,0.0,0.0,0.0,0.0,0.0,0.0,0.0,0.0,0.0,0.0,0.0,0.0,0.0,0.0,0.0,0.0,0.0,0.0,0.0,0.0,0.0,0.0,0.0,0.0,0.0,0.0,0.0,0.0,0.0,0.0,0.0,0.0,0.0,0.0,0.0,0.0,0.0,0.0,0.0,0.0,0.0,0.0,0.0,0.0,0.0,0.0,0.0,0.0,0.0,0.0,0.0,0.0,0.0,0.0,0.0,0.0,0.0,0.0,0.0,0.0,0.0,0.0,0.0,0.0,0.0,0.0,0.0,0.0,0.0,0.0,0.0,0.0,0.0,0.0,0.0,0.0,0.0,0.0,0.0,0.0,0.0,0.0,0.0,0.0,0.0,0.0,0.0,0.0,0.0,0.0,0.0,0.0,0.0,0.0,0.0,0.0,0.0,0.0,0.0,0.0,0.0,0.0,0.0,0.0,0.0,0.0,0.0,0.0,0.0,0.0,0.0,0.0,0.0,0.0,0.0,0.0,0.0,0.0,0.0,0.0,0.0,0.0,0.0,0.0,0.0,0.0,0.0,0.0,0.0,0.0,0.0,0.0,0.0,0.0,0.0,0.0,0.0,0.0,0.0,0.0,0.0,0.0,0.0,0.0,0.0,0.0,0.0,0.0,0.0,0.0,0.0,0.0,0.0,0.0,0.0,0.0,0.0,0.0,0.0,0.0,0.0,0.0,0.0,0.0,0.0,0.0,0.0,0.0,0.0,0.0,0.0,0.0,0.0,0.0,0.0,0.0,0.0,0.0,0.0,0.0,0.0,0.0,0.0,0.0,0.0,0.0,0.0,0.0,0.0,0.0,0.0,0.0,0.0,0.0,0.0,0.0,0.0,0.0,0.0,0.0,0.0,0.0,0.0,0.0,0.0,0.0,0.0,0.0,0.0,0.0,0.0,0.0,0.0,0.0,0.0,0.0,0.0,0.0,0.0,0.0,0.0,0.0,0.0,0.0,0.0,0.0,0.0,0.0,0.0,0.0,0.0,0.0,0.0,0.0,0.0,0.0,0.0,0.0,0.0,0.0,0.0,0.0,0.0,0.0,0.0,0.0,0.0,0.0,0.0,0.0,0.0,0.0,0.0,0.0,0.0,0.0,0.0,0.0,0.0,0.0,0.0,0.0,0.0,0.0,0.0,0.0,0.0,0.0,0.0,0.0,0.0,0.0,0.0,0.0,0.0,0.0,0.0,0.0,0.0,0.0,0.0,0.0,0.0,0.0,0.0,0.0,0.0,0.0,0.0,0.0,0.0,0.0,0.0,0.0,0.0,0.0,0.0,0.0,0.0,0.0,0.0,0.0,0.0,0.0,0.0,0.0,0.0,0.0,0.0,0.0,0.0,0.0,0.0,0.0,0.0,0.0,0.0,0.0,0.0,0.0,0.0,0.0,0.0,0.0,0.0,0.0,0.0,0.0,0.0,0.0,0.0,0.0,0.0,0.0,0.0,0.0,0.0,0.0,0.0,0.0,0.0,0.0,0.0,0.0,0.0,0.0,0.0,0.0,0.0,0.0,0.0,0.0,0.0,0.0,0.0,0.0,0.0,0.0,0.0,0.0,0.0,0.0,0.0,0.0,0.0,0.0,0.0,0.0,0.0,0.0,0.0,0.0,0.0,0.0,0.0,0.0,0.0,0.0,0.0,0.0,0.0,0.0,0.0,0.0,0.0,0.0,0.0,0.0,0.0,0.0,0.0,0.0,0.0,0.0,0.0,0.0,0.0,0.0,0.0,0.0,0.0,0.0,0.0,0.0,0.0,0.0,0.0,0.0,0.0,0.0,0.0,0.0,0.0,0.0,0.0,0.0,0.0,0.0,0.0,0.0,0.0,0.0,0.0,0.0,0.0,0.0,0.0,0.0,0.0,0.0,0.0,0.0,0.0,0.0,0.0,0.0,0.0,0.0,0.0,0.0,0.0,0.0,0.0,0.0,0.0,0.0,0.0,0.0,0.0,0.0,0.0,0.0,0.0,0.0,0.0,0.0,0.0,0.0,0.0,0.0,0.0,0.0,0.0,0.0,0.0,0.0,0.0,0.0,0.0,0.0,0.0,0.0,0.0,0.0,0.0,0.0,0.0,0.0,0.0,0.0,0.0,0.0,0.0,0.0,0.0,0.0,0.0,0.0,0.0,0.0,0.0,0.0,0.0,0.0,0.0,0.0,0.0,0.0,0.0,0.0,0.0,0.0,0.0,0.0,0.0,0.0,0.0,0.0,0.0,0.0,0.0,0.0,0.0,0.0,0.0,0.0,0.0,0.0,0.0,0.0,0.0,0.0,0.0,0.0,0.0,0.0,0.0,0.0,0.0,0.0,0.0,0.0,0.0,0.0,0.0,0.0,0.0,0.0,0.0,0.0,0.0,0.0,0.0,0.0,0.0,0.0,0.0,0.0,0.0,0.0,0.0,0.0,0.0,0.0,0.0,0.0,0.0,0.0,0.0,0.0,0.0,0.0,0.0,0.0,0.0,0.0,0.0,0.0,0.0,0.0,0.0,0.0,0.0,0.0,0.0,0.0,0.0,0.0,0.0,0.0,0.0,0.0,0.0,0.0,0.0,0.0,0.0,0.0,0.0,0.0,0.0,0.0,0.0,0.0,0.0,0.0,0.0,0.0,0.0,0.0,0.0,0.0,0.0,0.0,0.0,0.0,0.0,0.0,0.0,0.0,0.0,0.0,0.0,0.0,0.0,0.0,0.0,0.0,0.0,0.0,0.0,0.0,0.0,0.0,0.0,0.0,0.0,0.0,0.0,0.0,0.0,0.0,0.0,0.0,0.0,0.0,0.0,0.0,0.0,0.0,0.0,0.0,0.0,0.0,0.0,0.0,0.0,0.0,0.0,0.0,0.0,0.0,0.0,0.0,0.0,0.0,0.0,0.0,0.0,0.0,0.0,0.0,0.0,0.0,0.0,0.0,0.0,0.0,0.0,0.0,0.0,0.0,0.0,0.0,0.0,0.0,0.0,0.0,0.0,0.0,0.0,0.0,0.0,0.0,0.0,0.0,0.0,0.0,0.0,0.0,0.0,0.0,0.0,0.0,0.0,0.0,0.0,0.0,0.0,0.0,0.0,0.0,0.0,0.0,0.0,0.0,0.0,0.0,0.0,0.0,0.0,0.0,0.0,0.0,0.0,0.0,0.0,0.0,0.0,0.0,0.0,0.0,0.0,0.0,0.0,0.0,0.0,0.0,0.0,0.0,0.0,0.0,0.0,0.0,0.0,0.0,0.0,0.0,0.0,0.0,0.0,0.0,0.0,0.0,0.0,0.0,0.0,0.0,0.0,0.0,0.0,0.0,0.0,0.0,0.0,0.0,0.0,0.0,0.0,0.0,0.0,0.0,0.0,0.0,0.0,0.0,-1.3939,0.0,0.0,0.0,0.0,0.0,0.0,0.0,0.0,0.0,0.0,0.0,0.0,0.0,0.0,0.0,0.0,0.0,0.0,0.0,0.0,0.0,0.0,0.0,0.0,0.0,0.0,0.0,0.0,0.0,0.0,0.0,0.0,0.0,0.0,0.0,0.0,0.0,0.0,0.0,0.0,0.0,0.0,0.0,0.0,0.0,0.0,0.0,0.0,0.0,0.0,0.0,0.0,0.0,0.0,0.0,0.0,0.0,0.0,0.0,0.0,0.0,0.0,0.0,0.0,0.0,0.0,0.0,0.0,0.0,0.0,0.0,0.0,0.0,0.0,0.0,0.0,0.0,0.0,0.0,0.0,0.0,0.0,0.0,0.0,0.0,0.0,0.0,0.0,0.0,0.0,0.0,0.0,0.0,0.0,0.0,0.0,0.0,0.0,0.0,0.0,0.0,0.0,0.0,0.0,0.0,0.0,0.0,0.0,0.0,0.0,-1.5143,-1.5251,-1.5322,-1.5182,-1.4786,0.0,0.0,0.0,0.0,0.0,0.0,0.0,0.0,0.0,0.0,0.0,0.0,0.0,0.0,0.0,0.0,0.0,0.0,0.0,0.0,0.0,0.0,0.0,0.0,0.0,0.0,0.0,0.0,0.0,0.0,0.0,0.0,0.0,0.0,0.0,0.0,0.0,0.0,0.0,0.0,0.0,0.0,0.0,0.0,0.0,0.0,0.0,0.0,0.0,0.0,0.0,0.0,0.0,0.0,0.0,0.0,0.0,0.0,0.0,0.0,0.0,0.0,0.0,0.0,0.0,0.0,0.0,0.0,0.0,0.0,0.0,0.0,0.0,0.0,0.0,0.0,0.0,0.0,0.0,0.0,0.0,0.0,0.0,0.0,0.0,0.0,0.0,0.0,0.0,0.0,0.0,0.0,0.0,0.0,0.0,0.0,0.0,0.0,0.0,0.0,0.0,0.0,0.0,0.0,0.0,0.0,0.0,0.0,0.0,0.0,0.0,0.0,-1.5357,-1.521,-1.4788,0.0,0.0,0.0,0.0,0.0,0.0,0.0,0.0,0.0,0.0,0.0,0.0,0.0,0.0,0.0,0.0,0.0,0.0,0.0,0.0,0.0,0.0,0.0,0.0,0.0,0.0,0.0,0.0,0.0,0.0,0.0,0.0,0.0,0.0,0.0,0.0,0.0,0.0,0.0,0.0,0.0,0.0,0.0,0.0,0.0,0.0,0.0,0.0,0.0,0.0,0.0,0.0,0.0,0.0,0.0,0.0,0.0,0.0,0.0,0.0,0.0,0.0,0.0,0.0,0.0,0.0,0.0,0.0,0.0,0.0,0.0,0.0,0.0,0.0,0.0,0.0,0.0,0.0,0.0,0.0,0.0,0.0,0.0,0.0,0.0,0.0,0.0,0.0,0.0,0.0,0.0,0.0,0.0,0.0,0.0,0.0,0.0,0.0,0.0,0.0,0.0,0.0,0.0,0.0,0.0,0.0,0.0,0.0,0.0,0.0,-1.5154,-1.529,-1.5364,0.0,-1.3178,0.0,0.0,0.0,0.0,0.0,0.0,0.0,0.0,0.0,0.0,0.0,0.0,0.0,0.0,0.0,0.0,0.0,0.0,0.0,0.0,0.0,0.0,0.0,0.0,0.0,0.0,0.0,0.0,0.0,0.0,0.0,0.0,0.0,0.0,0.0,0.0,0.0,0.0,0.0,0.0,0.0,0.0,0.0,0.0,0.0,0.0,0.0,0.0,0.0,0.0,0.0,0.0,0.0,0.0,0.0,0.0,0.0,0.0,0.0,0.0,0.0,0.0,0.0,0.0,0.0,0.0,0.0,0.0,0.0,0.0,0.0,0.0,0.0,0.0,0.0,0.0,0.0,0.0,0.0,0.0,0.0,0.0,0.0,0.0,0.0,0.0,0.0,0.0,0.0,0.0,0.0,0.0,0.0,0.0,0.0,0.0,0.0,0.0,0.0,0.0,0.0,0.0,0.0,0.0,0.0,0.0,0.0,0.0,0.0,0.0,-1.5164,-1.5287,-1.4874,-1.4043,0.0,0.0,0.0,0.0,0.0,0.0,0.0,0.0,0.0,0.0,0.0,0.0,0.0,0.0,0.0,0.0,0.0,0.0,0.0,0.0,0.0,0.0,0.0,0.0,0.0,0.0,0.0,0.0,0.0,0.0,0.0,0.0,0.0,0.0,0.0,0.0,0.0,0.0,0.0,0.0,0.0,0.0,0.0,0.0,0.0,0.0,0.0,0.0,0.0,0.0,0.0,0.0,0.0,0.0,0.0,0.0,0.0,0.0,0.0,0.0,0.0,0.0,0.0,0.0,0.0,0.0,0.0,0.0,0.0,0.0,0.0,0.0,0.0,0.0,0.0,0.0,0.0,0.0,0.0,0.0,0.0,0.0,0.0,0.0,0.0,0.0,0.0,0.0,0.0,0.0,0.0,0.0,0.0,0.0,0.0,0.0,0.0,0.0,0.0,0.0,0.0,0.0,0.0,0.0,0.0,0.0,0.0,0.0,0.0,0.0,-1.4997,-1.5043,-1.495,-1.4394,-1.3588,-1.2479,0.0,0.0,0.0,0.0,0.0,0.0,0.0,0.0,0.0,0.0,0.0,0.0,0.0,0.0,0.0,0.0,0.0,0.0,0.0,0.0,0.0,0.0,0.0,0.0,0.0,0.0,0.0,0.0,0.0,0.0,0.0,0.0,0.0,0.0,0.0,0.0,0.0,0.0,0.0,0.0,0.0,0.0,0.0,0.0,0.0,0.0,0.0,0.0,0.0,0.0,0.0,0.0,0.0,0.0,0.0,0.0,0.0,0.0,0.0,0.0,0.0,0.0,0.0,0.0,0.0,0.0,0.0,0.0,0.0,0.0,0.0,0.0,0.0,0.0,0.0,0.0,0.0,0.0,0.0,0.0,0.0,0.0,0.0,0.0,0.0,0.0,0.0,0.0,0.0,0.0,0.0,0.0,0.0,0.0,0.0,0.0,0.0,0.0,0.0,0.0,0.0,0.0,0.0,0.0,0.0,0.0,0.0,0.0,-1.4784,-1.4926,-1.4725,-1.4199,-1.4111,-1.3302,0.0,0.0,0.0,0.0,0.0,0.0,0.0,0.0,0.0,0.0,0.0,0.0,0.0,0.0,0.0,0.0,0.0,0.0,0.0,0.0,0.0,0.0,0.0,0.0,0.0,0.0,0.0,0.0,0.0,0.0,0.0,0.0,0.0,0.0,0.0,0.0,0.0,0.0,0.0,0.0,0.0,0.0,0.0,0.0,0.0,0.0,0.0,0.0,0.0,0.0,0.0,0.0,0.0,0.0,0.0,0.0,0.0,0.0,0.0,0.0,0.0,0.0,0.0,0.0,0.0,0.0,0.0,0.0,0.0,0.0,0.0,0.0,0.0,0.0,0.0,0.0,0.0,0.0,0.0,0.0,0.0,0.0,0.0,0.0,0.0,0.0,0.0,0.0,0.0,0.0,0.0,0.0,0.0,0.0,0.0,0.0,0.0,0.0,0.0,0.0,0.0,0.0,0.0,0.0,0.0,0.0,0.0,0.0,0.0,-1.4575,-1.4405,-1.4223,-1.4062,-1.3032,-1.2142,0.0,0.0,0.0,0.0,0.0,0.0,0.0,0.0,0.0,0.0,0.0,0.0,0.0,0.0,0.0,0.0,0.0,0.0,0.0,0.0,0.0,0.0,0.0,0.0,0.0,0.0,0.0,0.0,0.0,0.0,0.0,0.0,0.0,0.0,0.0,0.0,0.0,0.0,0.0,0.0,0.0,0.0,0.0,0.0,0.0,0.0,0.0,0.0,0.0,0.0,0.0,0.0,0.0,0.0,0.0,0.0,0.0,0.0,0.0,0.0,0.0,0.0,0.0,0.0,0.0,0.0,0.0,0.0,0.0,0.0,0.0,0.0,0.0,0.0,0.0,0.0,0.0,0.0,0.0,0.0,0.0,0.0,0.0,0.0,0.0,0.0,0.0,0.0,0.0,0.0,0.0,0.0,0.0,0.0,0.0,0.0,0.0,0.0,0.0,0.0,0.0,0.0,0.0,0.0,0.0,0.0,0.0,0.0,0.0,-1.4194,0.0,-1.3701,-1.3241,-1.2127,-1.1367,0.0,0.0,0.0,0.0,0.0,0.0,0.0,0.0,0.0,0.0,0.0,0.0,0.0,0.0,0.0,0.0,0.0,0.0,0.0,0.0,0.0,0.0,0.0,0.0,0.0,0.0,0.0,0.0,0.0,0.0,0.0,0.0,0.0,0.0,0.0,0.0,0.0,0.0,0.0,0.0,0.0,0.0,0.0,0.0,0.0,0.0,0.0,0.0,0.0,0.0,0.0,0.0,0.0,0.0,0.0,0.0,0.0,0.0,0.0,0.0,0.0,0.0,0.0,0.0,0.0,0.0,0.0,0.0,0.0,0.0,0.0,0.0,0.0,0.0,0.0,0.0,0.0,0.0,0.0,0.0,0.0,0.0,0.0,0.0,0.0,0.0,0.0,0.0,0.0,0.0,0.0,0.0,0.0,0.0,0.0,0.0,0.0,0.0,0.0,0.0,0.0,0.0,0.0,0.0,0.0,0.0,0.0,0.0,-1.3859,-1.3622,-1.3744,-1.3075,-1.16,-1.1497,-1.1082,0.0,0.0,0.0,0.0,0.0,0.0,0.0,0.0,0.0,0.0,0.0,0.0,0.0,0.0,0.0,0.0,0.0,0.0,0.0,0.0,0.0,0.0,0.0,0.0,0.0,0.0,0.0,0.0,0.0,0.0,0.0,0.0,0.0,0.0,0.0,0.0,0.0,0.0,0.0,0.0,0.0,0.0,0.0,0.0,0.0,0.0,0.0,0.0,0.0,0.0,0.0,0.0,0.0,0.0,0.0,0.0,0.0,0.0,0.0,0.0,0.0,0.0,0.0,0.0,0.0,0.0,0.0,0.0,0.0,0.0,0.0,0.0,0.0,0.0,0.0,0.0,0.0,0.0,0.0,0.0,0.0,0.0,0.0,0.0,0.0,0.0,0.0,0.0,0.0,0.0,0.0,0.0,0.0,0.0,0.0,0.0,0.0,0.0,0.0,0.0,0.0,0.0,0.0,0.0,0.0,0.0,0.0,0.0,0.0,-1.3443,-1.2574,-1.1924,-1.1502,-1.0927,-1.0489,0.0,0.0,0.0,0.0,0.0,0.0,0.0,0.0,0.0,0.0,0.0,0.0,0.0,0.0,0.0,0.0,0.0,0.0,0.0,0.0,0.0,0.0,0.0,0.0,0.0,0.0,0.0,0.0,0.0,0.0,0.0,0.0,0.0,0.0,0.0,0.0,0.0,0.0,0.0,0.0,0.0,0.0,0.0,0.0,0.0,0.0,0.0,0.0,0.0,0.0,0.0,0.0,0.0,0.0,0.0,0.0,0.0,0.0,0.0,0.0,0.0,0.0,0.0,0.0,0.0,0.0,0.0,0.0,0.0,0.0,0.0,0.0,0.0,0.0,0.0,0.0,0.0,0.0,0.0,0.0,0.0,0.0,0.0,0.0,0.0,0.0,0.0,0.0,0.0,0.0,0.0,0.0,0.0,0.0,0.0,0.0,0.0,0.0,0.0,0.0,0.0,0.0,0.0,0.0,0.0,0.0,0.0,0.0,0.0,-1.2467,-1.1727,-1.1205,-1.103,-1.0777,-1.0643,-1.0618,0.0,0.0,0.0,0.0,0.0,0.0,0.0,0.0,0.0,0.0,0.0,0.0,0.0,0.0,0.0,0.0,0.0,0.0,0.0,0.0,0.0,0.0,0.0,0.0,0.0,0.0,0.0,0.0,0.0,0.0,0.0,0.0,0.0,0.0,0.0,0.0,0.0,0.0,0.0,0.0,0.0,0.0,0.0,0.0,0.0,0.0,0.0,0.0,0.0,0.0,0.0,0.0,0.0,0.0,0.0,0.0,0.0,0.0,0.0,0.0,0.0,0.0,0.0,0.0,0.0,0.0,0.0,0.0,0.0,0.0,0.0,0.0,0.0,0.0,0.0,0.0,0.0,0.0,0.0,0.0,0.0,0.0,0.0,0.0,0.0,0.0,0.0,0.0,0.0,0.0,0.0,0.0,0.0,0.0,0.0,0.0,0.0,0.0,0.0,0.0,0.0,0.0,0.0,0.0,0.0,0.0,0.0,0.0,-1.103,-1.1154,-1.09,-1.0263,-1.0967,-1.1408,0.0,0.0,0.0,0.0,0.0,0.0,0.0,0.0,0.0,0.0,0.0,0.0,0.0,0.0,0.0,0.0,0.0,0.0,0.0,0.0,0.0,0.0,0.0,0.0,0.0,0.0,0.0,0.0,0.0,0.0,0.0,0.0,0.0,0.0,0.0,0.0,0.0,0.0,0.0,0.0,0.0,0.0,0.0,0.0,0.0,0.0,0.0,0.0,0.0,0.0,0.0,0.0,0.0,0.0,0.0,0.0,0.0,0.0,0.0,0.0,0.0,0.0,0.0,0.0,0.0,0.0,0.0,0.0,0.0,0.0,0.0,0.0,0.0,0.0,0.0,0.0,0.0,0.0,0.0,0.0,0.0,0.0,0.0,0.0,0.0,0.0,0.0,0.0,0.0,0.0,0.0,0.0,0.0,0.0,0.0,0.0,0.0,0.0,0.0,0.0,0.0,0.0,0.0,0.0,0.0,0.0,0.0,0.0,0.0,-1.1059,-1.065,-1.0347,-1.0215,-1.0972,-1.142,0.0,0.0,0.0,0.0,0.0,0.0,0.0,0.0,0.0,0.0,0.0,0.0,0.0,0.0,0.0,0.0,0.0,0.0,0.0,0.0,0.0,0.0,0.0,0.0,0.0,0.0,0.0,0.0,0.0,0.0,0.0,0.0,0.0,0.0,0.0,0.0,0.0,0.0,0.0,0.0,0.0,0.0,0.0,0.0,0.0,0.0,0.0,0.0,0.0,0.0,0.0,0.0,0.0,0.0,0.0,0.0,0.0,0.0,0.0,0.0,0.0,0.0,0.0,0.0,0.0,0.0,0.0,0.0,0.0,0.0,0.0,0.0,0.0,0.0,0.0,0.0,0.0,0.0,0.0,0.0,0.0,0.0,0.0,0.0,0.0,0.0,0.0,0.0,0.0,0.0,0.0,0.0,0.0,0.0,0.0,0.0,0.0,0.0,0.0,0.0,0.0,0.0,0.0,0.0,0.0,0.0,0.0,0.0,-1.1015,-1.0617,-1.0299,-1.0156,-1.0172,-1.0966,-1.1564,0.0,0.0,0.0,0.0,0.0,0.0,0.0,0.0,0.0,0.0,0.0,0.0,0.0,0.0,0.0,0.0,0.0,0.0,0.0,0.0,0.0,0.0,0.0,0.0,0.0,0.0,0.0,0.0,0.0,0.0,0.0,0.0,0.0,0.0,0.0,0.0,0.0,0.0,0.0,0.0,0.0,0.0,0.0,0.0,0.0,0.0,0.0,0.0,0.0,0.0,0.0,0.0,0.0,0.0,0.0,0.0,0.0,0.0,0.0,0.0,0.0,0.0,0.0,0.0,0.0,0.0,0.0,0.0,0.0,0.0,0.0,0.0,0.0,0.0,0.0,0.0,0.0,0.0,0.0,0.0,0.0,0.0,0.0,0.0,0.0,0.0,0.0,0.0,0.0,0.0,0.0,0.0,0.0,0.0,0.0,0.0,0.0,0.0,0.0,0.0,0.0,0.0,0.0,0.0,0.0,0.0,0.0,0.0,-1.1188,-0.9936,-1.0089,-1.0173,-1.0114,-1.0949,-1.1724,0.0,0.0,0.0,0.0,0.0,0.0,0.0,0.0,0.0,0.0,0.0,0.0,0.0,0.0,0.0,0.0,0.0,0.0,0.0,0.0,0.0,0.0,0.0,0.0,0.0,0.0,0.0,0.0,0.0,0.0,0.0,0.0,0.0,0.0,0.0,0.0,0.0,0.0,0.0,0.0,0.0,0.0,0.0,0.0,0.0,0.0,0.0,0.0,0.0,0.0,0.0,0.0,0.0,0.0,0.0,0.0,0.0,0.0,0.0,0.0,0.0,0.0,0.0,0.0,0.0,0.0,0.0,0.0,0.0,0.0,0.0,0.0,0.0,0.0,0.0,0.0,0.0,0.0,0.0,0.0,0.0,0.0,0.0,0.0,0.0,0.0,0.0,0.0,0.0,0.0,0.0,0.0,0.0,0.0,0.0,0.0,0.0,0.0,0.0,0.0,0.0,0.0,0.0,0.0,0.0,0.0,0.0,0.0,-1.0753,-1.0005,-1.0125,-1.0166,-1.0103,-1.0893,-1.1397,0.0,0.0,0.0,0.0,0.0,0.0,0.0,0.0,0.0,0.0,0.0,0.0,0.0,0.0,0.0,0.0,0.0,0.0,0.0,0.0,0.0,0.0,0.0,0.0,0.0,0.0,0.0,0.0,0.0,0.0,0.0,0.0,0.0,0.0,0.0,0.0,0.0,0.0,0.0,0.0,0.0,0.0,0.0,0.0,0.0,0.0,0.0,0.0,-0.943,0.0,0.0,0.0,0.0,0.0,0.0,0.0,0.0,0.0,0.0,0.0,0.0,0.0,0.0,0.0,0.0,0.0,0.0,0.0,0.0,0.0,0.0,0.0,0.0,0.0,0.0,0.0,0.0,0.0,0.0,0.0,0.0,0.0,0.0,0.0,0.0,0.0,0.0,0.0,0.0,0.0,0.0,0.0,0.0,0.0,0.0,0.0,0.0,0.0,0.0,0.0,0.0,0.0,0.0,0.0,0.0,0.0,0.0,0.0,-1.103,-1.0092,-1.0156,-1.0166,-1.0121,-1.0474,-1.0866,0.0,0.0,0.0,0.0,0.0,0.0,0.0,0.0,0.0,0.0,0.0,0.0,0.0,0.0,0.0,0.0,0.0,0.0,0.0,0.0,0.0,0.0,0.0,0.0,0.0,0.0,0.0,0.0,0.0,0.0,0.0,0.0,0.0,0.0,0.0,0.0,0.0,0.0,0.0,0.0,0.0,0.0,0.0,0.0,0.0,0.0,0.0,0.0,0.0,0.0,0.0,0.0,0.0,0.0,0.0,0.0,0.0,0.0,0.0,0.0,0.0,0.0,0.0,0.0,0.0,0.0,0.0,0.0,0.0,0.0,0.0,0.0,0.0,0.0,0.0,0.0,0.0,0.0,0.0,0.0,0.0,0.0,0.0,0.0,0.0,0.0,0.0,0.0,0.0,0.0,0.0,0.0,0.0,0.0,0.0,0.0,0.0,0.0,0.0,0.0,0.0,0.0,0.0,0.0,0.0,0.0,0.0,-1.1745,-1.1532,-1.0197,-1.0171,-1.0157,-1.0094,-1.0035,-1.0304,-1.0948,0.0,0.0,0.0,0.0,0.0,0.0,0.0,0.0,0.0,0.0,0.0,0.0,0.0,0.0,0.0,0.0,0.0,0.0,0.0,0.0,0.0,0.0,0.0,0.0,0.0,0.0,0.0,0.0,0.0,0.0,0.0,0.0,0.0,0.0,0.0,0.0,0.0,0.0,-0.6646,-0.7788,0.0,0.0,0.0,0.0,0.0,0.0,0.0,0.0,-0.9743,0.0,0.0,0.0,0.0,0.0,0.0,0.0,0.0,0.0,0.0,0.0,0.0,0.0,0.0,0.0,0.0,0.0,0.0,0.0,0.0,0.0,0.0,0.0,0.0,0.0,0.0,0.0,0.0,0.0,0.0,0.0,0.0,0.0,0.0,0.0,0.0,0.0,0.0,0.0,0.0,0.0,0.0,0.0,0.0,0.0,0.0,0.0,0.0,0.0,0.0,0.0,0.0,0.0,0.0,0.0,0.0,-1.1691,-1.2079,-1.1592,-1.023,-1.0201,-1.0155,-1.0108,-1.0044,-1.0003,-1.0038,0.0,0.0,0.0,0.0,0.0,0.0,0.0,0.0,0.0,0.0,0.0,0.0,0.0,0.0,0.0,0.0,0.0,0.0,0.0,0.0,0.0,0.0,0.0,0.0,0.0,0.0,0.0,0.0,0.0,0.0,0.0,0.0,0.0,0.0,0.0,0.0,0.0,0.0,0.0,-0.8377,-0.8795,0.0,0.0,0.0,0.0,0.0,0.0,0.0,0.0,-0.9724,0.0,0.0,0.0,0.0,0.0,0.0,0.0,0.0,0.0,0.0,0.0,0.0,0.0,0.0,0.0,0.0,0.0,0.0,0.0,0.0,0.0,0.0,0.0,0.0,0.0,0.0,0.0,0.0,0.0,0.0,0.0,0.0,0.0,0.0,0.0,0.0,0.0,0.0,0.0,0.0,0.0,0.0,0.0,0.0,0.0,0.0,0.0,0.0,0.0,0.0,0.0,0.0,0.0,0.0,0.0,-1.1387,-1.1645,-1.1269,-1.0233,-1.017,-1.0124,-1.0049,-0.9938,-0.985,0.0,0.0,0.0,0.0,0.0,0.0,0.0,0.0,0.0,0.0,0.0,0.0,0.0,0.0,0.0,0.0,0.0,0.0,0.0,0.0,0.0,0.0,0.0,0.0,0.0,0.0,0.0,0.0,0.0,0.0,0.0,0.0,0.0,0.0,0.0,0.0,0.0,0.0,0.0,0.0,-0.8858,-0.927,-0.9647,0.0,0.0,0.0,0.0,0.0,0.0,-0.9736,-0.9761,0.0,0.0,0.0,0.0,0.0,0.0,0.0,0.0,0.0,0.0,0.0,0.0,0.0,0.0,0.0,0.0,0.0,0.0,0.0,0.0,0.0,0.0,0.0,0.0,0.0,0.0,0.0,0.0,0.0,0.0,0.0,0.0,0.0,0.0,0.0,0.0,0.0,0.0,0.0,0.0,0.0,0.0,0.0,0.0,0.0,0.0,0.0,0.0,0.0,0.0,0.0,0.0,0.0,0.0,0.0,-1.0928,-1.1169,-1.0937,-1.0237,-0.9973,-0.9801,-0.9734,-0.96,-0.9499,0.0,0.0,0.0,0.0,0.0,0.0,0.0,0.0,0.0,0.0,0.0,0.0,0.0,0.0,0.0,0.0,0.0,0.0,0.0,0.0,0.0,0.0,0.0,0.0,0.0,0.0,0.0,0.0,0.0,0.0,0.0,0.0,0.0,0.0,0.0,0.0,0.0,0.0,0.0,0.0,0.0,-0.9525,-0.9698,-0.9587,0.0,0.0,0.0,0.0,-0.9496,-0.9625,0.0,0.0,0.0,0.0,0.0,0.0,0.0,0.0,0.0,0.0,0.0,0.0,0.0,0.0,0.0,0.0,0.0,0.0,0.0,0.0,0.0,0.0,0.0,0.0,0.0,0.0,0.0,0.0,0.0,0.0,0.0,0.0,0.0,0.0,0.0,0.0,0.0,0.0,0.0,0.0,0.0,0.0,0.0,0.0,0.0,0.0,0.0,0.0,0.0,0.0,0.0,0.0,0.0,0.0,0.0,0.0,-1.099,-1.1192,-1.0934,-1.0207,-0.9366,-0.8915,-0.8849,-0.8728,-0.8606,0.0,0.0,0.0,0.0,0.0,0.0,0.0,0.0,0.0,0.0,0.0,0.0,0.0,0.0,0.0,0.0,0.0,0.0,0.0,0.0,0.0,0.0,0.0,0.0,0.0,0.0,0.0,0.0,0.0,0.0,0.0,0.0,0.0,0.0,0.0,0.0,0.0,0.0,0.0,0.0,0.0,-0.8921,-0.9682,-0.9126,-0.8872,0.0,0.0,-0.9445,-0.8736,-0.9235,0.0,0.0,0.0,0.0,0.0,0.0,0.0,0.0,0.0,0.0,0.0,0.0,0.0,0.0,0.0,0.0,0.0,0.0,0.0,0.0,0.0,0.0,0.0,0.0,0.0,0.0,0.0,0.0,0.0,0.0,0.0,0.0,0.0,0.0,0.0,0.0,0.0,0.0,0.0,0.0,0.0,0.0,0.0,0.0,0.0,0.0,0.0,0.0,0.0,0.0,0.0,0.0,0.0,0.0,0.0,-1.0301,-1.044,-1.0542,-1.0462,-1.0118,-0.9218,-0.8703,-0.8636,-0.8464,-0.8348,0.0,0.0,0.0,0.0,0.0,0.0,0.0,0.0,0.0,0.0,0.0,0.0,0.0,0.0,0.0,0.0,0.0,0.0,0.0,0.0,0.0,0.0,0.0,0.0,0.0,0.0,0.0,0.0,0.0,0.0,0.0,0.0,0.0,0.0,0.0,0.0,0.0,0.0,0.0,0.0,0.0,0.0,-0.9685,-0.909,0.0,0.0,0.0,-0.8918,-0.8553,0.0,0.0,0.0,0.0,0.0,0.0,0.0,0.0,0.0,0.0,0.0,0.0,0.0,0.0,0.0,0.0,0.0,0.0,0.0,0.0,0.0,0.0,0.0,0.0,0.0,0.0,0.0,0.0,0.0,0.0,0.0,0.0,0.0,0.0,0.0,0.0,0.0,0.0,0.0,0.0,0.0,0.0,0.0,0.0,0.0,0.0,0.0,0.0,0.0,0.0,0.0,0.0,0.0,0.0,0.0,0.0,0.0,-0.9717,-0.9746,-0.9664,-0.9418,-0.8508,-0.8012,-0.7948,-0.7799,0.0,0.0,0.0,0.0,0.0,0.0,0.0,0.0,0.0,0.0,0.0,0.0,0.0,0.0,0.0,0.0,0.0,0.0,0.0,0.0,0.0,0.0,0.0,0.0,0.0,0.0,0.0,0.5096,0.0,0.0,0.0,0.0,0.0,0.0,0.0,0.0,0.0,0.0,0.0,0.0,0.0,0.0,-0.8539,-0.9401,-0.8649,-0.8296,0.0,0.0,-0.8119,-0.7935,-0.8027,-0.7904,0.0,0.0,0.0,0.0,0.0,0.0,0.0,0.0,0.0,0.0,0.0,0.0,0.0,0.0,0.0,0.0,0.0,0.0,0.0,0.0,0.0,0.0,0.0,0.0,0.0,0.0,0.0,0.0,0.0,0.0,0.0,0.0,0.0,0.0,0.0,0.0,0.0,0.0,0.0,0.0,0.0,0.0,0.0,0.0,0.0,0.0,0.0,0.0,0.0,0.0,0.0,0.0,0.0,0.0,-0.9562,-0.8915,-0.8883,-0.8465,-0.7608,-0.6715,-0.6237,-0.6183,-0.6099,-0.6332,0.0,0.0,0.0,0.0,0.0,0.0,0.0,0.0,0.0,0.0,0.0,0.0,0.0,0.0,0.0,0.0,0.0,0.0,0.0,0.0,0.0,0.0,0.0,0.0,0.0,0.0,0.0,0.0,0.0,0.0,0.0,0.0,0.0,0.0,0.0,0.0,0.0,0.0,0.0,0.0,0.0,-0.7794,-0.8666,-0.7397,-0.6662,0.0,-0.7457,-0.7123,-0.6392,-0.7316,-0.7886,-0.7214,0.0,0.0,0.0,0.0,0.0,0.0,0.0,0.0,0.0,0.0,0.0,0.0,0.0,0.0,0.0,0.0,0.0,0.0,0.0,0.0,0.0,0.0,0.0,0.0,0.0,0.0,0.0,0.0,0.0,0.0,0.0,0.0,0.0,0.0,0.0,0.0,0.0,0.0,0.0,0.0,0.0,0.0,0.0,0.0,0.0,0.0,0.0,0.0,0.0,0.0,0.0,0.0,0.0,-0.9086,-0.8808,-0.8266,-0.7768,-0.7345,-0.6487,-0.6014,-0.5929,-0.5829,-0.5897,0.0,0.0,0.0,0.0,0.0,0.0,0.0,0.0,0.0,0.0,0.0,0.0,0.0,0.0,0.0,0.0,0.0,0.0,0.0,0.0,0.0,0.0,0.0,0.0,0.0,0.0,0.0,0.0,0.1686,0.1787,0.1336,0.0,0.0,0.0,0.0,0.0,0.0,0.0,0.0,0.0,0.0,-0.7537,-0.7909,-0.7414,0.0,0.0,-0.8103,-0.7995,-0.7628,-0.6728,-0.6306,-0.699,-0.7888,0.0,0.0,0.0,0.0,0.0,0.0,0.0,0.0,0.0,0.0,0.0,0.0,0.0,0.0,0.0,0.0,0.0,0.0,0.0,0.0,0.0,0.0,0.0,0.0,0.0,0.0,0.0,0.0,0.0,0.0,0.0,0.0,0.0,0.0,0.0,0.0,0.0,0.0,0.0,0.0,0.0,0.0,0.0,0.0,0.0,0.0,0.0,0.0,0.0,0.0,0.0,0.0,-0.8902,-0.8406,-0.7769,-0.7144,-0.6524,-0.5916,-0.5563,-0.5513,-0.5424,-0.5481,0.0,0.0,0.0,0.0,0.0,0.0,0.0,0.0,0.0,0.0,0.0,0.0,0.0,0.0,0.0,0.0,0.0,0.0,0.0,0.0,0.0,0.0,0.0,0.0,0.0,0.0,0.0,0.0,-0.0871,-0.0346,-0.0235,0.0,0.0,0.0,0.0,0.0,0.0,0.0,0.0,0.0,0.0,-0.7179,-0.7483,-0.7312,-0.7393,-0.8163,-0.8259,-0.8215,-0.815,-0.6678,-0.5967,-0.7218,0.0,0.0,0.0,0.0,0.0,0.0,0.0,0.0,0.0,0.0,0.0,0.0,0.0,0.0,0.0,0.0,0.0,0.0,0.0,0.0,0.0,0.0,0.0,0.0,0.0,0.0,0.0,-0.7224,0.0,0.0,-0.8646,0.0,0.0,0.0,0.0,0.0,0.0,0.0,0.0,0.0,0.0,0.0,0.0,0.0,0.0,0.0,0.0,0.0,0.0,0.0,0.0,0.0,0.0,-0.9138,-0.7574,-0.7365,-0.6469,-0.4859,-0.4689,-0.4667,-0.4654,-0.4641,-0.4966,-0.5652,0.0,0.0,0.0,0.0,0.0,0.0,0.0,0.0,0.0,0.0,0.0,0.0,0.0,0.0,0.0,0.0,0.0,0.0,0.0,0.0,0.0,0.0,0.0,0.0,0.0,0.0,-0.2665,-0.1834,-0.1353,0.0,0.0,0.0,0.0,0.0,0.0,0.0,0.0,0.0,0.0,-0.7334,-0.665,-0.7466,-0.6889,-0.6703,-0.7445,-0.7517,-0.7439,-0.743,-0.7313,-0.7476,0.0,0.0,0.0,0.0,0.0,0.0,0.0,0.0,0.0,0.0,0.0,0.0,0.0,0.0,0.0,0.0,0.0,0.0,0.0,0.0,0.0,0.0,0.0,0.0,0.0,0.0,0.0,-0.9782,-0.9496,0.0,0.0,0.0,0.0,0.0,0.0,0.0,0.0,0.0,0.0,0.0,-0.8764,-0.8483,0.0,0.0,0.0,0.0,0.0,0.0,0.0,0.0,0.0,0.0,0.0,0.0,-0.8514,-0.7391,-0.6659,-0.5751,-0.4679,-0.4567,-0.4535,-0.4551,-0.4547,-0.4657,-0.4875,0.0,0.0,0.0,0.0,0.0,0.0,0.0,0.0,0.0,0.0,0.0,0.0,0.0,0.0,0.0,0.0,0.0,0.0,0.0,0.0,0.0,0.0,0.0,0.0,0.0,-0.5958,0.0,0.0,0.0,0.0,0.0,0.0,0.0,0.0,0.0,0.0,0.0,-0.789,-0.797,-0.7496,-0.7265,-0.7614,-0.7827,-0.8049,0.0,0.0,0.0,0.0,0.0,0.0,0.0,0.0,0.0,0.0,0.0,0.0,0.0,0.0,-0.5435,-0.542,-0.5336,-0.4733,-0.3038,0.0,0.0,0.0,0.0,0.0,0.0,0.0,0.0,0.0,0.0,0.0,0.0,0.0,0.0,-1.0464,0.0,-0.96,0.0,0.0,0.0,0.0,0.0,0.0,0.0,0.0,-0.9376,-0.8945,-0.8798,-0.8521,-0.8348,0.0,-0.8267,-0.846,0.0,0.0,0.0,0.0,0.0,0.0,0.0,0.0,-0.8521,-0.7618,-0.6676,-0.5788,-0.4972,-0.4663,-0.4487,-0.4497,-0.4525,-0.4535,-0.4534,-0.4541,-0.4732,0.0,0.0,0.0,0.0,0.0,0.0,0.0,0.0,0.0,0.0,0.0,0.0,0.0,0.0,0.0,0.0,0.0,0.0,0.0,0.0,0.0,0.0,0.0,-0.8249,0.0,0.0,0.0,0.0,0.0,0.0,0.0,0.0,0.0,-0.8991,-0.8419,-0.8005,-0.8057,-0.7791,-0.7778,-0.8094,0.0,0.0,0.0,0.0,0.0,0.0,0.0,-0.968,-0.9567,-0.8065,-0.6999,-0.7208,-0.7287,-0.695,-0.5709,0.0,0.0,-0.4864,-0.4817,-0.4344,-0.2969,-0.1982,-0.1203,-0.0689,-0.0185,0.0228,0.0,0.0,0.0,0.0,0.0,0.0,0.0,0.0,-1.0563,-1.0041,0.0,-0.9171,0.0,0.0,0.0,0.0,0.0,-1.0502,0.0,0.0,-0.9036,-0.8857,-0.8781,-0.8524,-0.8367,-0.8309,-0.8245,-0.8274,-0.8422,-0.8779,0.0,0.0,0.0,0.0,0.0,0.0,-0.9132,-0.8191,-0.7349,-0.6501,-0.561,-0.4913,-0.4511,-0.451,-0.4561,-0.4614,-0.4602,-0.4614,-0.4579,-0.4549,-0.4424,0.0,0.0,0.0,0.0,0.0,0.0,0.0,0.0,0.0,0.0,0.0,0.0,0.0,0.0,0.0,0.0,0.0,0.0,0.0,0.0,-0.8154,0.0,0.0,0.0,0.0,0.0,0.0,0.0,0.0,0.0,0.0,-0.9968,-0.9339,-0.8871,-0.8878,0.0,0.0,0.0,0.0,-0.9231,-0.9971,-1.0024,-0.9914,-0.9843,-0.9768,-0.9691,-0.9502,0.0,0.0,-0.6406,-0.6275,-0.6099,-0.5679,-0.4449,-0.3659,-0.4159,-0.4215,-0.3906,-0.3176,-0.1981,-0.1157,-0.1056,-0.0606,-0.0215,-1.1823,0.0,0.0,0.0,0.0,-1.1745,-1.1546,-1.1211,-1.0569,-1.014,-0.9801,-0.9212,0.0,0.0,0.0,0.0,0.0,0.0,-0.9563,-0.9749,-0.9128,-0.8755,-0.8669,-0.8479,-0.8348,-0.8309,-0.8176,-0.818,-0.8265,-0.8428,-0.867,-0.9016,0.0,0.0,0.0,0.0,-0.8886,-0.8093,-0.7762,-0.696,-0.5627,-0.5392,-0.5042,-0.4527,-0.4556,-0.4602,-0.4602,-0.4602,-0.4822,-0.5261,-0.5193,0.0,0.0,0.0,0.0,0.0,0.0,0.0,0.0,0.0,0.0,0.0,0.0,0.0,0.0,0.0,0.0,0.0,0.0,0.0,-0.8965,-0.8978,-0.9179,0.0,0.0,0.0,0.0,0.0,0.0,0.0,0.0,0.0,-0.9241,-0.8569,-0.828,0.0,0.0,-0.8945,-0.9799,-0.9859,-0.9923,-1.0138,-0.9583,0.0,-0.9059,-0.8832,-0.8483,-0.797,-0.6871,-0.5821,-0.5099,-0.4907,-0.4778,-0.4489,-0.3753,-0.3297,-0.3555,-0.4042,-0.3925,-0.2846,-0.1724,-0.0991,-0.0927,-0.0568,-0.0248,-1.2231,-1.2653,-1.191,-1.1575,-1.1546,-1.1496,-1.1459,-1.1386,-1.0809,-1.0374,-1.0042,-0.9499,-0.9116,-0.8919,-0.9202,0.0,0.0,0.0,-0.9345,-0.943,-0.8879,-0.8554,-0.8476,-0.8364,-0.8285,-0.8216,-0.8108,-0.8082,-0.8128,-0.8166,-0.8322,-0.8591,0.0,0.0,-0.9033,-0.9036,-0.8812,-0.8376,-0.8038,-0.7268,-0.6063,-0.5467,-0.4953,-0.4527,-0.4541,-0.4567,-0.4572,-0.4572,-0.4776,-0.5142,-0.5121,-0.5022,0.0,0.0,0.0,0.0,0.0,0.0,0.0,0.0,0.0,0.0,0.0,0.2166,0.1271,0.0,0.0,0.0,-0.6635,-0.8099,-0.9391,-0.8708,0.0,0.0,0.0,0.0,0.0,0.0,0.0,-0.7576,-0.8014,-0.8341,-0.8345,-0.7948,-0.8107,-0.9327,-0.9207,-0.9197,-0.9707,0.0,-0.9203,-0.9157,-0.8697,-0.8383,-0.8553,-0.8004,-0.7265,-0.6356,-0.5948,-0.5382,-0.4544,-0.4346,-0.4205,-0.3818,-0.326,-0.2917,-0.317,-0.35,-0.3377,-0.227,-0.1331,-0.0687,-0.0535,-0.0267,-0.0111,-1.253,-1.2421,-1.1792,-1.1441,-1.13,-1.1277,-1.1267,-1.1274,-1.1147,-1.0689,-1.0071,-0.9932,-0.9494,-0.887,-0.9527,0.0,-0.9839,-0.9697,-0.9286,-0.863,-0.8409,-0.8296,-0.8267,-0.8207,-0.8154,-0.808,-0.8025,-0.7998,-0.8,-0.7998,-0.8025,-0.8094,-0.8393,-0.8607,-0.8757,-0.8766,-0.8812,-0.8869,-0.8233,-0.7484,-0.6698,-0.5233,-0.4482,-0.4493,-0.456,-0.4554,-0.449,-0.4616,-0.4623,-0.451,-0.4487,-0.4448,-0.4308,0.0,0.0,0.0,0.0,0.0,0.0,0.0,0.0,0.0,0.0,0.0,0.0,0.0,0.0,0.0,-0.8135,0.0,-0.8498,-0.7772,0.0,0.0,0.0,-0.7363,-0.7286,-0.7291,-0.7257,-0.7197,0.0,0.0,-0.7376,-0.7503,-0.8162,-0.9779,-0.9351,-0.8887,-0.8896,-0.8242,-0.7662,-0.7721,-0.7574,-0.7689,-0.8061,-0.7224,-0.6113,-0.5106,-0.5223,-0.5225,-0.4486,-0.4334,-0.4179,-0.3616,-0.2874,-0.2415,-0.2877,-0.2653,-0.22,-0.1478,-0.0796,-0.02,0.0156,0.0222,0.0188,-1.3108,-1.3009,-1.2774,-1.2101,-1.1144,-1.1099,-1.1071,-1.1073,-1.0974,-1.0847,-1.0683,-1.0549,-1.0299,-0.9999,-1.0129,-1.0145,-1.0081,-0.9545,-0.92,-0.8953,-0.847,-0.8207,-0.8135,-0.8096,-0.8054,-0.8025,-0.7954,-0.7955,-0.8,-0.7956,-0.7954,-0.8025,-0.8106,-0.8269,-0.8502,-0.8596,-0.8657,-0.8677,-0.8553,-0.786,-0.656,-0.516,-0.442,-0.442,-0.4964,-0.4994,-0.446,-0.4977,-0.5028,-0.4471,-0.442,-0.4385,-0.4303,-0.4188,0.0,0.0,0.0,0.0,0.0,0.0,0.0,0.0,0.0,-0.0665,-0.1659,0.0,-0.6518,0.0,-0.7246,-0.7677,-0.7612,-0.7372,0.0,0.0,-0.7376,-0.7007,-0.6417,-0.6343,-0.6085,-0.5417,-0.5931,-0.6352,-0.6356,-0.7001,-0.7595,-0.8024,-0.7984,-0.7945,-0.7987,-0.7847,-0.7695,-0.7572,-0.7071,-0.6811,-0.7029,-0.6171,-0.5266,-0.4848,-0.4803,-0.4646,-0.4279,-0.4242,-0.3991,-0.3193,-0.2152,-0.1583,-0.1692,-0.1754,-0.1347,-0.0337,0.0175,0.0551,0.1112,0.0922,0.0685,-1.3156,-1.3051,-1.2995,-1.2501,-1.1761,-1.181,-1.1859,-1.1843,-1.1811,-1.1581,-1.1237,-1.0736,-1.043,-1.0266,-1.023,-1.0194,-1.0114,-0.9742,-0.9388,-0.9034,-0.8682,-0.8346,-0.8011,-0.7969,-0.7956,-0.7941,-0.7884,-0.7884,-0.7899,-0.7884,-0.7884,-0.7898,-0.7912,-0.7997,-0.8178,-0.838,-0.8495,-0.8554,-0.8317,-0.7753,-0.6945,-0.5872,-0.5274,-0.5252,-0.5675,-0.5699,-0.5258,-0.5078,-0.479,-0.4385,-0.4296,-0.4237,-0.4167,-0.407,-0.3956,0.0,0.0,0.0,0.0,0.0,0.0,0.0,0.0,0.0,0.0,0.0,-0.6701,-0.6656,-0.7032,-0.7239,-0.7153,-0.6785,-0.6532,-0.652,-0.6215,-0.5816,-0.5388,-0.5335,-0.5141,-0.4668,-0.5046,-0.5341,-0.5392,-0.5841,-0.6168,-0.6204,-0.6271,-0.6475,-0.6907,-0.6746,-0.6493,-0.6522,-0.6132,-0.5851,-0.6023,-0.5492,-0.5019,-0.4885,-0.4698,-0.443,-0.4018,-0.3987,-0.3636,-0.2397,-0.1095,-0.0313,-0.0574,-0.0852,-0.0594,0.0553,0.1246,0.1447,0.1432,0.1276,0.1175,-1.3002,-1.2846,-1.2773,-1.2681,-1.2572,-1.2741,-1.2815,-1.2869,-1.2848,-1.2452,-1.1716,-1.0884,-1.0459,-1.0338,-1.0318,-1.0312,-1.0297,-1.0152,-0.9771,-0.9213,-0.8981,-0.8559,-0.7989,-0.7929,-0.7885,-0.787,-0.7827,-0.7783,-0.7783,-0.7768,-0.7768,-0.7768,-0.7783,-0.7812,-0.7883,-0.8123,-0.8314,-0.8454,-0.7802,-0.7431,-0.7426,-0.6738,-0.6323,-0.6294,-0.6419,-0.6419,-0.6262,-0.5231,-0.4608,-0.4511,-0.4316,-0.4179,-0.4129,-0.3973,-0.3862,0.0,-0.3605,0.0,0.0,0.0,0.0,0.0,0.0,0.0,0.0,-0.4799,-0.6072,-0.6943,-0.6875,-0.6742,-0.668,-0.5967,-0.5531,-0.5506,-0.4886,-0.4465,-0.4482,-0.4454,-0.446,-0.4443,-0.4453,-0.4502,-0.4596,-0.4612,-0.4712,-0.4768,-0.4921,-0.5232,-0.5742,-0.5471,-0.5137,-0.507,-0.5087,-0.5215,-0.5172,-0.5103,-0.503,-0.4945,-0.4565,-0.4185,-0.3435,-0.3496,-0.3039,-0.131,0.0214,0.0977,0.0526,0.0178,0.0354,0.1494,0.2237,0.2404,0.1731,0.1599,0.1622,-1.3171,-1.2574,-1.2499,-1.2407,-1.2271,-1.2323,-1.2447,-1.2649,-1.26,-1.2384,-1.2104,-1.1856,-1.1673,-1.1555,-1.1452,-1.1389,-1.1281,-1.0792,-1.051,-1.0313,-0.9262,-0.8669,-0.8521,-0.8049,-0.7812,-0.7827,-0.7753,-0.7724,-0.7709,-0.7665,-0.765,-0.7635,-0.765,-0.7694,-0.7797,0.0,0.0,0.0,-0.7531,-0.7175,-0.7132,-0.6515,-0.6146,-0.6151,-0.6681,0.0,-0.6193,-0.6431,-0.6302,-0.5704,-0.5138,0.0,0.0,0.0,0.0,0.0,0.0,0.0,0.0,0.0,0.0,0.0,-0.3425,-0.3478,-0.3823,-0.4426,-0.5102,-0.5871,-0.5389,-0.4966,-0.4886,-0.4713,-0.4558,-0.4545,-0.4427,-0.431,-0.4257,-0.4261,-0.4245,-0.4261,-0.4304,-0.4356,-0.4406,-0.482,-0.4949,-0.4554,-0.4897,-0.5101,-0.4876,-0.4923,-0.4906,-0.4948,-0.5015,-0.5068,-0.5009,-0.4953,-0.4849,-0.4702,-0.3942,-0.3124,-0.2371,-0.2473,-0.1891,0.0224,0.1756,0.2409,0.1839,0.1423,0.1449,0.2329,0.2988,0.3225,0.2634,0.2364,0.2166,-1.3183,0.0,-1.2339,-1.2123,0.0,-1.1955,-1.2024,-1.2174,-1.2262,-1.22,-1.1982,-1.1882,-1.1811,-1.1733,-1.1608,-1.1519,-1.1505,-1.114,-1.0828,-1.0459,-0.9503,-0.888,-0.853,-0.794,-0.765,-0.765,-0.7604,-0.7574,-0.7545,-0.7469,-0.7467,-0.7451,-0.7452,-0.7513,-0.759,-0.765,-0.7783,-0.8039,-0.7704,-0.7536,-0.7533,-0.7215,-0.7016,-0.7004,-0.7324,0.0,0.0,0.0,0.0,0.0,0.0,0.0,0.0,0.0,0.0,-0.356,-0.3495,-0.347,-0.3495,-0.3412,-0.3374,-0.3485,-0.3628,-0.3796,-0.4027,-0.4235,-0.4509,-0.4899,-0.4552,-0.4293,-0.4257,-0.4201,-0.415,-0.4169,-0.4142,-0.4123,-0.408,-0.4051,-0.4067,-0.4051,-0.4087,-0.421,-0.4517,-0.4803,-0.5051,-0.4987,-0.5266,-0.5435,-0.5144,-0.4852,-0.4712,-0.4767,-0.4939,-0.4966,-0.4721,-0.4456,-0.4253,-0.4047,-0.3306,-0.2298,-0.1229,-0.1123,-0.0548,0.1274,0.2762,0.3549,0.2993,0.2694,0.2717,0.311,0.3534,0.3751,0.3423,0.3047,0.2662,-1.3145,-1.2879,-1.2221,-1.1848,-1.174,-1.1674,-1.1652,-1.1615,0.0,0.0,0.0,-1.1593,-1.152,-1.1489,-1.1376,-1.133,-1.1307,-1.1262,-1.0931,-1.0377,-0.9776,-0.9133,-0.8483,-0.7889,-0.7536,-0.7422,-0.7435,-0.7404,-0.7345,-0.7282,-0.7249,-0.7244,-0.7249,-0.7296,-0.7345,-0.7407,-0.7545,-0.7753,-0.787,-0.7914,-0.7899,-0.7914,-0.7885,-0.7811,-0.7811,-0.7766,-0.7634,-0.7048,-0.6422,-0.5775,-0.5063,-0.4398,-0.3848,-0.3636,-0.3487,-0.3353,-0.3357,-0.3332,-0.3246,-0.3314,-0.3357,-0.3378,-0.3636,-0.3874,-0.4031,-0.4185,-0.4293,-0.4284,-0.4316,-0.4341,-0.4348,-0.4287,-0.4233,-0.4225,-0.4216,-0.419,-0.4129,-0.4013,-0.3998,-0.397,-0.3982,-0.4125,-0.459,-0.4865,-0.5054,-0.5353,-0.5507,-0.5601,-0.5436,-0.4922,-0.459,-0.4664,-0.4775,-0.472,-0.4279,-0.3663,-0.3354,-0.3207,-0.2415,-0.1366,-0.0256,0.044,0.1146,0.2303,0.3683,0.419,0.3927,0.3778,0.3854,0.3843,0.4015,0.4166,0.4031,0.3657,0.3235,-1.335,-1.2583,-1.194,-1.1571,-1.1466,-1.1444,-1.1399,-1.1293,-1.1513,-1.1549,-1.1429,-1.1378,-1.1279,-1.1155,-1.1099,-1.1015,-1.0968,-1.0968,-1.0889,-1.0791,-1.0123,-0.9502,-0.8888,-0.8291,-0.7707,-0.7182,-0.7169,-0.7139,-0.7139,-0.7075,-0.7042,-0.7055,-0.7026,-0.7075,-0.7139,-0.7155,-0.7171,-0.7221,-0.7438,-0.7575,-0.756,-0.756,-0.753,-0.7469,-0.747,-0.7213,-0.6714,-0.656,-0.6168,-0.5578,-0.4907,-0.4429,-0.4223,-0.3644,-0.3288,-0.3154,-0.3145,-0.3109,-0.304,-0.31,-0.3198,-0.3332,-0.3821,-0.4047,-0.3876,-0.4332,-0.4637,-0.4643,-0.4985,-0.5305,-0.5302,-0.5207,-0.5076,-0.507,-0.5049,-0.5003,-0.4854,-0.4489,-0.4226,-0.4223,-0.4185,-0.4148,-0.432,-0.501,-0.5328,-0.5007,-0.5254,-0.5367,-0.4844,-0.4696,-0.4719,-0.4672,-0.4563,-0.4269,-0.3645,-0.2677,-0.2178,-0.2273,-0.1147,0.0084,0.1234,0.2082,0.2892,0.3934,0.4548,0.48,0.4559,0.4513,0.4423,0.4367,0.4454,0.4446,0.4308,0.4118,0.3873,-1.3322,-1.2816,-1.1765,-1.127,-1.1155,-1.1062,-1.0944,-1.0849,-1.0912,-1.1056,-1.1169,-1.1023,-1.0928,-1.0873,-1.0729,-1.0656,-1.0645,-1.0583,-1.0559,-1.0519,-0.9884,-0.9426,-0.9073,-0.8214,-0.7625,-0.7314,-0.6984,-0.6811,-0.6778,-0.6748,-0.6714,-0.674,-0.6727,-0.6761,-0.6824,-0.6824,-0.6824,-0.6841,-0.7123,-0.7282,-0.7298,-0.7282,-0.7251,-0.7235,-0.7171,-0.7001,-0.6729,-0.6332,-0.5834,-0.52,-0.4567,-0.4041,-0.3615,-0.3264,-0.3037,-0.2935,-0.2937,-0.2909,-0.2835,-0.3144,-0.336,-0.3526,-0.4007,-0.428,-0.4179,-0.4642,-0.4889,-0.4865,-0.5026,-0.5098,-0.5073,-0.501,-0.4947,-0.4934,-0.487,-0.4806,-0.4767,-0.4545,-0.4352,-0.4353,-0.4265,-0.4278,-0.4455,-0.4873,-0.5153,-0.4932,-0.5159,-0.4995,-0.4491,-0.4149,-0.3973,-0.3965,-0.3607,-0.3171,-0.2699,-0.1738,-0.1101,-0.1035,0.0062,0.1233,0.2274,0.3125,0.3861,0.4582,0.498,0.5024,0.4885,0.4808,0.4748,0.4692,0.4686,0.4657,0.4542,0.4431,0.4201,-1.3216,-1.2935,-1.171,-1.1045,-1.0825,-1.0656,-1.051,-1.0398,-1.0376,-1.0487,-1.0705,-1.063,-1.058,-1.0559,-1.0374,-1.0274,-1.0274,-1.0199,-1.0173,-1.011,-0.9624,-0.9309,-0.9095,-0.8185,-0.7623,-0.7362,-0.6883,-0.6576,-0.6448,-0.6441,-0.6418,-0.6425,-0.6448,-0.6453,-0.65,-0.6512,-0.6512,-0.6495,-0.6744,-0.6911,-0.6977,-0.6993,-0.6977,-0.696,-0.6858,-0.6726,-0.6551,-0.6038,-0.5408,-0.4658,-0.4149,-0.3599,-0.2978,-0.2869,-0.2796,-0.275,-0.2796,-0.2868,-0.2924,-0.3305,-0.3583,-0.3659,-0.4156,-0.4445,-0.4491,-0.4932,-0.5179,-0.508,-0.507,-0.5032,-0.4969,-0.4885,-0.4778,-0.4764,-0.4716,-0.4757,-0.4683,-0.4532,-0.4393,-0.4391,-0.4245,-0.4257,-0.4444,-0.4487,-0.4527,-0.4621,-0.4586,-0.4353,-0.402,-0.3396,-0.2968,-0.2717,-0.2351,-0.1966,-0.1645,-0.0707,-0.0033,0.0248,0.1096,0.2038,0.2917,0.3618,0.4191,0.4769,0.4989,0.5029,0.5018,0.497,0.4914,0.486,0.4835,0.4823,0.4751,0.4646,0.4426,-1.3074,-1.247,-1.171,-1.0977,-1.0389,-1.0286,-1.0186,-1.0034,-0.9995,-0.9945,-0.9969,-1.02,-1.0264,-1.0148,-0.9995,-0.9905,-0.9854,-0.9788,-0.9762,-0.9762,-0.9687,-0.9353,-0.8815,-0.861,-0.8023,-0.71,-0.6915,-0.6676,-0.6307,-0.6254,-0.623,-0.623,-0.6218,-0.6236,-0.6236,-0.6236,-0.6201,-0.6159,-0.6177,-0.6355,-0.6633,-0.6651,-0.6633,-0.6547,-0.6547,-0.6181,-0.5564,-0.5399,-0.4859,-0.3831,-0.3636,-0.3309,-0.2815,-0.2665,-0.2597,-0.2558,-0.2814,-0.3134,-0.3462,-0.3621,-0.3636,-0.3597,-0.4192,-0.4514,-0.4401,-0.5124,-0.55,-0.5275,-0.5473,-0.5553,-0.5523,-0.539,-0.5258,-0.5108,-0.5159,-0.5299,-0.5115,-0.4771,-0.4447,-0.4314,-0.4112,-0.3932,-0.3744,-0.3823,-0.3817,-0.3495,-0.3262,-0.2971,-0.2657,-0.2168,-0.1601,-0.1187,-0.0896,-0.0845,-0.0547,0.042,0.1027,0.1278,0.1881,0.2641,0.3319,0.3807,0.4269,0.4678,0.4937,0.4986,0.5021,0.5019,0.505,0.4978,0.4961,0.4941,0.4885,0.4781,0.4582,-1.2817,-1.2481,-1.1757,-1.1023,-1.0378,-1.0247,-0.9968,-0.9659,-0.9569,-0.9528,-0.9499,-0.9572,-0.9639,-0.9725,-0.9647,-0.9555,-0.9514,-0.9473,-0.9461,-0.9446,-0.9366,-0.9207,-0.8928,-0.8461,-0.8009,-0.7529,-0.7192,-0.6925,-0.6723,-0.6455,-0.6173,-0.5922,-0.59,-0.5888,-0.59,-0.5893,-0.5904,-0.5878,-0.5819,-0.5856,-0.5948,-0.6141,-0.6212,-0.6147,-0.6111,-0.5904,-0.5481,-0.5143,-0.467,-0.4099,-0.3716,-0.3359,-0.3066,-0.2989,-0.2937,-0.2928,-0.3016,-0.3153,-0.335,-0.3602,-0.3765,-0.3731,-0.4275,-0.4566,-0.4567,-0.4943,-0.5039,-0.48,-0.5048,-0.5223,-0.5078,-0.4972,-0.4884,-0.4835,-0.4806,-0.4806,-0.4758,-0.4499,-0.4249,-0.4075,-0.3844,-0.3557,-0.3193,-0.2889,-0.2582,-0.2216,-0.1988,-0.1703,-0.1332,-0.0939,-0.0454,0.0125,0.0506,0.06,0.0524,0.1089,0.1654,0.194,0.2386,0.3017,0.3512,0.3897,0.4226,0.4599,0.4813,0.4954,0.4999,0.5051,0.5075,0.5057,0.506,0.5045,0.4969,0.4888,0.4753,-1.2504,-1.2252,-1.1554,-1.0919,-1.0409,-1.0155,-0.9798,-0.9375,-0.9177,-0.9081,-0.9031,-0.8945,-0.9005,-0.9155,-0.9182,-0.9182,-0.9139,-0.9112,-0.9124,-0.9069,-0.8971,-0.8916,-0.8816,-0.8354,-0.7997,-0.7809,-0.74,-0.714,-0.6955,-0.6659,-0.6244,-0.586,-0.5804,-0.574,-0.5622,-0.5625,-0.5598,-0.5587,-0.5501,-0.5425,-0.5406,-0.5587,-0.5708,-0.5715,-0.5708,-0.5595,-0.5434,-0.4969,-0.4582,-0.4278,-0.3788,-0.3422,-0.3176,-0.3099,-0.3107,-0.3201,-0.3153,-0.3231,-0.3408,-0.3664,-0.3826,-0.3888,-0.4229,-0.4394,-0.4398,-0.4547,-0.4475,-0.4126,-0.4216,-0.4268,-0.4426,-0.4305,-0.4224,-0.4175,-0.4134,-0.4126,-0.4086,-0.3994,-0.3836,-0.3619,-0.3294,-0.2969,-0.2426,-0.1844,-0.1342,-0.1058,-0.0838,-0.0553,-0.0154,0.0198,0.0616,0.1169,0.1735,0.1802,0.1398,0.1759,0.215,0.2348,0.2723,0.3167,0.3622,0.3891,0.4179,0.4515,0.4714,0.4882,0.4944,0.5018,0.509,0.5091,0.5097,0.5083,0.5043,0.4989,0.4924,-1.221,-1.1688,-1.0941,-1.0616,-1.0441,-0.9894,-0.9518,-0.924,-0.8847,-0.8572,-0.8449,-0.8446,-0.8389,-0.8393,-0.8606,-0.8717,-0.8717,-0.8673,-0.8617,-0.8583,-0.8555,-0.846,-0.8347,-0.8287,-0.8028,-0.7613,-0.7504,-0.7205,-0.6683,-0.665,-0.6462,-0.602,-0.6023,-0.5858,-0.5508,-0.5437,-0.5369,-0.533,-0.5204,-0.5098,-0.5029,-0.4981,-0.5088,-0.5262,-0.531,-0.5214,-0.5039,-0.4883,-0.4526,-0.3946,-0.371,-0.3367,-0.2901,-0.2786,-0.2902,-0.3157,-0.3199,-0.3426,-0.3804,-0.3796,-0.3762,-0.3797,-0.386,-0.3834,-0.3681,-0.4025,-0.404,-0.3577,-0.3157,-0.312,-0.3591,-0.3626,-0.3515,-0.3416,-0.3423,-0.3402,-0.3374,-0.3298,-0.3129,-0.2874,-0.25,-0.1974,-0.1213,-0.071,-0.0355,-0.0044,0.02,0.0467,0.0843,0.122,0.1592,0.205,0.2474,0.2656,0.2029,0.241,0.2704,0.2873,0.3187,0.3429,0.3624,0.3883,0.4169,0.4437,0.466,0.4826,0.4884,0.4957,0.5012,0.5053,0.5092,0.5078,0.5083,0.5096,0.5034,-1.1735,-1.1447,-1.1102,-1.0767,-1.037,-1.0086,-0.9572,-0.889,-0.8623,-0.8307,-0.8025,-0.7918,-0.787,-0.784,-0.7908,-0.808,-0.8375,-0.8347,-0.8329,-0.8301,-0.8244,-0.8187,-0.8042,-0.8004,-0.7876,-0.7661,-0.7631,-0.7348,-0.6865,-0.6775,-0.6552,-0.6135,-0.5876,-0.5705,-0.557,-0.5284,-0.5127,-0.5108,-0.4932,-0.4814,-0.4724,-0.4644,-0.4604,-0.4604,-0.4814,-0.4814,-0.4575,-0.4463,-0.4236,-0.3851,-0.3658,-0.3392,-0.3149,-0.3097,-0.3136,-0.3253,-0.3273,-0.338,-0.3605,-0.3472,-0.3359,-0.3359,-0.3338,-0.329,-0.3262,-0.3452,-0.3458,-0.3035,-0.2562,-0.2437,-0.2627,-0.2858,-0.295,-0.2864,-0.2805,-0.2745,-0.2654,-0.2558,-0.238,-0.2007,-0.1501,-0.0841,-0.0332,0.0133,0.0489,0.0798,0.1066,0.1355,0.1686,0.2015,0.2341,0.2773,0.3193,0.3426,0.3193,0.3401,0.3682,0.3734,0.3956,0.4433,0.475,0.4209,0.4308,0.4859,0.4995,0.4971,0.5096,0.4975,0.5019,0.5064,0.5075,0.5092,0.5098,0.5088,0.5084,-1.1121,-1.0981,-1.0878,-1.0637,-1.0213,-0.9953,-0.9457,-0.875,-0.8329,-0.7978,-0.7709,-0.7498,-0.7403,-0.7403,-0.7353,-0.75,-0.7792,-0.7947,-0.8004,-0.8004,-0.7938,-0.7841,-0.7734,-0.7647,-0.7588,-0.7539,-0.7519,-0.73,-0.6943,-0.6887,-0.6638,-0.6217,-0.5957,-0.5727,-0.553,-0.5186,-0.4999,-0.484,-0.4646,-0.4515,-0.4423,-0.4281,-0.4158,-0.4084,-0.4211,-0.4273,-0.4138,-0.4035,-0.3848,-0.3612,-0.3416,-0.3247,-0.3126,-0.3126,-0.3105,-0.3105,-0.3078,-0.3126,-0.3223,-0.3031,-0.2832,-0.2697,-0.2735,-0.2762,-0.2757,-0.2858,-0.2735,-0.2459,-0.207,-0.1803,-0.1891,-0.2062,-0.2215,-0.2259,-0.2198,-0.2088,-0.1982,-0.1865,-0.1576,-0.111,-0.0555,0.0022,0.0489,0.0822,0.1156,0.1488,0.1752,0.204,0.2367,0.2649,0.2965,0.3374,0.3764,0.4053,0.4155,0.4429,0.4858,0.4945,0.4585,0.5146,0.5461,0.4853,0.4704,0.5223,0.5423,0.5341,0.5211,0.5084,0.5052,0.5085,0.5084,0.5091,0.5091,0.5098,0.5091,-1.0351,-1.0273,-1.0166,-1.0069,-0.9935,-0.9441,-0.9096,-0.8794,-0.8029,-0.7634,-0.7434,-0.7143,-0.7032,-0.6987,-0.6987,-0.7008,-0.7107,-0.7403,-0.7559,-0.7588,-0.7539,-0.746,-0.7372,-0.7303,-0.7225,-0.7166,-0.7125,-0.7026,-0.6862,-0.6866,-0.6661,-0.6306,-0.6267,-0.589,-0.5222,-0.5111,-0.4876,-0.4552,-0.4374,-0.4224,-0.4089,-0.3903,-0.3779,-0.3689,-0.3605,-0.3605,-0.3759,-0.3612,-0.3416,-0.3196,-0.3019,-0.2837,-0.2719,-0.2697,-0.2681,-0.2676,-0.2627,-0.2676,-0.2745,-0.2551,-0.2219,-0.1978,-0.2132,-0.2241,-0.2193,-0.215,-0.2092,-0.1968,-0.1609,-0.1336,-0.1369,-0.1281,-0.1336,-0.1601,-0.1579,-0.1469,-0.1316,-0.1161,-0.0847,-0.0245,0.0222,0.0646,0.1025,0.1358,0.167,0.1935,0.2219,0.2524,0.2842,0.312,0.3458,0.3834,0.4216,0.4538,0.4972,0.5432,0.5884,0.6126,0.5585,0.5542,0.5962,0.5714,0.5641,0.6026,0.6419,0.6344,0.5947,0.577,0.5373,0.5342,0.5251,0.5156,0.5093,0.5092,0.5098,-0.9637,-0.9597,-0.9558,-0.9487,-0.9319,-0.9125,-0.8777,-0.8358,-0.8002,-0.7571,-0.7124,-0.6942,-0.6737,-0.6554,-0.6513,-0.6543,-0.6595,-0.6747,-0.6927,-0.7136,-0.7175,-0.7125,-0.7074,-0.7005,-0.6897,-0.6777,-0.6686,-0.6604,-0.6573,-0.6543,-0.6438,-0.6323,-0.6092,-0.5782,-0.5332,-0.4995,-0.4617,-0.426,-0.406,-0.3896,-0.3758,-0.3612,-0.3472,-0.3351,-0.3181,-0.3074,-0.3046,-0.3126,-0.3062,-0.2853,-0.2659,-0.2442,-0.2267,-0.2263,-0.2259,-0.2224,-0.2237,-0.2302,-0.2372,-0.211,-0.1759,-0.1474,-0.1544,-0.1651,-0.1651,-0.1616,-0.1588,-0.1517,-0.1211,-0.1036,-0.1014,-0.0838,-0.0828,-0.1127,-0.0979,-0.083,-0.0673,-0.0357,0.0,0.04,0.0803,0.1183,0.1471,0.1781,0.2048,0.235,0.2611,0.2934,0.3269,0.3556,0.3888,0.4264,0.4637,0.4972,0.5347,0.5678,0.6034,0.6418,0.6206,0.6044,0.6408,0.6678,0.6631,0.6821,0.7212,0.7192,0.6801,0.6366,0.5967,0.5662,0.5584,0.5423,0.518,0.5112,0.5128,-0.8967,-0.8967,-0.8878,-0.8756,-0.87,-0.8618,-0.8359,-0.8023,-0.7788,-0.7445,-0.7044,-0.6839,-0.66,-0.6337,-0.6252,-0.623,-0.6183,-0.6168,-0.6291,-0.6565,-0.6747,-0.6747,-0.6695,-0.6634,-0.6504,-0.6344,-0.6252,-0.6199,-0.6176,-0.6145,-0.6153,-0.6121,-0.5934,-0.5626,-0.5296,-0.4894,-0.4486,-0.4053,-0.3752,-0.3542,-0.3423,-0.326,-0.3132,-0.3009,-0.2859,-0.2686,-0.2567,-0.2611,-0.2567,-0.2464,-0.2263,-0.2066,-0.1872,-0.1887,-0.1887,-0.1869,-0.185,-0.1913,-0.2022,-0.1733,-0.1313,-0.1028,-0.1072,-0.1193,-0.1188,-0.1174,-0.1079,-0.1014,-0.0822,-0.0705,-0.061,-0.0418,-0.0348,-0.0395,-0.0343,-0.0192,0.0024,0.0396,0.0641,0.0883,0.1203,0.1516,0.1784,0.2074,0.2337,0.2637,0.2934,0.3232,0.3563,0.3888,0.4244,0.4587,0.4923,0.53,0.5681,0.5948,0.6177,0.6475,0.6684,0.6742,0.6991,0.7258,0.7349,0.7731,0.8129,0.7971,0.7601,0.7027,0.6564,0.6296,0.6169,0.6267,0.6204,0.5344,0.5181,-0.8332,-0.8332,-0.8103,-0.807,-0.8126,-0.7995,-0.7897,-0.7811,-0.7444,-0.7236,-0.7081,-0.684,-0.6549,-0.626,-0.6244,-0.6113,-0.589,-0.5904,-0.5934,-0.6039,-0.6246,-0.641,-0.6337,-0.6199,-0.6075,-0.5913,-0.589,-0.5835,-0.5773,-0.578,-0.5756,-0.5742,-0.5705,-0.5514,-0.5054,-0.4773,-0.4389,-0.3886,-0.3526,-0.3293,-0.3123,-0.2957,-0.2774,-0.2707,-0.2564,-0.2444,-0.2288,-0.2108,-0.203,-0.2034,-0.1825,-0.167,-0.1601,-0.1579,-0.1557,-0.1535,-0.1449,-0.1541,-0.1607,-0.1336,-0.0938,-0.0645,-0.0706,-0.0778,-0.0814,-0.0706,-0.0576,-0.056,-0.0422,-0.0311,-0.0171,0.0,0.02,0.0424,0.0387,0.0507,0.0791,0.1087,0.1209,0.1235,0.1491,0.182,0.2057,0.2333,0.2611,0.2816,0.3111,0.3423,0.3751,0.4081,0.4466,0.4824,0.5166,0.5528,0.5874,0.6057,0.6278,0.654,0.6807,0.7009,0.7282,0.756,0.7912,0.8343,0.868,0.8562,0.8407,0.7878,0.7482,0.7281,0.7317,0.7458,0.7004,0.6157,0.586,-0.7704,-0.7731,-0.7641,-0.7648,-0.7697,-0.7614,-0.7572,-0.753,-0.7369,-0.7145,-0.7015,-0.6902,-0.6652,-0.6377,-0.6356,-0.6307,-0.618,-0.611,-0.6096,-0.6102,-0.6124,-0.6082,-0.5987,-0.5857,-0.5739,-0.5614,-0.5589,-0.5515,-0.5435,-0.5442,-0.5372,-0.5289,-0.5289,-0.5093,-0.4711,-0.448,-0.4165,-0.3715,-0.3469,-0.3256,-0.3027,-0.295,-0.2815,-0.2569,-0.242,-0.2263,-0.2056,-0.1702,-0.1544,-0.1613,-0.1452,-0.1296,-0.1227,-0.1181,-0.1139,-0.11,-0.1121,-0.1139,-0.1174,-0.0946,-0.0613,-0.0359,-0.0332,-0.0357,-0.0362,-0.0252,-0.0143,-0.0089,0.0,0.0092,0.0222,0.0447,0.0767,0.1172,0.1132,0.112,0.134,0.16,0.176,0.171,0.2135,0.2392,0.2572,0.2719,0.299,0.3095,0.3316,0.3617,0.4037,0.4416,0.4841,0.5058,0.5368,0.5715,0.6009,0.6183,0.6378,0.6621,0.6824,0.6977,0.7282,0.7575,0.7982,0.8427,0.8784,0.8793,0.9009,0.8901,0.8624,0.8192,0.8143,0.8098,0.7674,0.7027,0.7129,-0.7112,-0.7238,-0.7147,-0.7147,-0.7231,-0.7154,-0.7063,-0.7034,-0.7027,-0.6899,-0.676,-0.678,-0.666,-0.6391,-0.6333,-0.6215,-0.6048,-0.5968,-0.5918,-0.5881,-0.5861,-0.5832,-0.5807,-0.576,-0.5678,-0.5517,-0.5372,-0.5267,-0.5209,-0.5081,-0.496,-0.4909,-0.4877,-0.4671,-0.4392,-0.4222,-0.3944,-0.3542,-0.3272,-0.3023,-0.2809,-0.2672,-0.2472,-0.2256,-0.2099,-0.1959,-0.1648,-0.1372,-0.1254,-0.1281,-0.1139,-0.0983,-0.0895,-0.0828,-0.0771,-0.0723,-0.0753,-0.0792,-0.0829,-0.0596,-0.0276,-0.0059,0.003,0.003,0.0091,0.0212,0.0341,0.0381,0.0415,0.0521,0.0699,0.094,0.1308,0.1656,0.1766,0.1767,0.1809,0.2064,0.2125,0.2201,0.2535,0.3123,0.334,0.3463,0.3485,0.3621,0.3853,0.4169,0.4533,0.4891,0.5239,0.547,0.5783,0.6193,0.642,0.6559,0.6797,0.7022,0.7118,0.7223,0.7365,0.7662,0.7968,0.8399,0.8789,0.9109,0.9216,0.9358,0.9255,0.8939,0.8851,0.8743,0.8451,0.8107,0.8221,-0.6568,-0.6745,-0.6526,-0.6568,-0.6745,-0.6568,-0.6483,-0.6483,-0.6483,-0.6477,-0.6501,-0.6605,-0.6537,-0.6321,-0.6314,-0.6069,-0.5718,-0.5722,-0.5615,-0.5589,-0.5583,-0.5655,-0.5795,-0.5713,-0.5615,-0.545,-0.5186,-0.5115,-0.5004,-0.4749,-0.4563,-0.453,-0.4469,-0.4333,-0.4109,-0.3951,-0.3675,-0.3361,-0.3051,-0.2761,-0.2503,-0.2301,-0.2073,-0.1883,-0.169,-0.1504,-0.1212,-0.1027,-0.1001,-0.1016,-0.0846,-0.0722,-0.0582,-0.0511,-0.0477,-0.0477,-0.0433,-0.0449,-0.0554,-0.0267,0.0089,0.0322,0.0381,0.0413,0.0491,0.0659,0.0825,0.0863,0.0873,0.1004,0.1208,0.151,0.1778,0.2042,0.226,0.2311,0.2298,0.2415,0.2541,0.2466,0.2873,0.3663,0.4204,0.4346,0.4031,0.4088,0.4346,0.463,0.4989,0.5382,0.5704,0.5992,0.6361,0.6743,0.688,0.6955,0.7236,0.7497,0.7554,0.7623,0.7606,0.7808,0.8001,0.8306,0.8719,0.8968,0.9116,0.9257,0.9412,0.9494,0.9261,0.9495,0.9643,0.9276,0.9188,-0.5933,-0.5933,-0.597,-0.605,-0.6147,-0.6147,-0.6105,-0.6105,-0.6105,-0.6142,-0.627,-0.627,-0.6325,-0.6349,-0.6199,-0.6145,-0.5937,-0.5802,-0.5728,-0.5644,-0.5544,-0.5544,-0.5534,-0.5443,-0.5326,-0.5158,-0.5076,-0.4925,-0.4755,-0.4556,-0.435,-0.4226,-0.4084,-0.3918,-0.3746,-0.3612,-0.3437,-0.3171,-0.2903,-0.2617,-0.2323,-0.2108,-0.1856,-0.1622,-0.128,-0.1033,-0.0867,-0.0651,-0.0551,-0.0566,-0.0562,-0.0481,-0.0398,-0.032,-0.0269,-0.0245,-0.0165,-0.0164,-0.022,0.0029,0.0435,0.0827,0.0829,0.083,0.0969,0.1174,0.1308,0.1375,0.1442,0.1585,0.1769,0.1921,0.2135,0.238,0.2572,0.2719,0.2834,0.2917,0.2971,0.3169,0.3496,0.3956,0.4335,0.4501,0.4441,0.4569,0.481,0.5081,0.5473,0.5915,0.6206,0.6542,0.6886,0.7282,0.7533,0.7656,0.7968,0.8113,0.8129,0.8117,0.8097,0.7789,0.7915,0.824,0.8644,0.8852,0.9026,0.9179,0.934,0.9491,0.9601,0.9687,0.9735,0.9773,0.9838,-0.5371,-0.5361,-0.5448,-0.5577,-0.5658,-0.5626,-0.5583,-0.5583,-0.5583,-0.562,-0.5707,-0.5744,-0.5836,-0.5879,-0.5787,-0.5739,-0.5663,-0.5491,-0.5361,-0.527,-0.5178,-0.5091,-0.4995,-0.4949,-0.4883,-0.4909,-0.4779,-0.4626,-0.4485,-0.4257,-0.4021,-0.3867,-0.372,-0.3516,-0.3311,-0.3208,-0.2999,-0.2735,-0.2547,-0.2311,-0.2009,-0.1744,-0.1546,-0.1308,-0.0946,-0.0638,-0.041,-0.0435,-0.0368,-0.0306,-0.0275,-0.0238,-0.0199,-0.0113,-0.0057,-0.0029,0.0088,0.015,0.0123,0.0378,0.078,0.1271,0.1276,0.131,0.1377,0.1611,0.1803,0.1898,0.1991,0.2106,0.2305,0.2534,0.2672,0.2815,0.3061,0.3247,0.3304,0.3261,0.3274,0.3565,0.3899,0.4345,0.463,0.478,0.5036,0.5226,0.5535,0.5812,0.6239,0.662,0.6821,0.7118,0.7424,0.7779,0.8134,0.8435,0.8776,0.8832,0.8774,0.8732,0.8679,0.8216,0.7753,0.8205,0.8686,0.8801,0.8962,0.9119,0.9274,0.9412,0.9527,0.9583,0.9654,0.9714,0.9766,-0.4893,-0.4879,-0.4966,-0.5053,-0.5135,-0.5009,-0.4971,-0.4971,-0.4971,-0.5014,-0.5014,-0.5091,-0.5178,-0.5178,-0.5178,-0.5096,-0.5014,-0.4932,-0.4849,-0.4714,-0.467,-0.4539,-0.4395,-0.4326,-0.4349,-0.4682,-0.4497,-0.4306,-0.4127,-0.3874,-0.369,-0.3508,-0.3307,-0.3114,-0.2883,-0.2743,-0.2572,-0.2247,-0.2078,-0.1845,-0.1542,-0.1243,-0.1076,-0.0805,-0.0603,-0.0267,-0.0066,-0.0099,-0.02,-0.0034,0.0034,0.0032,0.003,0.0058,0.0177,0.0156,0.0375,0.0413,0.0424,0.0732,0.1203,0.164,0.1728,0.1769,0.1841,0.2048,0.224,0.2391,0.2466,0.2569,0.2796,0.2972,0.317,0.3333,0.3651,0.3822,0.3786,0.3647,0.3802,0.3798,0.4188,0.4625,0.4998,0.5284,0.5605,0.5882,0.6176,0.649,0.6885,0.7218,0.7365,0.763,0.7949,0.8415,0.8765,0.8985,0.9352,0.9431,0.9374,0.9309,0.9321,0.9385,0.9048,0.8493,0.8702,0.8828,0.8936,0.9054,0.9214,0.933,0.9394,0.9457,0.9534,0.9631,0.9714,-0.4368,-0.428,-0.4364,-0.4447,-0.4491,-0.4447,-0.4447,-0.4447,-0.4447,-0.4451,-0.4539,-0.4539,-0.4622,-0.4661,-0.4574,-0.4495,-0.4451,-0.4408,-0.432,-0.4184,-0.4096,-0.3968,-0.3836,-0.3748,-0.366,-0.3653,-0.3785,-0.39,-0.3738,-0.351,-0.332,-0.3159,-0.291,-0.2676,-0.2504,-0.2392,-0.2162,-0.1832,-0.1648,-0.1408,-0.1075,-0.084,-0.0572,-0.0303,-0.0134,0.0034,0.0235,0.0235,0.0202,0.0235,0.0303,0.0332,0.0391,0.0389,0.0457,0.0491,0.0691,0.0762,0.0637,0.1145,0.1678,0.2094,0.2269,0.2286,0.2385,0.256,0.2719,0.2844,0.2908,0.3001,0.3197,0.3406,0.3532,0.3722,0.4013,0.4299,0.4427,0.4603,0.4581,0.4414,0.463,0.4901,0.528,0.5642,0.5859,0.6168,0.6482,0.6755,0.7116,0.7451,0.7723,0.807,0.8431,0.8947,0.9445,0.9565,0.978,0.9879,0.9869,0.9844,1.0046,1.0677,1.0534,0.9677,0.9047,0.8944,0.9024,0.9111,0.912,0.9231,0.9263,0.9301,0.9394,0.9517,0.9617,-0.4012,-0.388,-0.4052,-0.41,-0.4096,-0.41,-0.41,-0.4096,-0.41,-0.41,-0.4144,-0.4144,-0.4188,-0.4184,-0.4096,-0.4012,-0.3924,-0.388,-0.3744,-0.3609,-0.348,-0.3394,-0.3262,-0.3176,-0.304,-0.2904,-0.3031,-0.3164,-0.3164,-0.3066,-0.287,-0.2675,-0.2496,-0.226,-0.2083,-0.1981,-0.1691,-0.1398,-0.1229,-0.1008,-0.0605,-0.0336,-0.0034,0.0134,0.0235,0.037,0.0504,0.0471,0.0403,0.0437,0.0538,0.0639,0.0746,0.0929,0.1004,0.0916,0.1113,0.1177,0.1084,0.1579,0.2226,0.2654,0.2723,0.2751,0.2879,0.3003,0.3171,0.3279,0.342,0.3527,0.3704,0.3888,0.4107,0.435,0.4664,0.4929,0.5105,0.542,0.5305,0.5069,0.5209,0.5417,0.5596,0.5891,0.6122,0.6421,0.6751,0.7053,0.737,0.7588,0.7889,0.828,0.8651,0.9101,0.9579,0.9776,0.9944,1.0097,1.0247,1.023,1.0459,1.0966,1.0899,1.0369,0.9873,0.9502,0.9245,0.9359,0.9248,0.915,0.9272,0.9351,0.9345,0.9394,0.9627,-0.3748,-0.37,-0.3792,-0.3836,-0.3836,-0.3836,-0.384,-0.3836,-0.384,-0.384,-0.3796,-0.3796,-0.3748,-0.3704,-0.3571,-0.3483,-0.3398,-0.3309,-0.317,-0.3034,-0.2901,-0.2815,-0.2687,-0.2598,-0.2462,-0.2326,-0.2144,-0.2192,-0.2506,-0.2453,-0.2365,-0.2197,-0.2046,-0.1833,-0.1592,-0.1469,-0.1202,-0.0973,-0.0772,-0.0547,-0.0135,0.0202,0.0437,0.0471,0.0572,0.0642,0.0791,0.0724,0.0731,0.0769,0.091,0.1047,0.1191,0.1589,0.1701,0.1543,0.1664,0.1652,0.1673,0.2152,0.2757,0.3228,0.3224,0.3256,0.3349,0.3465,0.3611,0.3803,0.3902,0.4069,0.4223,0.4482,0.4696,0.4986,0.5353,0.5679,0.5743,0.5942,0.6123,0.6003,0.5937,0.5991,0.6207,0.6511,0.6778,0.7045,0.7422,0.7439,0.7687,0.7676,0.7966,0.8375,0.8784,0.9205,0.9552,0.9802,0.9944,1.0097,1.0273,1.0365,1.0692,1.1089,1.0944,1.0867,1.0868,1.0512,1.008,0.9607,0.9522,0.9451,0.9435,0.9645,1.0057,1.0066,1.0115,-0.3622,-0.3626,-0.3626,-0.3622,-0.367,-0.3622,-0.3622,-0.3622,-0.3622,-0.3575,-0.3483,-0.3442,-0.335,-0.3126,-0.304,-0.2909,-0.2821,-0.2732,-0.2593,-0.2413,-0.2366,-0.2237,-0.2107,-0.2109,-0.1927,-0.1746,-0.1567,-0.1748,-0.1884,-0.1792,-0.1744,-0.1638,-0.1495,-0.1306,-0.1169,-0.0981,-0.0754,-0.0482,-0.029,0.0,0.0376,0.0612,0.0749,0.085,0.0921,0.1006,0.115,0.1157,0.1173,0.1365,0.1491,0.169,0.1967,0.2161,0.2479,0.2545,0.2557,0.2333,0.2181,0.2698,0.332,0.3712,0.3765,0.379,0.3881,0.4047,0.417,0.4184,0.4316,0.4495,0.4718,0.4932,0.5193,0.5496,0.5836,0.6093,0.6289,0.6329,0.6521,0.6639,0.648,0.6638,0.6812,0.7177,0.7487,0.7774,0.7975,0.7996,0.8108,0.8168,0.8253,0.8689,0.8911,0.9298,0.9579,0.9802,0.9995,1.0136,1.0274,1.0487,1.0753,1.1062,1.1362,1.1321,1.1377,1.118,1.0544,1.0126,0.9897,1.0108,1.0494,1.0834,1.1136,1.0993,1.0661,-0.3578,-0.3578,-0.3578,-0.3578,-0.3578,-0.3534,-0.3486,-0.3486,-0.3398,-0.3306,-0.3173,-0.3132,-0.2951,-0.2637,-0.2502,-0.2415,-0.2284,-0.2061,-0.1925,-0.1791,-0.17,-0.1612,-0.1478,-0.1435,-0.1299,-0.1165,-0.0987,-0.0852,-0.1077,-0.1166,-0.1165,-0.1076,-0.094,-0.0801,-0.0649,-0.0468,-0.0165,0.0159,0.0502,0.0827,0.0997,0.1211,0.1358,0.1396,0.1467,0.1562,0.1623,0.1711,0.1725,0.1878,0.2036,0.219,0.2444,0.2677,0.3008,0.3138,0.3382,0.3155,0.2763,0.3271,0.3843,0.4268,0.438,0.4252,0.4397,0.4569,0.4714,0.4748,0.4797,0.4932,0.5236,0.541,0.5712,0.6019,0.6264,0.6483,0.6666,0.6751,0.6862,0.6961,0.7079,0.7147,0.7272,0.751,0.7815,0.8132,0.8362,0.8494,0.8691,0.8955,0.9045,0.9146,0.9282,0.9405,0.9632,0.9828,1.0109,1.0238,1.0302,1.0515,1.0732,1.0991,1.127,1.1519,1.1576,1.1298,1.0859,1.1037,1.1155,1.145,1.1773,1.1977,1.2094,1.1529,1.1309,-0.349,-0.3442,-0.3534,-0.3534,-0.3442,-0.335,-0.3262,-0.3265,-0.3129,-0.2993,-0.2815,-0.2595,-0.2326,-0.2101,-0.1921,-0.1789,-0.1703,-0.1389,-0.1254,-0.112,-0.0985,-0.0851,-0.0761,-0.0716,-0.0626,-0.0582,-0.0313,-0.0224,-0.0269,-0.0313,-0.0403,-0.045,-0.0314,-0.0224,-0.0133,0.0087,0.0382,0.0747,0.1233,0.1519,0.1669,0.1825,0.1948,0.203,0.2078,0.217,0.2191,0.2233,0.2237,0.2404,0.2493,0.2667,0.2923,0.3188,0.344,0.3672,0.3964,0.3964,0.3689,0.3888,0.4481,0.4833,0.4937,0.4817,0.5005,0.5159,0.5198,0.527,0.5356,0.5583,0.5804,0.5927,0.6142,0.6398,0.6605,0.6781,0.6956,0.6999,0.7041,0.7098,0.7238,0.7467,0.7601,0.7817,0.8123,0.8477,0.8701,0.8913,0.9209,0.9514,0.967,0.9708,0.9834,0.9929,1.0101,1.0229,1.0401,1.0507,1.0586,1.0728,1.1011,1.1028,1.1132,1.1384,1.1652,1.1647,1.1374,1.1967,1.2483,1.233,1.2319,1.2841,1.2888,1.226,1.2071,-0.3258,-0.3078,-0.3306,-0.3262,-0.3034,-0.3034,-0.2993,-0.2909,-0.2776,-0.2551,-0.2235,-0.1789,-0.1567,-0.1432,-0.1253,-0.1074,-0.0985,-0.0806,-0.0627,-0.0492,-0.0358,-0.0179,-0.0089,0.0045,0.0179,0.0224,0.0358,0.0403,0.0492,0.0582,0.0403,0.0225,0.0314,0.0359,0.0536,0.0753,0.1086,0.1442,0.1834,0.2072,0.2223,0.2376,0.2497,0.2528,0.2567,0.2595,0.262,0.2672,0.2744,0.2867,0.295,0.3129,0.3384,0.3626,0.3865,0.4184,0.4504,0.4569,0.4525,0.4606,0.5019,0.5404,0.5539,0.5458,0.5593,0.5669,0.575,0.5793,0.5873,0.6093,0.6276,0.6447,0.6568,0.6732,0.6901,0.7034,0.716,0.7245,0.7245,0.7245,0.737,0.7572,0.7904,0.8079,0.8476,0.8858,0.9254,0.9442,0.9592,0.9888,1.0134,1.0271,1.0424,1.0599,1.0838,1.1007,1.1231,1.1324,1.1389,1.1411,1.1522,1.1421,1.1066,1.1339,1.1645,1.1762,1.1891,1.2075,1.2282,1.2538,1.2773,1.3067,1.3295,1.2951,1.3018,-0.2993,-0.2724,-0.2726,-0.2771,-0.2815,-0.2635,-0.2502,-0.2415,-0.2284,-0.2061,-0.1657,-0.1208,-0.094,-0.0806,-0.0537,-0.0403,-0.0313,-0.0045,0.0089,0.0268,0.0403,0.0537,0.0672,0.0716,0.0806,0.0851,0.094,0.103,0.1074,0.1254,0.1389,0.1256,0.1076,0.0987,0.1164,0.1475,0.1811,0.2101,0.2404,0.2676,0.2718,0.2848,0.2935,0.2974,0.2974,0.2998,0.3005,0.3098,0.3175,0.3243,0.3344,0.3571,0.3796,0.4012,0.432,0.4626,0.4937,0.5149,0.5318,0.5366,0.5545,0.589,0.6019,0.6067,0.6067,0.6147,0.619,0.627,0.6307,0.6483,0.6702,0.6781,0.6901,0.7076,0.7202,0.7328,0.7412,0.7496,0.7412,0.737,0.7447,0.7607,0.7979,0.8366,0.8787,0.9257,0.9627,0.9961,1.0076,1.028,1.0558,1.0822,1.0999,1.1104,1.1345,1.1709,1.2096,1.2137,1.2135,1.2144,1.2081,1.1286,1.1071,1.1345,1.1747,1.2075,1.2185,1.2003,1.206,1.2323,1.2623,1.2961,1.3174,1.3379,1.3544,-0.2546,-0.2281,-0.2057,-0.2148,-0.2373,-0.2148,-0.1967,-0.1878,-0.1701,-0.1435,-0.1031,-0.0627,-0.0313,-0.0134,0.0089,0.0313,0.0403,0.0582,0.0761,0.094,0.1074,0.1254,0.1344,0.1389,0.1433,0.1433,0.1521,0.1655,0.1655,0.1837,0.1971,0.2016,0.1927,0.1835,0.1746,0.2148,0.2549,0.2679,0.2946,0.3123,0.3114,0.3249,0.3293,0.3328,0.3322,0.3281,0.3331,0.3375,0.3422,0.352,0.3656,0.3832,0.4144,0.4408,0.4714,0.5062,0.5366,0.5712,0.5884,0.6056,0.6105,0.6319,0.6404,0.6453,0.6496,0.6496,0.6575,0.6611,0.6647,0.6732,0.6992,0.7076,0.7245,0.7412,0.7572,0.7655,0.7704,0.7746,0.7621,0.7538,0.7614,0.7731,0.8136,0.8553,0.9119,0.9558,0.9895,1.0223,1.0429,1.0688,1.1043,1.1315,1.1537,1.1676,1.1814,1.2229,1.2625,1.2742,1.2749,1.2817,1.2534,1.1871,1.1685,1.223,1.2546,1.2573,1.2441,1.2223,1.2137,1.2096,1.2546,1.3059,1.3031,1.3209,1.3362,-0.2014,-0.1794,-0.1478,-0.1523,-0.1748,-0.1524,-0.1389,-0.1299,-0.103,-0.0762,-0.0404,0.0,0.0269,0.0493,0.0761,0.094,0.1074,0.1253,0.1432,0.1523,0.1748,0.1928,0.1973,0.2018,0.2018,0.2107,0.215,0.219,0.2235,0.2415,0.2595,0.2684,0.264,0.2549,0.2326,0.2684,0.2907,0.2993,0.3258,0.335,0.3398,0.3486,0.3534,0.3534,0.3534,0.3486,0.3534,0.353,0.3615,0.37,0.388,0.41,0.4451,0.4797,0.5145,0.5491,0.5922,0.6093,0.613,0.652,0.6653,0.666,0.6702,0.666,0.6708,0.6793,0.6829,0.6823,0.6901,0.7027,0.716,0.7335,0.7538,0.7746,0.7863,0.7946,0.7953,0.7912,0.778,0.7663,0.7787,0.7946,0.8349,0.8797,0.9439,0.9883,1.0196,1.0467,1.0687,1.096,1.1281,1.1592,1.1837,1.2129,1.2304,1.2787,1.3119,1.3289,1.3329,1.3278,1.3525,1.3452,1.3346,1.3408,1.3619,1.3916,1.3193,1.2463,1.2569,1.2712,1.2848,1.3163,1.3097,1.3067,1.3192,-0.1521,-0.1299,-0.103,-0.0896,-0.0943,-0.0943,-0.0898,-0.0718,-0.0449,-0.0135,0.0135,0.0494,0.0807,0.1074,0.1344,0.1567,0.1703,0.1878,0.2012,0.2148,0.2373,0.2509,0.2553,0.26,0.26,0.2642,0.2684,0.2726,0.2768,0.2904,0.2948,0.304,0.3129,0.3037,0.2904,0.3084,0.3262,0.3306,0.3442,0.3534,0.3534,0.3578,0.3622,0.3622,0.3578,0.3578,0.3622,0.3619,0.3748,0.388,0.41,0.4451,0.484,0.5188,0.5626,0.5927,0.6264,0.6483,0.6605,0.6865,0.6894,0.6901,0.6859,0.6859,0.6901,0.6943,0.6943,0.6992,0.7076,0.716,0.7335,0.7579,0.7787,0.7946,0.8028,0.8118,0.8167,0.8028,0.7938,0.787,0.7919,0.8201,0.8561,0.9007,0.9616,1.0,1.0312,1.0495,1.0715,1.1029,1.1335,1.1704,1.2033,1.239,1.2756,1.3047,1.3198,1.3216,1.3408,1.3532,1.3914,1.4259,1.4477,1.4242,1.4775,1.5196,1.4175,1.3361,1.3327,1.3431,1.3713,1.3782,1.377,1.3446,1.3033,-0.1032,-0.0852,-0.0627,-0.0494,-0.0405,-0.0494,-0.0405,-0.018,0.009,0.0359,0.0673,0.0941,0.1254,0.1567,0.188,0.2105,0.2241,0.2457,0.2546,0.2682,0.2815,0.2907,0.2954,0.2998,0.2951,0.2996,0.3043,0.3087,0.3126,0.317,0.3262,0.3353,0.3442,0.335,0.3303,0.3435,0.3483,0.3527,0.3615,0.3663,0.3663,0.3619,0.3619,0.3622,0.3578,0.3578,0.3663,0.3748,0.388,0.4144,0.4451,0.4845,0.5231,0.562,0.6013,0.6307,0.6562,0.6732,0.6901,0.6943,0.6979,0.6979,0.6972,0.6972,0.6972,0.6979,0.6979,0.7021,0.716,0.7335,0.7503,0.7795,0.807,0.8193,0.8406,0.8496,0.8414,0.8316,0.8062,0.7995,0.7995,0.8365,0.8814,0.9257,0.9793,1.0088,1.0418,1.0611,1.0791,1.1132,1.1479,1.1884,1.221,1.2579,1.2873,1.306,1.3163,1.321,1.3404,1.3607,1.3828,1.4144,1.4624,1.5041,1.5107,1.5081,1.476,1.4334,1.4239,1.4433,1.4811,1.4765,1.4554,1.4088,1.3569,-0.0494,-0.045,-0.027,-0.018,-0.018,-0.018,0.0045,0.0405,0.0494,0.0718,0.112,0.1299,0.1614,0.1973,0.2328,0.2551,0.2684,0.2857,0.2946,0.3037,0.3126,0.3173,0.3217,0.3217,0.3217,0.3262,0.3306,0.3353,0.3398,0.3442,0.3534,0.3575,0.3575,0.3571,0.3612,0.37,0.3744,0.3744,0.3748,0.3792,0.3748,0.37,0.366,0.3619,0.3578,0.3619,0.3704,0.3877,0.4144,0.4451,0.484,0.5236,0.5674,0.6056,0.6349,0.6641,0.6894,0.6985,0.6985,0.7021,0.7021,0.7021,0.6972,0.6972,0.6972,0.6972,0.6972,0.7063,0.716,0.7419,0.7677,0.8036,0.8349,0.8561,0.8814,0.8822,0.8749,0.8537,0.8234,0.8111,0.807,0.8398,0.8975,0.9515,0.9862,1.0235,1.0534,1.0867,1.1094,1.1394,1.1726,1.2102,1.2437,1.2733,1.299,1.3129,1.3163,1.321,1.3369,1.356,1.3795,1.4013,1.4401,1.4718,1.4935,1.49,1.473,1.4877,1.5111,1.533,1.5369,1.5364,1.5042,1.4999,1.4702,-0.0315,-0.027,-0.0135,-0.0045,-0.0045,0.0135,0.036,0.0629,0.0763,0.0985,0.1344,0.1569,0.1882,0.2237,0.2417,0.2637,0.286,0.3037,0.317,0.3306,0.3394,0.3442,0.3486,0.3442,0.3486,0.3486,0.3534,0.3534,0.3534,0.3622,0.3663,0.3656,0.3704,0.3744,0.3877,0.4052,0.3965,0.3921,0.3924,0.3924,0.3836,0.3788,0.3704,0.3704,0.3622,0.366,0.3788,0.4052,0.4364,0.4714,0.5236,0.5674,0.6007,0.6441,0.6823,0.7118,0.7245,0.7245,0.716,0.716,0.707,0.7021,0.6979,0.6972,0.6972,0.6992,0.6985,0.707,0.7202,0.7468,0.7795,0.816,0.8521,0.8814,0.8984,0.8903,0.8781,0.8455,0.8193,0.8118,0.8111,0.8553,0.9136,0.9545,0.9892,1.0302,1.0677,1.1019,1.1356,1.1616,1.1945,1.2318,1.2544,1.2803,1.299,1.3129,1.3176,1.3245,1.3369,1.3493,1.3695,1.3914,1.4176,1.4433,1.4655,1.4825,1.4845,1.5011,1.5118,1.5344,1.5404,1.5499,1.5567,1.5468,1.55,-0.0135,-0.009,-0.0045,0.0045,0.0135,0.0315,0.0494,0.0719,0.0897,0.1166,0.139,0.1749,0.2018,0.2284,0.2551,0.2771,0.299,0.3214,0.335,0.3486,0.3534,0.3578,0.3578,0.3578,0.3578,0.3578,0.3578,0.3578,0.3622,0.3619,0.3656,0.37,0.3744,0.388,0.4056,0.4184,0.4232,0.4188,0.4144,0.41,0.3968,0.388,0.3792,0.3788,0.3707,0.3748,0.3965,0.432,0.467,0.5062,0.5631,0.6062,0.6435,0.6907,0.7202,0.7454,0.7454,0.7419,0.7335,0.7167,0.7076,0.695,0.6921,0.6943,0.6993,0.6999,0.6983,0.7021,0.7245,0.751,0.7878,0.8283,0.861,0.8984,0.8935,0.8935,0.8643,0.8316,0.8201,0.8118,0.8324,0.8724,0.9168,0.9576,0.9971,1.039,1.0802,1.1132,1.1468,1.1836,1.2138,1.2508,1.265,1.2838,1.299,1.3094,1.3141,1.321,1.3335,1.3459,1.3594,1.3762,1.4026,1.4222,1.4415,1.4511,1.462,1.4746,1.4856,1.5072,1.5284,1.5404,1.5532,1.57,1.5836,0.0,0.0,0.0,0.0045,0.0225,0.0315,0.0494,0.0674,0.0945,0.1212,0.1435,0.1794,0.2064,0.2286,0.2595,0.2862,0.3037,0.3258,0.3398,0.3578,0.3578,0.3578,0.3578,0.3578,0.3578,0.3578,0.3622,0.3622,0.3619,0.366,0.37,0.3744,0.3836,0.4012,0.4232,0.432,0.4368,0.4368,0.4364,0.432,0.4148,0.4016,0.3924,0.3921,0.3877,0.3921,0.4272,0.4666,0.5058,0.5491,0.597,0.6398,0.6901,0.728,0.753,0.7655,0.7655,0.7579,0.7461,0.7245,0.7009,0.6838,0.6753,0.6931,0.7001,0.7039,0.7005,0.7261,0.7517,0.7794,0.8142,0.8559,0.8944,0.9156,0.9156,0.9031,0.8765,0.8401,0.8118,0.8118,0.8398,0.8805,0.9279,0.9686,1.0049,1.0467,1.084,1.1169,1.1511,1.1881,1.2207,1.2544,1.2544,1.265,1.2838,1.2955,1.3072,1.3141,1.3267,1.3404,1.3527,1.3674,1.3808,1.396,1.4124,1.4203,1.43,1.4383,1.4529,1.4732,1.4949,1.5209,1.5433,1.5683,1.5885,0.0,0.0,0.0,0.0,0.009,0.0315,0.045,0.0494,0.0945,0.1213,0.1435,0.1703,0.2016,0.2284,0.2506,0.2771,0.3126,0.3258,0.3394,0.3534,0.3578,0.3578,0.3578,0.3578,0.3578,0.3578,0.3622,0.3622,0.3663,0.3704,0.3836,0.3972,0.402,0.4148,0.432,0.4368,0.446,0.4456,0.4495,0.4495,0.4316,0.4192,0.4104,0.4144,0.414,0.4232,0.4535,0.4884,0.5275,0.5707,0.6179,0.6725,0.7314,0.7655,0.787,0.8002,0.7953,0.7821,0.7628,0.7335,0.6978,0.6829,0.6781,0.6948,0.7042,0.7048,0.7158,0.7508,0.784,0.8116,0.8385,0.882,0.9169,0.931,0.9407,0.9112,0.8872,0.8492,0.8112,0.8289,0.8528,0.8977,0.9479,0.986,1.0166,1.0467,1.0791,1.1115,1.1438,1.1782,1.2106,1.2381,1.2281,1.2389,1.2615,1.2803,1.2885,1.3037,1.3163,1.3301,1.3438,1.3594,1.3695,1.3695,1.3762,1.3861,1.396,1.4013,1.4176,1.4383,1.47,1.4966,1.5254,1.5507,1.5712,0.0,0.0,0.0045,0.009,0.0135,0.0405,0.0539,0.0584,0.0989,0.13,0.1479,0.1703,0.1971,0.2237,0.2462,0.2726,0.3126,0.3258,0.3398,0.3534,0.3578,0.3578,0.3578,0.3578,0.3578,0.3578,0.3578,0.3622,0.366,0.3792,0.388,0.4016,0.4104,0.4236,0.4368,0.446,0.4456,0.4447,0.4622,0.4622,0.453,0.4447,0.4408,0.4451,0.4539,0.467,0.4932,0.528,0.5669,0.6142,0.6611,0.7112,0.7572,0.7919,0.8167,0.8291,0.8242,0.8036,0.7817,0.7475,0.6931,0.6655,0.6643,0.6771,0.7151,0.7148,0.7387,0.7754,0.8243,0.8545,0.8522,0.8814,0.9096,0.9287,0.9332,0.926,0.9009,0.8745,0.8697,0.8989,0.9338,0.977,1.0258,1.0629,1.0893,1.1101,1.1348,1.1466,1.1704,1.1733,1.2059,1.2217,1.2148,1.2157,1.233,1.252,1.2697,1.285,1.306,1.3198,1.3335,1.3493,1.3581,1.3514,1.3527,1.3594,1.3695,1.3749,1.3894,1.4105,1.4447,1.4763,1.5041,1.5314,1.5522,0.0,0.0,0.018,0.0225,0.0315,0.0584,0.0764,0.0808,0.1166,0.1479,0.1703,0.1837,0.1973,0.2196,0.2509,0.2773,0.3037,0.3306,0.3486,0.3578,0.3578,0.3578,0.3578,0.3578,0.3578,0.3578,0.3578,0.3622,0.3619,0.3748,0.3836,0.3924,0.41,0.432,0.4412,0.446,0.4456,0.4578,0.4753,0.4927,0.4879,0.4792,0.4797,0.4884,0.5019,0.5193,0.5458,0.5766,0.6153,0.6532,0.6956,0.737,0.7746,0.8051,0.8365,0.8496,0.8443,0.8279,0.8044,0.7575,0.6882,0.6396,0.6466,0.6707,0.7087,0.7401,0.7666,0.8022,0.8514,0.8772,0.8721,0.8864,0.9156,0.9377,0.9424,0.9431,0.9213,0.9012,0.9244,0.9549,0.9905,1.0365,1.0875,1.1284,1.1475,1.1679,1.1897,1.2093,1.2172,1.2027,1.2087,1.2135,1.2026,1.207,1.2019,1.2371,1.2624,1.2768,1.2978,1.3094,1.3198,1.3357,1.3391,1.3323,1.3323,1.3438,1.3506,1.3607,1.3741,1.3888,1.4105,1.4415,1.4763,1.5041,1.5344,0.0315,0.036,0.0405,0.045,0.0494,0.0852,0.103,0.112,0.1524,0.1794,0.1971,0.2239,0.2417,0.2598,0.2776,0.2996,0.3262,0.3398,0.3486,0.3578,0.3578,0.3578,0.3578,0.3578,0.3578,0.3578,0.3622,0.3619,0.3663,0.3704,0.3788,0.388,0.3924,0.406,0.4152,0.424,0.4364,0.4622,0.4923,0.5145,0.5275,0.5231,0.5188,0.5323,0.5501,0.5674,0.5895,0.6153,0.6398,0.6732,0.7118,0.7461,0.7817,0.8165,0.8511,0.8732,0.8669,0.8574,0.8316,0.7843,0.7146,0.6623,0.6737,0.6854,0.7251,0.76,0.7887,0.8249,0.8672,0.8988,0.909,0.9351,0.9653,0.9776,0.9844,0.9735,0.956,0.9415,0.9392,0.9655,0.996,1.0621,1.1361,1.1559,1.1551,1.1802,1.2009,1.2176,1.226,1.2213,1.2185,1.2136,1.2108,1.1682,1.1491,1.2284,1.2636,1.2782,1.2957,1.3208,1.3291,1.321,1.3232,1.3198,1.3198,1.3267,1.3382,1.3438,1.3539,1.3674,1.3775,1.404,1.4383,1.4763,1.5058]},{"header":{"parameterUnit":"m.s-1","parameterCategory":1,"la1":31.0,"la2":29.5877,"lo1":-88.7671,"lo2":-86.6584,"dy":0.0162,"dx":0.0185,"nx":115,"ny":88,"refTime":"2026-03-13T00:00:00:Z","depth":0,"parameterNumber":3,"parameterNumberName":"V-component_of_WINDS"},"data":[0.0,0.0,0.0,0.0,0.0,0.0,0.0,0.0,0.0,0.0,0.0,0.0,0.0,0.0,0.0,0.0,0.0,0.0,0.0,0.0,0.0,0.0,0.0,0.0,0.0,0.0,0.0,0.0,0.0,0.0,0.0,0.0,0.0,0.0,0.0,0.0,0.0,0.0,0.0,0.0,0.0,0.0,0.0,0.0,0.0,0.0,0.0,0.0,0.0,0.0,0.0,0.0,0.0,0.0,0.0,0.0,0.0,0.0,0.0,0.0,0.0,0.0,0.0,0.0,0.0,0.0,0.0,0.0,0.0,0.0,0.0,0.0,0.0,0.0,0.0,0.0,0.0,0.0,0.0,0.0,0.0,0.0,0.0,0.0,0.0,0.0,0.0,0.0,0.0,0.0,0.0,0.0,0.0,0.0,0.0,0.0,0.0,0.0,0.0,0.0,0.0,0.0,0.0,0.0,0.0,0.0,0.0,0.0,0.0,0.0,0.0,0.0,0.0,0.0,0.0,0.0,0.0,0.0,0.0,0.0,0.0,0.0,0.0,0.0,0.0,0.0,0.0,0.0,0.0,0.0,0.0,0.0,0.0,0.0,0.0,0.0,0.0,0.0,0.0,0.0,0.0,0.0,0.0,0.0,0.0,0.0,0.0,0.0,0.0,0.0,0.0,0.0,0.0,0.0,0.0,0.0,0.0,0.0,0.0,0.0,0.0,0.0,0.0,0.0,0.0,0.0,0.0,0.0,0.0,0.0,0.0,0.0,0.0,0.0,0.0,0.0,0.0,0.0,0.0,0.0,0.0,0.0,0.0,0.0,0.0,0.0,0.0,0.0,0.0,0.0,0.0,0.0,0.0,0.0,0.0,0.0,0.0,0.0,0.0,0.0,0.0,0.0,0.0,0.0,0.0,0.0,0.0,0.0,0.0,0.0,0.0,0.0,0.0,0.0,0.0,0.0,0.0,0.0,0.0,0.0,0.0,0.0,0.0,0.0,0.0,0.0,0.0,0.0,0.0,0.0,0.0,0.0,0.0,0.0,0.0,0.0,0.0,0.0,0.0,0.0,0.0,0.0,0.0,0.0,0.0,0.0,0.0,0.0,0.0,0.0,0.0,0.0,0.0,0.0,0.0,0.0,0.0,0.0,0.0,0.0,0.0,0.0,0.0,0.0,0.0,0.0,0.0,0.0,0.0,0.0,0.0,0.0,0.0,0.0,0.0,0.0,0.0,0.0,0.0,0.0,0.0,0.0,0.0,0.0,0.0,0.0,0.0,0.0,0.0,0.0,0.0,0.0,0.0,0.0,0.0,0.0,0.0,0.0,0.0,0.0,0.0,0.0,0.0,0.0,0.0,0.0,0.0,0.0,0.0,0.0,0.0,0.0,0.0,0.0,0.0,0.0,0.0,0.0,0.0,0.0,0.0,0.0,0.0,0.0,0.0,0.0,0.0,0.0,0.0,0.0,0.0,0.0,0.0,0.0,0.0,0.0,0.0,0.0,0.0,0.0,0.0,0.0,0.0,0.0,0.0,0.0,0.0,0.0,0.0,0.0,0.0,0.0,0.0,0.0,0.0,0.0,0.0,0.0,0.0,0.0,0.0,0.0,0.0,0.0,0.0,0.0,0.0,0.0,0.0,0.0,0.0,0.0,0.0,0.0,0.0,0.0,0.0,0.0,0.0,0.0,0.0,0.0,0.0,0.0,0.0,0.0,0.0,0.0,0.0,0.0,0.0,0.0,0.0,0.0,0.0,0.0,0.0,0.0,0.0,0.0,0.0,0.0,0.0,0.0,0.0,0.0,0.0,0.0,0.0,0.0,0.0,0.0,0.0,0.0,0.0,0.0,0.0,0.0,0.0,0.0,0.0,0.0,0.0,0.0,0.0,0.0,0.0,0.0,0.0,0.0,0.0,0.0,0.0,0.0,0.0,0.0,0.0,0.0,0.0,0.0,0.0,0.0,0.0,0.0,0.0,0.0,0.0,0.0,0.0,0.0,0.0,0.0,0.0,0.0,0.0,0.0,0.0,0.0,0.0,0.0,0.0,0.0,0.0,0.0,0.0,0.0,0.0,0.0,0.0,0.0,0.0,0.0,0.0,0.0,0.0,0.0,0.0,0.0,0.0,0.0,0.0,0.0,0.0,0.0,0.0,0.0,0.0,0.0,0.0,0.0,0.0,0.0,0.0,0.0,0.0,0.0,0.0,0.0,0.0,0.0,0.0,0.0,0.0,0.0,0.0,0.0,0.0,0.0,0.0,0.0,0.0,0.0,0.0,0.0,0.0,0.0,0.0,0.0,0.0,0.0,0.0,0.0,0.0,0.0,0.0,0.0,0.0,0.0,0.0,0.0,0.0,0.0,0.0,0.0,0.0,0.0,0.0,0.0,0.0,0.0,0.0,0.0,0.0,0.0,0.0,0.0,0.0,0.0,0.0,0.0,0.0,0.0,0.0,0.0,0.0,0.0,0.0,0.0,0.0,0.0,0.0,0.0,0.0,0.0,0.0,0.0,0.0,0.0,0.0,0.0,0.0,0.0,0.0,0.0,0.0,0.0,0.0,0.0,0.0,0.0,0.0,0.0,0.0,0.0,0.0,0.0,0.0,0.0,0.0,0.0,0.0,0.0,0.0,0.0,0.0,0.0,0.0,0.0,0.0,0.0,0.0,0.0,0.0,0.0,0.0,0.0,0.0,0.0,0.0,0.0,0.0,0.0,0.0,0.0,0.0,0.0,0.0,0.0,0.0,0.0,0.0,0.0,0.0,0.0,0.0,0.0,0.0,0.0,0.0,0.0,0.0,0.0,0.0,0.0,0.0,0.0,0.0,0.0,0.0,0.0,0.0,0.0,0.0,0.0,0.0,0.0,0.0,0.0,0.0,0.0,0.0,0.0,0.0,0.0,0.0,0.0,0.0,0.0,0.0,0.0,0.0,0.0,0.0,0.0,0.0,0.0,0.0,0.0,0.0,0.0,0.0,0.0,0.0,0.0,0.0,0.0,0.0,0.0,0.0,0.0,0.0,0.0,0.0,0.0,0.0,0.0,0.0,0.0,0.0,0.0,0.0,0.0,0.0,0.0,0.0,0.0,0.0,0.0,0.0,0.0,0.0,0.0,0.0,0.0,0.0,0.0,0.0,0.0,0.0,0.0,0.0,0.0,0.0,0.0,0.0,0.0,0.0,0.0,0.0,0.0,0.0,0.0,0.0,0.0,0.0,0.0,0.0,0.0,0.0,0.0,0.0,0.0,0.0,0.0,0.0,0.0,0.0,0.0,0.0,0.0,0.0,0.0,0.0,0.0,0.0,0.0,0.0,0.0,0.0,0.0,0.0,0.0,0.0,0.0,0.0,0.0,0.0,0.0,0.0,0.0,0.0,0.0,0.0,0.0,0.0,0.0,0.0,0.0,0.0,0.0,0.0,0.0,0.0,0.0,0.0,0.0,0.0,0.0,0.0,0.0,0.0,0.0,0.0,0.0,0.0,0.0,0.0,0.0,0.0,0.0,0.0,0.0,0.0,0.0,0.0,0.0,0.0,0.0,0.0,0.0,0.0,0.0,0.0,0.0,0.0,0.0,0.0,0.0,0.0,0.0,0.0,0.0,0.0,0.0,0.0,0.0,0.0,0.0,0.0,0.0,0.0,0.0,0.0,0.0,0.0,0.0,0.0,0.0,0.0,0.0,0.0,0.0,0.0,0.0,0.0,0.0,0.0,0.0,0.0,0.0,0.0,0.0,0.0,0.0,0.0,0.0,0.0,0.0,0.0,0.0,0.0,0.0,0.0,0.0,0.0,0.0,0.0,0.0,0.0,0.0,0.0,0.0,0.0,0.0,0.0,0.0,0.0,0.0,0.0,0.0,0.0,0.0,0.0,0.0,0.0,0.0,0.0,0.0,0.0,0.0,0.0,0.0,0.0,0.0,0.0,0.0,0.0,0.0,0.0,0.0,0.0,0.0,0.0,0.0,0.0,0.0,0.0,0.0,0.0,0.0,0.0,0.0,0.0,0.0,0.0,0.0,0.0,0.0,0.0,0.0,0.0,0.0,0.0,0.0,0.0,0.0,0.0,0.0,0.0,0.0,0.0,0.0,0.0,0.0,0.0,0.0,0.0,0.0,0.0,0.0,0.0,0.0,0.0,0.0,0.0,0.0,0.0,0.0,0.0,0.0,0.0,0.0,0.0,0.0,0.0,0.0,0.0,0.0,0.0,0.0,0.0,0.0,0.0,0.0,0.0,0.0,0.0,0.0,0.0,0.0,0.0,0.0,0.0,0.0,0.0,0.0,-0.1342,0.0,0.0,0.0,0.0,0.0,0.0,0.0,0.0,0.0,0.0,0.0,0.0,0.0,0.0,0.0,0.0,0.0,0.0,0.0,0.0,0.0,0.0,0.0,0.0,0.0,0.0,0.0,0.0,0.0,0.0,0.0,0.0,0.0,0.0,0.0,0.0,0.0,0.0,0.0,0.0,0.0,0.0,0.0,0.0,0.0,0.0,0.0,0.0,0.0,0.0,0.0,0.0,0.0,0.0,0.0,0.0,0.0,0.0,0.0,0.0,0.0,0.0,0.0,0.0,0.0,0.0,0.0,0.0,0.0,0.0,0.0,0.0,0.0,0.0,0.0,0.0,0.0,0.0,0.0,0.0,0.0,0.0,0.0,0.0,0.0,0.0,0.0,0.0,0.0,0.0,0.0,0.0,0.0,0.0,0.0,0.0,0.0,0.0,0.0,0.0,0.0,0.0,0.0,0.0,0.0,0.0,0.0,0.0,0.0,0.0,-0.2636,-0.2211,-0.1644,-0.1262,-0.1066,0.0,0.0,0.0,0.0,0.0,0.0,0.0,0.0,0.0,0.0,0.0,0.0,0.0,0.0,0.0,0.0,0.0,0.0,0.0,0.0,0.0,0.0,0.0,0.0,0.0,0.0,0.0,0.0,0.0,0.0,0.0,0.0,0.0,0.0,0.0,0.0,0.0,0.0,0.0,0.0,0.0,0.0,0.0,0.0,0.0,0.0,0.0,0.0,0.0,0.0,0.0,0.0,0.0,0.0,0.0,0.0,0.0,0.0,0.0,0.0,0.0,0.0,0.0,0.0,0.0,0.0,0.0,0.0,0.0,0.0,0.0,0.0,0.0,0.0,0.0,0.0,0.0,0.0,0.0,0.0,0.0,0.0,0.0,0.0,0.0,0.0,0.0,0.0,0.0,0.0,0.0,0.0,0.0,0.0,0.0,0.0,0.0,0.0,0.0,0.0,0.0,0.0,0.0,0.0,0.0,0.0,0.0,0.0,0.0,0.0,0.0,0.0,-0.1276,-0.0864,-0.071,0.0,0.0,0.0,0.0,0.0,0.0,0.0,0.0,0.0,0.0,0.0,0.0,0.0,0.0,0.0,0.0,0.0,0.0,0.0,0.0,0.0,0.0,0.0,0.0,0.0,0.0,0.0,0.0,0.0,0.0,0.0,0.0,0.0,0.0,0.0,0.0,0.0,0.0,0.0,0.0,0.0,0.0,0.0,0.0,0.0,0.0,0.0,0.0,0.0,0.0,0.0,0.0,0.0,0.0,0.0,0.0,0.0,0.0,0.0,0.0,0.0,0.0,0.0,0.0,0.0,0.0,0.0,0.0,0.0,0.0,0.0,0.0,0.0,0.0,0.0,0.0,0.0,0.0,0.0,0.0,0.0,0.0,0.0,0.0,0.0,0.0,0.0,0.0,0.0,0.0,0.0,0.0,0.0,0.0,0.0,0.0,0.0,0.0,0.0,0.0,0.0,0.0,0.0,0.0,0.0,0.0,0.0,0.0,0.0,0.0,-0.2332,-0.1573,-0.0906,0.0,-0.0374,0.0,0.0,0.0,0.0,0.0,0.0,0.0,0.0,0.0,0.0,0.0,0.0,0.0,0.0,0.0,0.0,0.0,0.0,0.0,0.0,0.0,0.0,0.0,0.0,0.0,0.0,0.0,0.0,0.0,0.0,0.0,0.0,0.0,0.0,0.0,0.0,0.0,0.0,0.0,0.0,0.0,0.0,0.0,0.0,0.0,0.0,0.0,0.0,0.0,0.0,0.0,0.0,0.0,0.0,0.0,0.0,0.0,0.0,0.0,0.0,0.0,0.0,0.0,0.0,0.0,0.0,0.0,0.0,0.0,0.0,0.0,0.0,0.0,0.0,0.0,0.0,0.0,0.0,0.0,0.0,0.0,0.0,0.0,0.0,0.0,0.0,0.0,0.0,0.0,0.0,0.0,0.0,0.0,0.0,0.0,0.0,0.0,0.0,0.0,0.0,0.0,0.0,0.0,0.0,0.0,0.0,0.0,0.0,0.0,0.0,-0.2266,-0.1405,-0.0519,-0.0031,0.0,0.0,0.0,0.0,0.0,0.0,0.0,0.0,0.0,0.0,0.0,0.0,0.0,0.0,0.0,0.0,0.0,0.0,0.0,0.0,0.0,0.0,0.0,0.0,0.0,0.0,0.0,0.0,0.0,0.0,0.0,0.0,0.0,0.0,0.0,0.0,0.0,0.0,0.0,0.0,0.0,0.0,0.0,0.0,0.0,0.0,0.0,0.0,0.0,0.0,0.0,0.0,0.0,0.0,0.0,0.0,0.0,0.0,0.0,0.0,0.0,0.0,0.0,0.0,0.0,0.0,0.0,0.0,0.0,0.0,0.0,0.0,0.0,0.0,0.0,0.0,0.0,0.0,0.0,0.0,0.0,0.0,0.0,0.0,0.0,0.0,0.0,0.0,0.0,0.0,0.0,0.0,0.0,0.0,0.0,0.0,0.0,0.0,0.0,0.0,0.0,0.0,0.0,0.0,0.0,0.0,0.0,0.0,0.0,0.0,-0.3188,-0.2148,-0.0947,-0.0031,0.0385,0.0218,0.0,0.0,0.0,0.0,0.0,0.0,0.0,0.0,0.0,0.0,0.0,0.0,0.0,0.0,0.0,0.0,0.0,0.0,0.0,0.0,0.0,0.0,0.0,0.0,0.0,0.0,0.0,0.0,0.0,0.0,0.0,0.0,0.0,0.0,0.0,0.0,0.0,0.0,0.0,0.0,0.0,0.0,0.0,0.0,0.0,0.0,0.0,0.0,0.0,0.0,0.0,0.0,0.0,0.0,0.0,0.0,0.0,0.0,0.0,0.0,0.0,0.0,0.0,0.0,0.0,0.0,0.0,0.0,0.0,0.0,0.0,0.0,0.0,0.0,0.0,0.0,0.0,0.0,0.0,0.0,0.0,0.0,0.0,0.0,0.0,0.0,0.0,0.0,0.0,0.0,0.0,0.0,0.0,0.0,0.0,0.0,0.0,0.0,0.0,0.0,0.0,0.0,0.0,0.0,0.0,0.0,0.0,0.0,-0.4135,-0.3241,-0.1873,-0.0062,0.0524,0.0697,0.0,0.0,0.0,0.0,0.0,0.0,0.0,0.0,0.0,0.0,0.0,0.0,0.0,0.0,0.0,0.0,0.0,0.0,0.0,0.0,0.0,0.0,0.0,0.0,0.0,0.0,0.0,0.0,0.0,0.0,0.0,0.0,0.0,0.0,0.0,0.0,0.0,0.0,0.0,0.0,0.0,0.0,0.0,0.0,0.0,0.0,0.0,0.0,0.0,0.0,0.0,0.0,0.0,0.0,0.0,0.0,0.0,0.0,0.0,0.0,0.0,0.0,0.0,0.0,0.0,0.0,0.0,0.0,0.0,0.0,0.0,0.0,0.0,0.0,0.0,0.0,0.0,0.0,0.0,0.0,0.0,0.0,0.0,0.0,0.0,0.0,0.0,0.0,0.0,0.0,0.0,0.0,0.0,0.0,0.0,0.0,0.0,0.0,0.0,0.0,0.0,0.0,0.0,0.0,0.0,0.0,0.0,0.0,0.0,-0.463,-0.2865,-0.1244,0.0092,0.0626,0.0796,0.0,0.0,0.0,0.0,0.0,0.0,0.0,0.0,0.0,0.0,0.0,0.0,0.0,0.0,0.0,0.0,0.0,0.0,0.0,0.0,0.0,0.0,0.0,0.0,0.0,0.0,0.0,0.0,0.0,0.0,0.0,0.0,0.0,0.0,0.0,0.0,0.0,0.0,0.0,0.0,0.0,0.0,0.0,0.0,0.0,0.0,0.0,0.0,0.0,0.0,0.0,0.0,0.0,0.0,0.0,0.0,0.0,0.0,0.0,0.0,0.0,0.0,0.0,0.0,0.0,0.0,0.0,0.0,0.0,0.0,0.0,0.0,0.0,0.0,0.0,0.0,0.0,0.0,0.0,0.0,0.0,0.0,0.0,0.0,0.0,0.0,0.0,0.0,0.0,0.0,0.0,0.0,0.0,0.0,0.0,0.0,0.0,0.0,0.0,0.0,0.0,0.0,0.0,0.0,0.0,0.0,0.0,0.0,0.0,-0.4475,0.0,-0.0898,0.0144,0.0715,0.0945,0.0,0.0,0.0,0.0,0.0,0.0,0.0,0.0,0.0,0.0,0.0,0.0,0.0,0.0,0.0,0.0,0.0,0.0,0.0,0.0,0.0,0.0,0.0,0.0,0.0,0.0,0.0,0.0,0.0,0.0,0.0,0.0,0.0,0.0,0.0,0.0,0.0,0.0,0.0,0.0,0.0,0.0,0.0,0.0,0.0,0.0,0.0,0.0,0.0,0.0,0.0,0.0,0.0,0.0,0.0,0.0,0.0,0.0,0.0,0.0,0.0,0.0,0.0,0.0,0.0,0.0,0.0,0.0,0.0,0.0,0.0,0.0,0.0,0.0,0.0,0.0,0.0,0.0,0.0,0.0,0.0,0.0,0.0,0.0,0.0,0.0,0.0,0.0,0.0,0.0,0.0,0.0,0.0,0.0,0.0,0.0,0.0,0.0,0.0,0.0,0.0,0.0,0.0,0.0,0.0,0.0,0.0,0.0,-0.5424,-0.3491,-0.2115,-0.0886,0.0177,0.0779,0.1067,0.0,0.0,0.0,0.0,0.0,0.0,0.0,0.0,0.0,0.0,0.0,0.0,0.0,0.0,0.0,0.0,0.0,0.0,0.0,0.0,0.0,0.0,0.0,0.0,0.0,0.0,0.0,0.0,0.0,0.0,0.0,0.0,0.0,0.0,0.0,0.0,0.0,0.0,0.0,0.0,0.0,0.0,0.0,0.0,0.0,0.0,0.0,0.0,0.0,0.0,0.0,0.0,0.0,0.0,0.0,0.0,0.0,0.0,0.0,0.0,0.0,0.0,0.0,0.0,0.0,0.0,0.0,0.0,0.0,0.0,0.0,0.0,0.0,0.0,0.0,0.0,0.0,0.0,0.0,0.0,0.0,0.0,0.0,0.0,0.0,0.0,0.0,0.0,0.0,0.0,0.0,0.0,0.0,0.0,0.0,0.0,0.0,0.0,0.0,0.0,0.0,0.0,0.0,0.0,0.0,0.0,0.0,0.0,0.0,-0.3634,-0.2132,-0.0834,0.0226,0.0812,0.1102,0.0,0.0,0.0,0.0,0.0,0.0,0.0,0.0,0.0,0.0,0.0,0.0,0.0,0.0,0.0,0.0,0.0,0.0,0.0,0.0,0.0,0.0,0.0,0.0,0.0,0.0,0.0,0.0,0.0,0.0,0.0,0.0,0.0,0.0,0.0,0.0,0.0,0.0,0.0,0.0,0.0,0.0,0.0,0.0,0.0,0.0,0.0,0.0,0.0,0.0,0.0,0.0,0.0,0.0,0.0,0.0,0.0,0.0,0.0,0.0,0.0,0.0,0.0,0.0,0.0,0.0,0.0,0.0,0.0,0.0,0.0,0.0,0.0,0.0,0.0,0.0,0.0,0.0,0.0,0.0,0.0,0.0,0.0,0.0,0.0,0.0,0.0,0.0,0.0,0.0,0.0,0.0,0.0,0.0,0.0,0.0,0.0,0.0,0.0,0.0,0.0,0.0,0.0,0.0,0.0,0.0,0.0,0.0,0.0,-0.3428,-0.1989,-0.0759,0.0337,0.0967,0.1307,0.1351,0.0,0.0,0.0,0.0,0.0,0.0,0.0,0.0,0.0,0.0,0.0,0.0,0.0,0.0,0.0,0.0,0.0,0.0,0.0,0.0,0.0,0.0,0.0,0.0,0.0,0.0,0.0,0.0,0.0,0.0,0.0,0.0,0.0,0.0,0.0,0.0,0.0,0.0,0.0,0.0,0.0,0.0,0.0,0.0,0.0,0.0,0.0,0.0,0.0,0.0,0.0,0.0,0.0,0.0,0.0,0.0,0.0,0.0,0.0,0.0,0.0,0.0,0.0,0.0,0.0,0.0,0.0,0.0,0.0,0.0,0.0,0.0,0.0,0.0,0.0,0.0,0.0,0.0,0.0,0.0,0.0,0.0,0.0,0.0,0.0,0.0,0.0,0.0,0.0,0.0,0.0,0.0,0.0,0.0,0.0,0.0,0.0,0.0,0.0,0.0,0.0,0.0,0.0,0.0,0.0,0.0,0.0,0.0,-0.2904,-0.1742,-0.0619,0.0471,0.1225,0.1629,0.0,0.0,0.0,0.0,0.0,0.0,0.0,0.0,0.0,0.0,0.0,0.0,0.0,0.0,0.0,0.0,0.0,0.0,0.0,0.0,0.0,0.0,0.0,0.0,0.0,0.0,0.0,0.0,0.0,0.0,0.0,0.0,0.0,0.0,0.0,0.0,0.0,0.0,0.0,0.0,0.0,0.0,0.0,0.0,0.0,0.0,0.0,0.0,0.0,0.0,0.0,0.0,0.0,0.0,0.0,0.0,0.0,0.0,0.0,0.0,0.0,0.0,0.0,0.0,0.0,0.0,0.0,0.0,0.0,0.0,0.0,0.0,0.0,0.0,0.0,0.0,0.0,0.0,0.0,0.0,0.0,0.0,0.0,0.0,0.0,0.0,0.0,0.0,0.0,0.0,0.0,0.0,0.0,0.0,0.0,0.0,0.0,0.0,0.0,0.0,0.0,0.0,0.0,0.0,0.0,0.0,0.0,0.0,0.0,-0.2629,-0.1402,-0.0316,0.0625,0.1347,0.1809,0.0,0.0,0.0,0.0,0.0,0.0,0.0,0.0,0.0,0.0,0.0,0.0,0.0,0.0,0.0,0.0,0.0,0.0,0.0,0.0,0.0,0.0,0.0,0.0,0.0,0.0,0.0,0.0,0.0,0.0,0.0,0.0,0.0,0.0,0.0,0.0,0.0,0.0,0.0,0.0,0.0,0.0,0.0,0.0,0.0,0.0,0.0,0.0,0.0,0.0,0.0,0.0,0.0,0.0,0.0,0.0,0.0,0.0,0.0,0.0,0.0,0.0,0.0,0.0,0.0,0.0,0.0,0.0,0.0,0.0,0.0,0.0,0.0,0.0,0.0,0.0,0.0,0.0,0.0,0.0,0.0,0.0,0.0,0.0,0.0,0.0,0.0,0.0,0.0,0.0,0.0,0.0,0.0,0.0,0.0,0.0,0.0,0.0,0.0,0.0,0.0,0.0,0.0,0.0,0.0,0.0,0.0,0.0,-0.3579,-0.2184,-0.1037,-0.0022,0.0935,0.1541,0.2013,0.0,0.0,0.0,0.0,0.0,0.0,0.0,0.0,0.0,0.0,0.0,0.0,0.0,0.0,0.0,0.0,0.0,0.0,0.0,0.0,0.0,0.0,0.0,0.0,0.0,0.0,0.0,0.0,0.0,0.0,0.0,0.0,0.0,0.0,0.0,0.0,0.0,0.0,0.0,0.0,0.0,0.0,0.0,0.0,0.0,0.0,0.0,0.0,0.0,0.0,0.0,0.0,0.0,0.0,0.0,0.0,0.0,0.0,0.0,0.0,0.0,0.0,0.0,0.0,0.0,0.0,0.0,0.0,0.0,0.0,0.0,0.0,0.0,0.0,0.0,0.0,0.0,0.0,0.0,0.0,0.0,0.0,0.0,0.0,0.0,0.0,0.0,0.0,0.0,0.0,0.0,0.0,0.0,0.0,0.0,0.0,0.0,0.0,0.0,0.0,0.0,0.0,0.0,0.0,0.0,0.0,0.0,0.0,-0.3421,-0.1685,-0.075,0.0244,0.1287,0.1783,0.2226,0.0,0.0,0.0,0.0,0.0,0.0,0.0,0.0,0.0,0.0,0.0,0.0,0.0,0.0,0.0,0.0,0.0,0.0,0.0,0.0,0.0,0.0,0.0,0.0,0.0,0.0,0.0,0.0,0.0,0.0,0.0,0.0,0.0,0.0,0.0,0.0,0.0,0.0,0.0,0.0,0.0,0.0,0.0,0.0,0.0,0.0,0.0,0.0,0.0,0.0,0.0,0.0,0.0,0.0,0.0,0.0,0.0,0.0,0.0,0.0,0.0,0.0,0.0,0.0,0.0,0.0,0.0,0.0,0.0,0.0,0.0,0.0,0.0,0.0,0.0,0.0,0.0,0.0,0.0,0.0,0.0,0.0,0.0,0.0,0.0,0.0,0.0,0.0,0.0,0.0,0.0,0.0,0.0,0.0,0.0,0.0,0.0,0.0,0.0,0.0,0.0,0.0,0.0,0.0,0.0,0.0,0.0,0.0,-0.2806,-0.1362,-0.0486,0.0444,0.151,0.1994,0.2371,0.0,0.0,0.0,0.0,0.0,0.0,0.0,0.0,0.0,0.0,0.0,0.0,0.0,0.0,0.0,0.0,0.0,0.0,0.0,0.0,0.0,0.0,0.0,0.0,0.0,0.0,0.0,0.0,0.0,0.0,0.0,0.0,0.0,0.0,0.0,0.0,0.0,0.0,0.0,0.0,0.0,0.0,0.0,0.0,0.0,0.0,0.0,0.0,-0.3386,0.0,0.0,0.0,0.0,0.0,0.0,0.0,0.0,0.0,0.0,0.0,0.0,0.0,0.0,0.0,0.0,0.0,0.0,0.0,0.0,0.0,0.0,0.0,0.0,0.0,0.0,0.0,0.0,0.0,0.0,0.0,0.0,0.0,0.0,0.0,0.0,0.0,0.0,0.0,0.0,0.0,0.0,0.0,0.0,0.0,0.0,0.0,0.0,0.0,0.0,0.0,0.0,0.0,0.0,0.0,0.0,0.0,0.0,0.0,-0.2496,-0.095,-0.0089,0.0778,0.1648,0.2107,0.2509,0.0,0.0,0.0,0.0,0.0,0.0,0.0,0.0,0.0,0.0,0.0,0.0,0.0,0.0,0.0,0.0,0.0,0.0,0.0,0.0,0.0,0.0,0.0,0.0,0.0,0.0,0.0,0.0,0.0,0.0,0.0,0.0,0.0,0.0,0.0,0.0,0.0,0.0,0.0,0.0,0.0,0.0,0.0,0.0,0.0,0.0,0.0,0.0,0.0,0.0,0.0,0.0,0.0,0.0,0.0,0.0,0.0,0.0,0.0,0.0,0.0,0.0,0.0,0.0,0.0,0.0,0.0,0.0,0.0,0.0,0.0,0.0,0.0,0.0,0.0,0.0,0.0,0.0,0.0,0.0,0.0,0.0,0.0,0.0,0.0,0.0,0.0,0.0,0.0,0.0,0.0,0.0,0.0,0.0,0.0,0.0,0.0,0.0,0.0,0.0,0.0,0.0,0.0,0.0,0.0,0.0,0.0,-0.3535,-0.2294,-0.0601,0.0311,0.109,0.1803,0.2202,0.2593,0.2985,0.0,0.0,0.0,0.0,0.0,0.0,0.0,0.0,0.0,0.0,0.0,0.0,0.0,0.0,0.0,0.0,0.0,0.0,0.0,0.0,0.0,0.0,0.0,0.0,0.0,0.0,0.0,0.0,0.0,0.0,0.0,0.0,0.0,0.0,0.0,0.0,0.0,0.0,-0.2354,-0.2758,0.0,0.0,0.0,0.0,0.0,0.0,0.0,0.0,-0.3379,0.0,0.0,0.0,0.0,0.0,0.0,0.0,0.0,0.0,0.0,0.0,0.0,0.0,0.0,0.0,0.0,0.0,0.0,0.0,0.0,0.0,0.0,0.0,0.0,0.0,0.0,0.0,0.0,0.0,0.0,0.0,0.0,0.0,0.0,0.0,0.0,0.0,0.0,0.0,0.0,0.0,0.0,0.0,0.0,0.0,0.0,0.0,0.0,0.0,0.0,0.0,0.0,0.0,0.0,0.0,0.0,-0.4313,-0.3293,-0.1966,-0.0313,0.0535,0.1269,0.1942,0.225,0.2587,0.2973,0.0,0.0,0.0,0.0,0.0,0.0,0.0,0.0,0.0,0.0,0.0,0.0,0.0,0.0,0.0,0.0,0.0,0.0,0.0,0.0,0.0,0.0,0.0,0.0,0.0,0.0,0.0,0.0,0.0,0.0,0.0,0.0,0.0,0.0,0.0,0.0,0.0,0.0,0.0,-0.2966,-0.3072,0.0,0.0,0.0,0.0,0.0,0.0,0.0,0.0,-0.3254,0.0,0.0,0.0,0.0,0.0,0.0,0.0,0.0,0.0,0.0,0.0,0.0,0.0,0.0,0.0,0.0,0.0,0.0,0.0,0.0,0.0,0.0,0.0,0.0,0.0,0.0,0.0,0.0,0.0,0.0,0.0,0.0,0.0,0.0,0.0,0.0,0.0,0.0,0.0,0.0,0.0,0.0,0.0,0.0,0.0,0.0,0.0,0.0,0.0,0.0,0.0,0.0,0.0,0.0,0.0,-0.37,-0.2608,-0.1334,0.0134,0.0957,0.1626,0.2136,0.2524,0.2848,0.0,0.0,0.0,0.0,0.0,0.0,0.0,0.0,0.0,0.0,0.0,0.0,0.0,0.0,0.0,0.0,0.0,0.0,0.0,0.0,0.0,0.0,0.0,0.0,0.0,0.0,0.0,0.0,0.0,0.0,0.0,0.0,0.0,0.0,0.0,0.0,0.0,0.0,0.0,0.0,-0.3072,-0.3192,-0.3298,0.0,0.0,0.0,0.0,0.0,0.0,-0.34,-0.3266,0.0,0.0,0.0,0.0,0.0,0.0,0.0,0.0,0.0,0.0,0.0,0.0,0.0,0.0,0.0,0.0,0.0,0.0,0.0,0.0,0.0,0.0,0.0,0.0,0.0,0.0,0.0,0.0,0.0,0.0,0.0,0.0,0.0,0.0,0.0,0.0,0.0,0.0,0.0,0.0,0.0,0.0,0.0,0.0,0.0,0.0,0.0,0.0,0.0,0.0,0.0,0.0,0.0,0.0,0.0,-0.3056,-0.1894,-0.0669,0.0581,0.1313,0.1883,0.2292,0.273,0.3063,0.0,0.0,0.0,0.0,0.0,0.0,0.0,0.0,0.0,0.0,0.0,0.0,0.0,0.0,0.0,0.0,0.0,0.0,0.0,0.0,0.0,0.0,0.0,0.0,0.0,0.0,0.0,0.0,0.0,0.0,0.0,0.0,0.0,0.0,0.0,0.0,0.0,0.0,0.0,0.0,0.0,-0.3233,-0.3269,-0.3231,0.0,0.0,0.0,0.0,-0.3433,-0.3361,0.0,0.0,0.0,0.0,0.0,0.0,0.0,0.0,0.0,0.0,0.0,0.0,0.0,0.0,0.0,0.0,0.0,0.0,0.0,0.0,0.0,0.0,0.0,0.0,0.0,0.0,0.0,0.0,0.0,0.0,0.0,0.0,0.0,0.0,0.0,0.0,0.0,0.0,0.0,0.0,0.0,0.0,0.0,0.0,0.0,0.0,0.0,0.0,0.0,0.0,0.0,0.0,0.0,0.0,0.0,0.0,-0.2664,-0.1474,-0.0262,0.0983,0.1421,0.1834,0.2289,0.2648,0.2963,0.0,0.0,0.0,0.0,0.0,0.0,0.0,0.0,0.0,0.0,0.0,0.0,0.0,0.0,0.0,0.0,0.0,0.0,0.0,0.0,0.0,0.0,0.0,0.0,0.0,0.0,0.0,0.0,0.0,0.0,0.0,0.0,0.0,0.0,0.0,0.0,0.0,0.0,0.0,0.0,0.0,-0.3007,-0.3193,-0.3009,-0.2969,0.0,0.0,-0.3345,-0.318,-0.3293,0.0,0.0,0.0,0.0,0.0,0.0,0.0,0.0,0.0,0.0,0.0,0.0,0.0,0.0,0.0,0.0,0.0,0.0,0.0,0.0,0.0,0.0,0.0,0.0,0.0,0.0,0.0,0.0,0.0,0.0,0.0,0.0,0.0,0.0,0.0,0.0,0.0,0.0,0.0,0.0,0.0,0.0,0.0,0.0,0.0,0.0,0.0,0.0,0.0,0.0,0.0,0.0,0.0,0.0,0.0,-0.276,-0.1864,-0.0714,0.0388,0.14,0.1813,0.215,0.2476,0.2894,0.3267,0.0,0.0,0.0,0.0,0.0,0.0,0.0,0.0,0.0,0.0,0.0,0.0,0.0,0.0,0.0,0.0,0.0,0.0,0.0,0.0,0.0,0.0,0.0,0.0,0.0,0.0,0.0,0.0,0.0,0.0,0.0,0.0,0.0,0.0,0.0,0.0,0.0,0.0,0.0,0.0,0.0,0.0,-0.3123,-0.2932,0.0,0.0,0.0,-0.3136,-0.3113,0.0,0.0,0.0,0.0,0.0,0.0,0.0,0.0,0.0,0.0,0.0,0.0,0.0,0.0,0.0,0.0,0.0,0.0,0.0,0.0,0.0,0.0,0.0,0.0,0.0,0.0,0.0,0.0,0.0,0.0,0.0,0.0,0.0,0.0,0.0,0.0,0.0,0.0,0.0,0.0,0.0,0.0,0.0,0.0,0.0,0.0,0.0,0.0,0.0,0.0,0.0,0.0,0.0,0.0,0.0,0.0,0.0,-0.115,-0.0064,0.0909,0.1703,0.2043,0.2316,0.2525,0.2955,0.0,0.0,0.0,0.0,0.0,0.0,0.0,0.0,0.0,0.0,0.0,0.0,0.0,0.0,0.0,0.0,0.0,0.0,0.0,0.0,0.0,0.0,0.0,0.0,0.0,0.0,0.0,-0.0111,0.0,0.0,0.0,0.0,0.0,0.0,0.0,0.0,0.0,0.0,0.0,0.0,0.0,0.0,-0.2795,-0.2919,-0.2706,-0.2656,0.0,0.0,-0.2875,-0.2868,-0.2843,-0.278,0.0,0.0,0.0,0.0,0.0,0.0,0.0,0.0,0.0,0.0,0.0,0.0,0.0,0.0,0.0,0.0,0.0,0.0,0.0,0.0,0.0,0.0,0.0,0.0,0.0,0.0,0.0,0.0,0.0,0.0,0.0,0.0,0.0,0.0,0.0,0.0,0.0,0.0,0.0,0.0,0.0,0.0,0.0,0.0,0.0,0.0,0.0,0.0,0.0,0.0,0.0,0.0,0.0,0.0,-0.1557,-0.0741,0.0271,0.1096,0.1774,0.1878,0.2042,0.2312,0.2526,0.2919,0.0,0.0,0.0,0.0,0.0,0.0,0.0,0.0,0.0,0.0,0.0,0.0,0.0,0.0,0.0,0.0,0.0,0.0,0.0,0.0,0.0,0.0,0.0,0.0,0.0,0.0,0.0,0.0,0.0,0.0,0.0,0.0,0.0,0.0,0.0,0.0,0.0,0.0,0.0,0.0,0.0,-0.2364,-0.2444,-0.2121,-0.1989,0.0,-0.2459,-0.247,-0.2311,-0.2627,-0.289,-0.2896,0.0,0.0,0.0,0.0,0.0,0.0,0.0,0.0,0.0,0.0,0.0,0.0,0.0,0.0,0.0,0.0,0.0,0.0,0.0,0.0,0.0,0.0,0.0,0.0,0.0,0.0,0.0,0.0,0.0,0.0,0.0,0.0,0.0,0.0,0.0,0.0,0.0,0.0,0.0,0.0,0.0,0.0,0.0,0.0,0.0,0.0,0.0,0.0,0.0,0.0,0.0,0.0,0.0,-0.0995,-0.0135,0.076,0.1492,0.202,0.2155,0.2263,0.2426,0.2657,0.2924,0.0,0.0,0.0,0.0,0.0,0.0,0.0,0.0,0.0,0.0,0.0,0.0,0.0,0.0,0.0,0.0,0.0,0.0,0.0,0.0,0.0,0.0,0.0,0.0,0.0,0.0,0.0,0.0,-0.0424,-0.0686,-0.1504,0.0,0.0,0.0,0.0,0.0,0.0,0.0,0.0,0.0,0.0,-0.2055,-0.2101,-0.1987,0.0,0.0,-0.2555,-0.2636,-0.2682,-0.2416,-0.2374,-0.2824,-0.3741,0.0,0.0,0.0,0.0,0.0,0.0,0.0,0.0,0.0,0.0,0.0,0.0,0.0,0.0,0.0,0.0,0.0,0.0,0.0,0.0,0.0,0.0,0.0,0.0,0.0,0.0,0.0,0.0,0.0,0.0,0.0,0.0,0.0,0.0,0.0,0.0,0.0,0.0,0.0,0.0,0.0,0.0,0.0,0.0,0.0,0.0,0.0,0.0,0.0,0.0,0.0,0.0,-0.0272,0.0441,0.1265,0.1864,0.2167,0.2301,0.239,0.2455,0.2646,0.2838,0.0,0.0,0.0,0.0,0.0,0.0,0.0,0.0,0.0,0.0,0.0,0.0,0.0,0.0,0.0,0.0,0.0,0.0,0.0,0.0,0.0,0.0,0.0,0.0,0.0,0.0,0.0,0.0,-0.0397,-0.0612,-0.1505,0.0,0.0,0.0,0.0,0.0,0.0,0.0,0.0,0.0,0.0,-0.1723,-0.171,-0.1755,-0.1912,-0.2283,-0.2446,-0.259,-0.2786,-0.2381,-0.2276,-0.299,0.0,0.0,0.0,0.0,0.0,0.0,0.0,0.0,0.0,0.0,0.0,0.0,0.0,0.0,0.0,0.0,0.0,0.0,0.0,0.0,0.0,0.0,0.0,0.0,0.0,0.0,0.0,0.2594,0.0,0.0,0.2056,0.0,0.0,0.0,0.0,0.0,0.0,0.0,0.0,0.0,0.0,0.0,0.0,0.0,0.0,0.0,0.0,0.0,0.0,0.0,0.0,0.0,0.0,0.0639,0.098,0.1785,0.2149,0.21,0.2237,0.2327,0.2308,0.2378,0.2599,0.2974,0.0,0.0,0.0,0.0,0.0,0.0,0.0,0.0,0.0,0.0,0.0,0.0,0.0,0.0,0.0,0.0,0.0,0.0,0.0,0.0,0.0,0.0,0.0,0.0,0.0,0.0,-0.0695,-0.039,-0.0385,0.0,0.0,0.0,0.0,0.0,0.0,0.0,0.0,0.0,0.0,-0.166,-0.1308,-0.13,-0.1308,-0.144,-0.1702,-0.1979,-0.2186,-0.2414,-0.2518,-0.2814,0.0,0.0,0.0,0.0,0.0,0.0,0.0,0.0,0.0,0.0,0.0,0.0,0.0,0.0,0.0,0.0,0.0,0.0,0.0,0.0,0.0,0.0,0.0,0.0,0.0,0.0,0.0,0.373,0.3764,0.0,0.0,0.0,0.0,0.0,0.0,0.0,0.0,0.0,0.0,0.0,0.5397,0.583,0.0,0.0,0.0,0.0,0.0,0.0,0.0,0.0,0.0,0.0,0.0,0.0,0.1425,0.1672,0.2196,0.2397,0.2257,0.2352,0.2412,0.2382,0.2431,0.2515,0.2606,0.0,0.0,0.0,0.0,0.0,0.0,0.0,0.0,0.0,0.0,0.0,0.0,0.0,0.0,0.0,0.0,0.0,0.0,0.0,0.0,0.0,0.0,0.0,0.0,0.0,-0.161,0.0,0.0,0.0,0.0,0.0,0.0,0.0,0.0,0.0,0.0,0.0,-0.1767,-0.1477,-0.1238,-0.107,-0.0969,-0.1275,-0.1583,0.0,0.0,0.0,0.0,0.0,0.0,0.0,0.0,0.0,0.0,0.0,0.0,0.0,0.0,-0.6833,-0.7529,-0.8295,-0.8408,-0.7113,0.0,0.0,0.0,0.0,0.0,0.0,0.0,0.0,0.0,0.0,0.0,0.0,0.0,0.0,0.4442,0.0,0.4224,0.0,0.0,0.0,0.0,0.0,0.0,0.0,0.0,0.4523,0.4933,0.5418,0.5774,0.5954,0.0,0.6034,0.576,0.0,0.0,0.0,0.0,0.0,0.0,0.0,0.0,0.2383,0.253,0.2765,0.2792,0.2588,0.2545,0.25,0.2442,0.2431,0.2412,0.2373,0.2402,0.2623,0.0,0.0,0.0,0.0,0.0,0.0,0.0,0.0,0.0,0.0,0.0,0.0,0.0,0.0,0.0,0.0,0.0,0.0,0.0,0.0,0.0,0.0,0.0,-0.1086,0.0,0.0,0.0,0.0,0.0,0.0,0.0,0.0,0.0,-0.1284,-0.1277,-0.1143,-0.0882,-0.0802,-0.0732,-0.0708,0.0,0.0,0.0,0.0,0.0,0.0,0.0,-0.3499,-0.3744,-0.3591,-0.3643,-0.431,-0.5222,-0.5755,-0.5418,0.0,0.0,-0.6726,-0.7561,-0.7797,-0.6951,-0.6746,-0.6491,-0.5819,-0.6521,-0.7477,0.0,0.0,0.0,0.0,0.0,0.0,0.0,0.0,0.4703,0.4762,0.0,0.4673,0.0,0.0,0.0,0.0,0.0,0.435,0.0,0.0,0.4679,0.5011,0.5407,0.5804,0.5995,0.6009,0.6129,0.6122,0.5952,0.5145,0.0,0.0,0.0,0.0,0.0,0.0,0.346,0.3498,0.3466,0.333,0.3094,0.2779,0.2578,0.25,0.2362,0.2301,0.2282,0.2301,0.2371,0.2509,0.2724,0.0,0.0,0.0,0.0,0.0,0.0,0.0,0.0,0.0,0.0,0.0,0.0,0.0,0.0,0.0,0.0,0.0,0.0,0.0,0.0,-0.0409,0.0,0.0,0.0,0.0,0.0,0.0,0.0,0.0,0.0,0.0,-0.0501,-0.0551,-0.0523,-0.0388,0.0,0.0,0.0,0.0,-0.1256,-0.1713,-0.2062,-0.238,-0.273,-0.2987,-0.329,-0.3695,0.0,0.0,-0.4121,-0.4353,-0.4596,-0.4958,-0.4334,-0.4246,-0.5886,-0.6368,-0.6766,-0.7436,-0.6236,-0.5505,-0.6398,-0.6436,-0.6149,0.5233,0.0,0.0,0.0,0.0,0.5168,0.5231,0.5258,0.5241,0.5223,0.5239,0.5054,0.0,0.0,0.0,0.0,0.0,0.0,0.4978,0.5293,0.5244,0.5339,0.5549,0.58,0.5954,0.6009,0.6189,0.6248,0.62,0.5874,0.5365,0.4718,0.0,0.0,0.0,0.0,0.4097,0.3947,0.3997,0.3759,0.3183,0.3082,0.2867,0.2509,0.2372,0.2282,0.2282,0.2282,0.2497,0.2916,0.3074,0.0,0.0,0.0,0.0,0.0,0.0,0.0,0.0,0.0,0.0,0.0,0.0,0.0,0.0,0.0,0.0,0.0,0.0,0.0,0.0059,0.0904,0.1474,0.0,0.0,0.0,0.0,0.0,0.0,0.0,0.0,0.0,0.0565,0.0299,0.0126,0.0,0.0,-0.0098,-0.0321,-0.0689,-0.1065,-0.1402,-0.1776,0.0,-0.2259,-0.2574,-0.2838,-0.3,-0.3006,-0.303,-0.3079,-0.3202,-0.3392,-0.3766,-0.387,-0.409,-0.4509,-0.5537,-0.6044,-0.5586,-0.519,-0.51,-0.5469,-0.5518,-0.5404,0.6065,0.6137,0.5745,0.5583,0.56,0.5701,0.5776,0.5833,0.5838,0.578,0.5653,0.554,0.5343,0.5098,0.5233,0.0,0.0,0.0,0.5532,0.5694,0.5656,0.5689,0.5771,0.5966,0.6075,0.6135,0.6278,0.6343,0.6379,0.6266,0.5991,0.5526,0.0,0.0,0.4853,0.4805,0.4686,0.4548,0.4433,0.4091,0.3483,0.3109,0.2788,0.2509,0.2402,0.2352,0.2342,0.2342,0.25,0.285,0.2927,0.3093,0.0,0.0,0.0,0.0,0.0,0.0,0.0,0.0,0.0,0.0,0.0,-0.0085,-0.0603,0.0,0.0,0.0,-0.0261,0.0318,0.1383,0.1772,0.0,0.0,0.0,0.0,0.0,0.0,0.0,0.1234,0.1341,0.1396,0.1247,0.0976,0.0781,0.0734,0.0462,0.0221,0.0021,0.0,-0.0805,-0.1064,-0.1397,-0.1706,-0.1935,-0.2126,-0.2291,-0.2408,-0.2679,-0.2817,-0.2676,-0.2702,-0.2917,-0.3348,-0.3817,-0.4109,-0.3967,-0.4796,-0.5352,-0.476,-0.484,-0.5051,-0.5089,-0.5091,-0.5096,0.6803,0.692,0.6402,0.6148,0.604,0.6123,0.6181,0.6249,0.6436,0.6328,0.5992,0.6146,0.5962,0.5597,0.5982,0.0,0.6148,0.6297,0.6176,0.5821,0.597,0.6027,0.6034,0.6212,0.6313,0.6313,0.6383,0.6448,0.6507,0.6448,0.6383,0.6295,0.5822,0.5537,0.5446,0.5319,0.5243,0.5224,0.4802,0.4342,0.3906,0.3006,0.251,0.2529,0.2489,0.246,0.2413,0.2467,0.2497,0.25,0.25,0.2607,0.2798,0.0,0.0,0.0,0.0,0.0,0.0,0.0,0.0,0.0,0.0,0.0,0.0,0.0,0.0,0.0,0.0694,0.0,0.2317,0.2302,0.0,0.0,0.0,0.2025,0.1935,0.1919,0.1894,0.1811,0.0,0.0,0.1652,0.1526,0.1402,0.1287,0.09,0.0582,0.0427,-0.0036,-0.0452,-0.0709,-0.098,-0.1269,-0.1622,-0.1701,-0.1782,-0.2011,-0.2477,-0.2778,-0.2735,-0.2721,-0.2953,-0.3538,-0.4067,-0.4356,-0.4089,-0.433,-0.4512,-0.4797,-0.4956,-0.5094,-0.5095,-0.5073,-0.5075,0.753,0.7663,0.7675,0.7164,0.6401,0.644,0.6489,0.6523,0.6725,0.6745,0.6676,0.6851,0.698,0.7002,0.7191,0.7337,0.7358,0.6999,0.6808,0.6747,0.6383,0.6212,0.6242,0.6325,0.6378,0.6383,0.6441,0.647,0.6507,0.65,0.6441,0.6383,0.6248,0.6063,0.5871,0.5662,0.5568,0.5501,0.5293,0.4817,0.406,0.3131,0.2656,0.2656,0.2924,0.2912,0.2588,0.2903,0.2932,0.2607,0.2617,0.2713,0.2876,0.2974,0.0,0.0,0.0,0.0,0.0,0.0,0.0,0.0,0.0,0.1919,0.1455,0.0,0.1047,0.0,0.131,0.1825,0.2291,0.2467,0.0,0.0,0.2576,0.2447,0.2241,0.2215,0.2125,0.1905,0.197,0.2003,0.1989,0.1942,0.1911,0.1797,0.1282,0.0835,0.0576,0.0274,-0.0034,-0.0298,-0.051,-0.0776,-0.1066,-0.1312,-0.1547,-0.1813,-0.2176,-0.2536,-0.2806,-0.2861,-0.3076,-0.3771,-0.434,-0.4598,-0.4497,-0.4599,-0.4775,-0.4969,-0.5016,-0.5029,-0.5015,-0.5034,-0.5032,0.8062,0.8195,0.8319,0.8041,0.7493,0.7416,0.7411,0.74,0.7561,0.7521,0.7332,0.7413,0.7509,0.7666,0.7779,0.7858,0.7866,0.7612,0.7368,0.7122,0.6906,0.6639,0.6401,0.6453,0.65,0.6488,0.6557,0.6586,0.6599,0.6586,0.6557,0.654,0.6522,0.6418,0.6218,0.5977,0.5811,0.5689,0.5375,0.4987,0.451,0.3795,0.3425,0.346,0.3633,0.3631,0.3415,0.3189,0.295,0.2713,0.2816,0.2939,0.307,0.3166,0.3276,0.0,0.0,0.0,0.0,0.0,0.0,0.0,0.0,0.0,0.0,0.0,0.178,0.1721,0.205,0.237,0.2674,0.2759,0.2806,0.2835,0.2702,0.2544,0.2399,0.2375,0.233,0.2189,0.2207,0.2212,0.2192,0.2169,0.2124,0.2016,0.1651,0.1288,0.0955,0.065,0.0383,0.0114,-0.008,-0.0307,-0.062,-0.0907,-0.1182,-0.1458,-0.1874,-0.2318,-0.2774,-0.3018,-0.3346,-0.4028,-0.4518,-0.4775,-0.4672,-0.4768,-0.4925,-0.495,-0.4862,-0.4807,-0.4913,-0.4935,-0.494,0.8524,0.8583,0.8656,0.8756,0.8844,0.8634,0.8523,0.8477,0.8544,0.8399,0.809,0.798,0.8026,0.815,0.8207,0.8276,0.8264,0.8257,0.7983,0.7461,0.7436,0.715,0.6644,0.6624,0.6616,0.6633,0.6685,0.6706,0.6706,0.6723,0.6723,0.6723,0.6706,0.6672,0.6527,0.629,0.6068,0.5837,0.5337,0.5084,0.5056,0.4609,0.4386,0.4428,0.4453,0.4453,0.4405,0.3595,0.3123,0.3057,0.3164,0.328,0.3404,0.3408,0.3417,0.0,0.3605,0.0,0.0,0.0,0.0,0.0,0.0,0.0,0.0,0.2498,0.2331,0.251,0.2691,0.2862,0.3097,0.2959,0.291,0.2958,0.2708,0.2539,0.2549,0.2559,0.2549,0.2539,0.2481,0.2432,0.238,0.235,0.2324,0.216,0.2152,0.1956,0.1512,0.1126,0.0779,0.0533,0.0333,0.0057,-0.0203,-0.0379,-0.054,-0.0861,-0.1223,-0.1885,-0.245,-0.3093,-0.3671,-0.4154,-0.4448,-0.4645,-0.4619,-0.4801,-0.4909,-0.4812,-0.4537,-0.4428,-0.4691,-0.4779,-0.4812,0.918,0.901,0.9081,0.9139,0.9289,0.9286,0.9085,0.8734,0.8905,0.9039,0.9121,0.9221,0.9327,0.9441,0.9567,0.9641,0.9678,0.9258,0.9016,0.8886,0.7981,0.7503,0.7375,0.6905,0.6672,0.6685,0.674,0.6774,0.6791,0.6841,0.6858,0.6874,0.6858,0.6807,0.6659,0.0,0.0,0.0,0.5649,0.5407,0.5399,0.4887,0.4631,0.4656,0.5057,0.0,0.4666,0.4869,0.4814,0.4437,0.4051,0.0,0.0,0.0,0.0,0.0,0.0,0.0,0.0,0.0,0.0,0.0,0.3425,0.3229,0.3068,0.2646,0.2461,0.2707,0.2629,0.2599,0.2708,0.2735,0.2766,0.2826,0.2793,0.2759,0.2804,0.2834,0.2823,0.2834,0.2768,0.2722,0.2753,0.3012,0.3063,0.2736,0.2885,0.2842,0.2299,0.1719,0.1234,0.1052,0.066,0.0321,0.0317,0.0521,0.0574,0.0226,0.0155,-0.0356,-0.1439,-0.2947,-0.3793,-0.3802,-0.3922,-0.4089,-0.4205,-0.4548,-0.4704,-0.438,-0.4057,-0.3948,-0.4341,-0.4494,-0.4593,0.9799,0.0,0.9554,0.9514,0.0,0.9724,0.9607,0.9384,0.9366,0.9446,0.9659,0.9751,0.9867,1.0021,1.0135,1.0236,1.0223,0.9987,0.9749,0.9459,0.8594,0.8031,0.7748,0.7118,0.6858,0.6858,0.6937,0.6941,0.6944,0.7026,0.7055,0.7101,0.7072,0.7006,0.6894,0.6858,0.6676,0.6366,0.6128,0.5994,0.5966,0.5739,0.5581,0.5596,0.5852,0.0,0.0,0.0,0.0,0.0,0.0,0.0,0.0,0.0,0.0,0.3703,0.3764,0.3787,0.3764,0.384,0.3847,0.3721,0.3581,0.3373,0.3062,0.2803,0.2696,0.2843,0.2776,0.2748,0.2804,0.2887,0.296,0.3001,0.3037,0.3064,0.3089,0.3094,0.3106,0.3094,0.308,0.3144,0.345,0.3686,0.3876,0.3896,0.4077,0.4114,0.3652,0.2607,0.1785,0.1572,0.1095,0.0853,0.1166,0.1688,0.1827,0.1384,0.1074,0.0552,-0.039,-0.2079,-0.3275,-0.3193,-0.3163,-0.321,-0.3582,-0.3884,-0.401,-0.384,-0.3565,-0.3423,-0.3671,-0.3989,-0.4302,1.0456,1.0476,0.9985,0.9854,0.9982,1.0059,1.0085,1.0097,0.0,0.0,0.0,1.0033,1.0147,1.0299,1.0424,1.0474,1.0498,1.0548,1.0328,0.9891,0.9277,0.8705,0.8085,0.7519,0.7182,0.7075,0.7118,0.715,0.7155,0.7219,0.728,0.734,0.728,0.7233,0.7155,0.7091,0.6944,0.6651,0.6604,0.6582,0.6599,0.6582,0.6616,0.6613,0.6613,0.6575,0.652,0.6181,0.5681,0.5086,0.468,0.4247,0.3831,0.3765,0.3772,0.384,0.3914,0.3935,0.3956,0.395,0.3914,0.3818,0.3765,0.3549,0.3121,0.3111,0.3162,0.3141,0.3327,0.3422,0.3412,0.355,0.3615,0.3624,0.3665,0.3723,0.3734,0.3629,0.3616,0.3559,0.3633,0.3796,0.4242,0.4577,0.4775,0.5169,0.5318,0.5362,0.5025,0.3692,0.2597,0.2376,0.1893,0.1591,0.2098,0.2798,0.3047,0.2461,0.2044,0.1477,0.0549,-0.0598,-0.1629,-0.2364,-0.2213,-0.2311,-0.2801,-0.3032,-0.3093,-0.3168,-0.3012,-0.2904,-0.3024,-0.341,-0.3838,1.1103,1.089,1.0289,1.0148,1.0324,1.0349,1.0399,1.0485,1.0096,1.0084,1.0336,1.0335,1.0472,1.0632,1.0718,1.0777,1.0825,1.0825,1.0794,1.0698,1.0123,0.9502,0.8927,0.8364,0.7843,0.7373,0.7359,0.736,0.736,0.7422,0.7453,0.7467,0.7469,0.7422,0.736,0.7345,0.7329,0.7253,0.7058,0.6911,0.6927,0.6927,0.696,0.7026,0.6996,0.6785,0.6289,0.6253,0.5956,0.5386,0.4843,0.4547,0.4528,0.4156,0.3972,0.4055,0.4062,0.4089,0.4165,0.4096,0.402,0.3935,0.4338,0.4264,0.3459,0.3799,0.4103,0.4126,0.4649,0.5078,0.5053,0.5095,0.5143,0.5204,0.5252,0.5295,0.5274,0.492,0.4632,0.4528,0.4772,0.4856,0.4992,0.5738,0.6211,0.6074,0.6401,0.6511,0.5955,0.4696,0.3856,0.3601,0.2907,0.2603,0.2978,0.3753,0.3929,0.3484,0.3427,0.2968,0.183,0.1802,0.1132,-0.0845,-0.105,-0.1253,-0.1854,-0.2153,-0.229,-0.2396,-0.2356,-0.2414,-0.2614,-0.287,-0.3193,1.1735,1.154,1.078,1.051,1.0632,1.0729,1.0849,1.0944,1.063,1.0538,1.0645,1.088,1.0976,1.092,1.1062,1.1132,1.1169,1.1201,1.1224,1.1182,1.0599,1.0197,0.9859,0.9003,0.8431,0.8159,0.7825,0.7665,0.7695,0.7695,0.7724,0.7753,0.7739,0.7709,0.7679,0.7679,0.7679,0.7665,0.7376,0.7219,0.7203,0.7219,0.7251,0.7266,0.7329,0.725,0.6969,0.6673,0.6256,0.5699,0.5139,0.469,0.4386,0.4216,0.4142,0.4192,0.4214,0.4233,0.4283,0.4617,0.4776,0.4679,0.5246,0.543,0.4958,0.5044,0.5107,0.5104,0.5461,0.5686,0.5708,0.5789,0.5843,0.588,0.5908,0.5935,0.5966,0.5818,0.5646,0.5596,0.5737,0.5969,0.6275,0.6864,0.736,0.7416,0.7758,0.7841,0.7623,0.6804,0.5754,0.4831,0.3953,0.3584,0.3784,0.4248,0.4456,0.419,0.4082,0.3686,0.2833,0.2978,0.2218,0.0654,0.0033,-0.0384,-0.0972,-0.13,-0.1566,-0.1837,-0.1905,-0.2025,-0.2227,-0.2481,-0.2887,1.2432,1.2275,1.1407,1.0997,1.0968,1.1132,1.127,1.1347,1.1127,1.1051,1.1085,1.1399,1.1445,1.1224,1.1421,1.1511,1.1511,1.1578,1.1601,1.1579,1.1121,1.0851,1.0649,0.9755,0.9207,0.8891,0.8425,0.8121,0.7998,0.7954,0.7997,0.8041,0.7998,0.7969,0.7956,0.7971,0.7971,0.7985,0.7724,0.7575,0.7514,0.7499,0.7514,0.753,0.765,0.7636,0.7503,0.7069,0.6502,0.5803,0.5334,0.482,0.4233,0.4214,0.4286,0.4338,0.4517,0.4702,0.4964,0.5419,0.5707,0.5635,0.622,0.659,0.6535,0.6457,0.6311,0.619,0.6374,0.6528,0.6625,0.6663,0.6668,0.6678,0.6736,0.6826,0.6782,0.6814,0.6765,0.6697,0.6859,0.7262,0.7583,0.7851,0.8209,0.8691,0.8952,0.9025,0.9028,0.8676,0.7731,0.64,0.5281,0.4746,0.4742,0.5029,0.5039,0.474,0.4356,0.3915,0.3416,0.3131,0.2619,0.1504,0.0835,0.0319,-0.0142,-0.0544,-0.0922,-0.1257,-0.1421,-0.159,-0.1848,-0.2191,-0.2607,1.3304,1.2801,1.2286,1.1823,1.1487,1.1474,1.1564,1.1645,1.1498,1.1592,1.1776,1.1785,1.1703,1.1571,1.1703,1.1805,1.1848,1.1927,1.1949,1.1949,1.1909,1.1602,1.1182,1.102,1.0362,0.9421,0.9218,0.886,0.8331,0.8224,0.8193,0.8193,0.8178,0.8164,0.8164,0.8164,0.8191,0.8247,0.8234,0.8097,0.787,0.7856,0.787,0.7942,0.7942,0.7736,0.735,0.723,0.6657,0.5496,0.5416,0.5071,0.4505,0.4391,0.4432,0.4544,0.5184,0.5832,0.6477,0.6635,0.6627,0.6625,0.7187,0.7587,0.7585,0.7967,0.7928,0.7465,0.778,0.808,0.8266,0.826,0.8253,0.8254,0.8337,0.848,0.8388,0.8476,0.8276,0.7702,0.8338,0.8832,0.836,0.8688,0.9158,0.9348,0.9474,0.9569,0.958,0.9582,0.9317,0.8314,0.7171,0.6212,0.5951,0.6197,0.5749,0.4854,0.4379,0.399,0.3528,0.3181,0.2786,0.1926,0.1346,0.0857,0.0428,0.0044,-0.0298,-0.0644,-0.0886,-0.1084,-0.1458,-0.1823,-0.2235,1.411,1.3861,1.3407,1.2906,1.2479,1.2486,1.231,1.1982,1.203,1.2086,1.2159,1.2251,1.2173,1.1903,1.1967,1.2066,1.2123,1.2179,1.2164,1.22,1.2262,1.2162,1.1956,1.1645,1.1177,1.0703,1.0319,0.9982,0.9646,0.9262,0.8815,0.8419,0.8387,0.8371,0.8387,0.8415,0.8431,0.8473,0.8467,0.8441,0.8377,0.8261,0.8207,0.8232,0.8258,0.824,0.8012,0.7698,0.7261,0.6788,0.6469,0.6155,0.589,0.593,0.5956,0.6004,0.6287,0.6611,0.6906,0.7305,0.7551,0.7524,0.8168,0.8588,0.8544,0.8738,0.8728,0.8572,0.8655,0.8779,0.884,0.8923,0.8949,0.8998,0.8991,0.8991,0.8995,0.8974,0.8858,0.8789,0.9168,0.9388,0.9208,0.9451,0.9721,0.9792,0.988,0.9913,0.995,0.9975,0.9892,0.955,0.8911,0.7848,0.6659,0.6174,0.5723,0.4862,0.4282,0.3914,0.3559,0.3256,0.2851,0.2108,0.1681,0.1281,0.0893,0.052,0.0177,-0.0121,-0.0432,-0.0731,-0.1136,-0.1448,-0.1789,1.4902,1.4731,1.4268,1.385,1.3505,1.3355,1.3062,1.267,1.2573,1.2499,1.2487,1.2716,1.2625,1.2372,1.2352,1.2352,1.2407,1.2427,1.2443,1.2483,1.2577,1.2616,1.2591,1.227,1.1969,1.1742,1.1287,1.0943,1.0761,1.0254,0.9569,0.898,0.8853,0.8755,0.8575,0.862,0.8661,0.8645,0.8677,0.8724,0.8736,0.8645,0.8542,0.8513,0.8542,0.8616,0.8696,0.827,0.7977,0.7878,0.7474,0.7175,0.7009,0.7044,0.7147,0.7362,0.7382,0.7476,0.7654,0.8182,0.8494,0.8531,0.9018,0.9265,0.922,0.9169,0.9226,0.9323,0.9304,0.9259,0.9228,0.9285,0.9322,0.9323,0.9341,0.9323,0.9341,0.9296,0.9319,0.949,0.9566,0.9712,0.9822,0.9948,1.0028,1.0062,1.0082,1.0122,1.0116,1.0096,1.0079,1.0069,0.9967,0.9061,0.719,0.6565,0.5868,0.4787,0.4193,0.3894,0.3559,0.3294,0.2953,0.2325,0.1941,0.1598,0.1244,0.0896,0.0524,0.0256,-0.0056,-0.0389,-0.0742,-0.1049,-0.1319,1.584,1.5232,1.4719,1.4545,1.4504,1.3935,1.3721,1.3699,1.3116,1.2829,1.2887,1.3006,1.3043,1.2924,1.2759,1.2684,1.2684,1.2738,1.2776,1.2846,1.2864,1.2904,1.2977,1.2946,1.2601,1.2124,1.2008,1.1642,1.1068,1.0906,1.0494,0.9872,0.9733,0.9375,0.8857,0.8786,0.8805,0.8783,0.8835,0.8919,0.8981,0.8985,0.8902,0.8801,0.8794,0.8852,0.8953,0.8994,0.8741,0.8136,0.814,0.7885,0.7317,0.7257,0.761,0.8224,0.8333,0.8643,0.9185,0.9336,0.9371,0.9399,0.9436,0.9489,0.9466,0.9367,0.9403,0.9568,0.9715,0.9747,0.9605,0.9571,0.9591,0.9647,0.9666,0.9673,0.9662,0.9647,0.9703,0.9782,0.9844,0.9923,1.0064,1.0151,1.017,1.0176,1.0193,1.0185,1.0141,1.0122,1.005,0.9967,0.983,0.9418,0.8371,0.7473,0.6257,0.5129,0.4468,0.4032,0.364,0.3302,0.2933,0.2549,0.2161,0.1816,0.1528,0.119,0.0816,0.0509,0.0245,-0.0078,-0.0389,-0.0648,-0.0922,1.6604,1.6424,1.6306,1.6038,1.5668,1.5457,1.4953,1.4159,1.3934,1.3556,1.3224,1.3243,1.3294,1.3244,1.3226,1.3122,1.2959,1.2977,1.3012,1.303,1.3066,1.3102,1.3123,1.3191,1.3109,1.2941,1.2891,1.2537,1.1891,1.1853,1.1463,1.0734,1.0229,0.9832,0.9504,0.9105,0.8925,0.8936,0.899,0.9054,0.9123,0.9164,0.9184,0.9184,0.9054,0.9054,0.9177,0.9253,0.9188,0.9017,0.9055,0.9012,0.883,0.8807,0.8918,0.9187,0.9242,0.9349,0.9578,0.9669,0.9688,0.9688,0.9695,0.9691,0.968,0.9614,0.9632,0.9774,0.9908,0.996,0.9891,0.9807,0.98,0.9825,0.9863,0.99,0.9904,0.9889,0.9914,0.9976,1.0045,1.0121,1.0151,1.0175,1.0184,1.0144,1.0139,1.0124,1.0075,1.0014,0.9943,0.9831,0.9682,0.9478,0.9208,0.821,0.7111,0.5889,0.5064,0.4945,0.4668,0.379,0.3305,0.3096,0.2628,0.2085,0.1817,0.1356,0.0998,0.0734,0.0478,0.0245,-0.0033,-0.0311,-0.0579,1.7207,1.732,1.7408,1.719,1.6831,1.6646,1.6055,1.5155,1.4721,1.4246,1.3837,1.3597,1.3493,1.3493,1.3543,1.3462,1.3295,1.3226,1.3191,1.3191,1.3277,1.3311,1.3329,1.3379,1.3412,1.3462,1.3496,1.3238,1.2854,1.2818,1.2419,1.1692,1.1145,1.0603,1.0132,0.9652,0.9353,0.915,0.9119,0.9206,0.9273,0.9339,0.9394,0.9448,0.9349,0.9321,0.9403,0.9448,0.9525,0.9597,0.9647,0.9705,0.9766,0.9766,0.9773,0.9773,0.9761,0.9766,0.9775,0.9837,0.9875,0.9893,0.9862,0.9875,0.9856,0.9807,0.9862,0.9955,1.0063,1.0094,1.0078,1.0024,0.9992,0.9982,1.0016,1.0039,1.008,1.0063,1.0093,1.0135,1.0161,1.0195,1.0184,1.0162,1.0149,1.0106,1.0063,1.0029,0.9957,0.9886,0.9775,0.9662,0.9496,0.9376,0.9117,0.8462,0.7927,0.6837,0.5687,0.5616,0.5366,0.4447,0.3843,0.3607,0.3147,0.2548,0.2013,0.1542,0.1213,0.0965,0.0737,0.0513,0.0256,-0.0,-0.0267,1.7749,1.7794,1.7878,1.7888,1.774,1.7298,1.7018,1.6626,1.5506,1.4983,1.4669,1.4094,1.38,1.3713,1.3713,1.368,1.3652,1.3493,1.3429,1.3412,1.3462,1.3528,1.3577,1.3592,1.3589,1.362,1.3686,1.3715,1.3689,1.3621,1.3287,1.2787,1.2501,1.1685,1.036,1.0306,0.9943,0.9384,0.9274,0.9322,0.9403,0.9482,0.9532,0.9609,0.9641,0.9641,0.9603,0.9597,0.9647,0.9764,0.9799,0.9813,0.9887,0.9893,0.9918,0.9899,0.9891,0.9899,0.99,0.9952,1.0011,1.0061,1.003,1.0006,0.9997,1.0006,1.0058,1.0242,1.0305,1.0324,1.0399,1.0429,1.0324,1.0108,1.0112,1.0128,1.0169,1.0188,1.0199,1.0192,1.0193,1.0194,1.0183,1.0144,1.0117,1.007,1.0011,0.9938,0.9832,0.9747,0.9632,0.9489,0.9304,0.9152,0.8923,0.8651,0.8326,0.7805,0.6685,0.6048,0.5859,0.5213,0.4733,0.4399,0.3687,0.3077,0.2433,0.1959,0.1528,0.1258,0.1033,0.0782,0.0502,0.0245,0.0033,1.8125,1.8146,1.8166,1.8225,1.829,1.8104,1.7797,1.7328,1.687,1.6145,1.519,1.4887,1.453,1.4055,1.3966,1.3952,1.3906,1.3833,1.3743,1.3636,1.3638,1.3686,1.3735,1.3748,1.3759,1.3818,1.3862,1.3923,1.3938,1.3952,1.3807,1.3559,1.3064,1.226,1.1241,1.0773,1.013,0.9456,0.9394,0.9464,0.954,0.9597,0.9669,0.9732,0.9789,0.9823,0.9811,0.9766,0.9786,0.9869,0.9923,0.9979,1.002,1.0001,0.9982,1.003,0.9987,0.9972,0.9976,1.0034,1.0102,1.0167,1.0177,1.014,1.014,1.0205,1.0466,1.097,1.1283,1.1555,1.189,1.1982,1.1474,1.029,1.0168,1.0259,1.0271,1.0228,1.0195,1.0187,1.0203,1.0185,1.0148,1.0098,1.0067,0.9981,0.9916,0.9825,0.9698,0.9576,0.9446,0.9304,0.9101,0.8923,0.8726,0.8538,0.8267,0.7997,0.7234,0.6568,0.6325,0.6039,0.5589,0.4933,0.4227,0.3566,0.2922,0.238,0.1924,0.1583,0.134,0.1066,0.0751,0.0503,0.0302,1.8487,1.8487,1.8508,1.8566,1.8657,1.8695,1.8449,1.8021,1.7805,1.7123,1.6297,1.5917,1.5361,1.4751,1.4639,1.4414,1.4136,1.4101,1.4046,1.392,1.3833,1.3833,1.388,1.3909,1.3949,1.4001,1.4042,1.4087,1.4119,1.4132,1.415,1.3993,1.3648,1.3016,1.218,1.146,1.0699,1.0032,0.9711,0.9602,0.9666,0.9743,0.9784,0.9843,0.9888,0.9936,0.9927,0.9916,0.9927,0.9974,1.0001,1.0044,1.0101,1.0059,1.0059,1.0082,1.0105,1.0074,1.0052,1.0087,1.0504,1.0928,1.0885,1.0892,1.1069,1.1169,1.1473,1.189,1.214,1.2421,1.27,1.2767,1.2261,1.1321,1.1225,1.1014,1.0801,1.0676,1.0488,1.0353,1.0163,1.0141,1.0117,1.0082,1.0024,0.9929,0.9825,0.9731,0.9594,0.9446,0.9313,0.9149,0.8973,0.8778,0.8583,0.8377,0.816,0.7925,0.7621,0.7199,0.693,0.6621,0.6221,0.5338,0.4552,0.4017,0.3384,0.2786,0.2292,0.1985,0.1725,0.1505,0.1248,0.0846,0.059,1.8824,1.8824,1.886,1.8896,1.8914,1.8949,1.8948,1.8856,1.831,1.791,1.7636,1.7037,1.6312,1.5692,1.5551,1.5225,1.4578,1.4614,1.4686,1.458,1.445,1.4314,1.4068,1.4087,1.4141,1.4188,1.4219,1.4263,1.4288,1.4306,1.4337,1.4301,1.421,1.3908,1.3081,1.2352,1.1662,1.0973,1.0312,1.0061,1.0135,1.0144,1.0175,1.0193,1.019,1.0179,1.0216,1.0135,1.0091,1.011,1.009,1.0117,1.0108,1.0112,1.0115,1.0119,1.0151,1.0157,1.0147,1.0324,1.0995,1.2307,1.1971,1.1869,1.2415,1.2441,1.2565,1.282,1.2884,1.2945,1.3065,1.3145,1.3065,1.2962,1.265,1.2236,1.1672,1.1551,1.1263,1.0632,1.0283,1.019,1.0225,1.0105,1.0097,0.99,0.9791,0.9666,0.9522,0.9386,0.9208,0.9026,0.8858,0.8636,0.8428,0.8298,0.8108,0.7898,0.7694,0.7484,0.7219,0.6927,0.6522,0.5654,0.4886,0.4363,0.3876,0.3283,0.2798,0.2489,0.2254,0.2051,0.1698,0.1281,0.0954,1.9069,1.9016,1.9031,1.9049,1.9051,1.9084,1.9101,1.9117,1.895,1.8492,1.8039,1.7748,1.7217,1.6506,1.6451,1.6324,1.6101,1.6127,1.6196,1.6214,1.6164,1.5342,1.4454,1.4317,1.4386,1.4435,1.4466,1.4368,1.4441,1.4459,1.4464,1.4433,1.4433,1.4088,1.3395,1.3103,1.2632,1.2058,1.1806,1.1643,1.1705,1.1724,1.1838,1.1834,1.1266,1.1,1.0961,1.0448,1.0177,1.0186,1.017,1.0191,1.018,1.0166,1.019,1.0254,1.0232,1.019,1.0304,1.0818,1.1703,1.2671,1.2691,1.2573,1.2749,1.281,1.3124,1.3535,1.3769,1.4023,1.451,1.4622,1.4628,1.4484,1.3625,1.2803,1.2487,1.2358,1.2139,1.1613,1.1662,1.1252,1.0711,1.0513,1.0602,1.0123,0.9909,0.9803,0.9807,0.9578,0.9502,0.9032,0.876,0.8513,0.8309,0.8205,0.8054,0.7855,0.7679,0.7514,0.7219,0.6911,0.6406,0.5738,0.5097,0.4553,0.4249,0.3824,0.3419,0.2961,0.2685,0.2437,0.2074,0.1687,0.1402,1.9277,1.923,1.9243,1.9243,1.9212,1.9261,1.9274,1.9326,1.9308,1.9084,1.8698,1.8629,1.8174,1.744,1.7399,1.7192,1.6962,1.697,1.6946,1.6958,1.6903,1.6355,1.5636,1.5508,1.5496,1.5472,1.5171,1.5083,1.5021,1.4755,1.4611,1.4566,1.4577,1.4377,1.4036,1.3598,1.3315,1.2881,1.265,1.2471,1.2541,1.2571,1.2572,1.2473,1.1906,1.1554,1.1543,1.1382,1.1003,1.0429,1.019,1.0207,1.0234,1.024,1.0382,1.0679,1.0774,1.0654,1.0534,1.1371,1.2653,1.3555,1.3633,1.3594,1.3847,1.3905,1.4215,1.4565,1.4643,1.4913,1.5238,1.5362,1.5335,1.5124,1.4384,1.3656,1.3295,1.3219,1.2873,1.2483,1.232,1.2527,1.1843,1.1787,1.1311,1.0981,1.0881,1.0722,1.0552,1.0196,0.9801,0.9426,0.9122,0.8968,0.8637,0.8433,0.8469,0.8258,0.794,0.7712,0.7301,0.696,0.6423,0.5881,0.5281,0.4793,0.4495,0.4191,0.3786,0.3364,0.3091,0.2799,0.2483,0.2191,0.1898,1.9489,1.945,1.9504,1.9489,1.945,1.9489,1.9518,1.9518,1.9518,1.9499,1.9429,1.9456,1.8984,1.8356,1.8338,1.8009,1.7467,1.7609,1.7541,1.7591,1.7572,1.7405,1.7318,1.683,1.6781,1.6773,1.6325,1.6101,1.587,1.5295,1.4924,1.4933,1.485,1.4748,1.4568,1.4126,1.3837,1.3735,1.3347,1.3131,1.3182,1.3219,1.3277,1.3187,1.2622,1.2252,1.2304,1.236,1.2048,1.0557,1.0454,1.0659,1.0668,1.0632,1.0927,1.1494,1.1672,1.1417,1.1041,1.2224,1.3632,1.4743,1.4546,1.4545,1.4992,1.5103,1.5114,1.519,1.5366,1.5319,1.5343,1.5336,1.5307,1.5255,1.5125,1.4801,1.4309,1.4052,1.3712,1.2991,1.2827,1.3435,1.3644,1.3374,1.2224,1.1544,1.147,1.1316,1.1141,1.0913,1.0505,1.0071,0.9795,0.9585,0.9171,0.8743,0.8817,0.8777,0.8389,0.8033,0.7475,0.7061,0.6537,0.5979,0.5396,0.4971,0.4695,0.4366,0.4019,0.3716,0.3394,0.32,0.2994,0.2726,0.2462,1.9712,1.9712,1.9681,1.9636,1.9647,1.9647,1.966,1.966,1.966,1.9628,1.9587,1.9587,1.9467,1.9254,1.922,1.9197,1.8976,1.8977,1.9183,1.9207,1.9176,1.9176,1.8833,1.7943,1.7284,1.7274,1.7135,1.7037,1.6862,1.6289,1.5819,1.5772,1.5243,1.4883,1.4887,1.476,1.4741,1.4761,1.4597,1.4472,1.4463,1.4535,1.4589,1.4519,1.3926,1.3496,1.3233,1.2972,1.2625,1.235,1.2253,1.2237,1.2161,1.2203,1.2321,1.2498,1.2597,1.2538,1.2576,1.3281,1.4251,1.5153,1.5192,1.5212,1.5301,1.5346,1.5335,1.5329,1.5323,1.5407,1.5525,1.5369,1.5439,1.5462,1.5372,1.5228,1.4929,1.4833,1.4603,1.4442,1.4286,1.4145,1.3542,1.3549,1.2807,1.2221,1.1981,1.1826,1.1736,1.1673,1.1254,1.0834,1.0503,1.0256,0.9951,0.9582,0.958,0.9458,0.9028,0.8479,0.7922,0.7169,0.6641,0.607,0.548,0.5136,0.4824,0.4527,0.4183,0.3931,0.371,0.3478,0.3281,0.3105,0.2891,1.9873,1.9835,1.9811,1.9775,1.9732,1.9782,1.9794,1.9794,1.9794,1.9763,1.9738,1.9707,1.9701,1.9688,1.9695,1.9688,1.9751,1.98,1.9835,1.9839,1.9843,1.9866,1.985,1.9136,1.8548,1.848,1.8151,1.8049,1.7823,1.7236,1.659,1.6265,1.5798,1.5384,1.509,1.5092,1.5076,1.5126,1.5218,1.5236,1.5259,1.5311,1.5352,1.5335,1.4931,1.4615,1.4467,1.4232,1.4058,1.402,1.3982,1.3611,1.3006,1.2929,1.3066,1.3398,1.3476,1.373,1.4081,1.4448,1.4882,1.5299,1.5357,1.5354,1.5349,1.5326,1.5521,1.5745,1.5931,1.5995,1.6401,1.6466,1.6405,1.6381,1.6317,1.6141,1.5711,1.5341,1.5078,1.4992,1.4808,1.4438,1.4041,1.3785,1.3651,1.3182,1.3118,1.2977,1.2864,1.2716,1.2118,1.1673,1.127,1.0957,1.0696,1.051,1.0458,1.0205,0.9787,0.9161,0.8529,0.7628,0.674,0.6183,0.5667,0.5262,0.4942,0.4646,0.4374,0.4117,0.3897,0.3703,0.3514,0.3345,0.3126,1.9996,1.9939,1.9918,1.9896,1.9855,1.9907,1.9936,1.9936,1.9936,1.9926,1.9926,1.9866,1.9843,1.9843,1.9843,1.9885,1.9926,1.9966,2.0007,2.0019,2.0029,2.0059,2.0031,1.9926,1.9821,1.9886,1.9287,1.9031,1.881,1.8226,1.7546,1.6866,1.6627,1.6207,1.5555,1.5362,1.5372,1.5265,1.5269,1.5299,1.5313,1.536,1.5392,1.5369,1.534,1.5271,1.5234,1.5195,1.5292,1.541,1.541,1.4648,1.375,1.332,1.3514,1.4276,1.4311,1.4564,1.4955,1.5236,1.5285,1.5283,1.547,1.5525,1.5555,1.5825,1.6193,1.6488,1.6753,1.6935,1.7651,1.7523,1.7528,1.7557,1.7554,1.7238,1.6565,1.5795,1.5538,1.4955,1.485,1.4556,1.4412,1.4226,1.4229,1.4201,1.4119,1.3998,1.3809,1.3504,1.282,1.239,1.1953,1.1582,1.132,1.1096,1.1096,1.0849,1.0456,0.9853,0.924,0.8751,0.79,0.6546,0.5925,0.5517,0.5108,0.4814,0.4544,0.4301,0.4158,0.4014,0.3828,0.3577,0.3345,2.0117,2.0136,2.0098,2.006,2.005,2.006,2.006,2.006,2.006,2.0079,2.0059,2.0059,2.002,1.9991,2.0011,2.0069,2.0079,2.0089,2.0108,2.0116,2.0134,2.018,2.0205,2.0222,2.0238,2.02,1.9937,1.9835,1.9687,1.9173,1.8593,1.8383,1.787,1.7136,1.651,1.6251,1.5889,1.5478,1.5361,1.5326,1.5373,1.5387,1.5419,1.5407,1.541,1.541,1.5408,1.5408,1.5409,1.5408,1.5407,1.5231,1.4917,1.4839,1.4973,1.4992,1.5062,1.5176,1.5358,1.5407,1.5319,1.5385,1.5893,1.6266,1.6449,1.6877,1.7169,1.7465,1.7613,1.7697,1.7682,1.7941,1.7758,1.7699,1.7735,1.7568,1.7274,1.6884,1.6241,1.5395,1.5026,1.4754,1.4706,1.4508,1.4232,1.4101,1.398,1.3851,1.3669,1.3511,1.3177,1.2852,1.2618,1.2258,1.1928,1.1707,1.1553,1.1365,1.1009,1.0556,1.009,1.0,0.9198,0.7663,0.6454,0.5808,0.5422,0.5076,0.4773,0.4552,0.4443,0.4362,0.4109,0.3869,0.3668,2.0171,2.0197,2.0143,2.0153,2.0134,2.0153,2.0153,2.0134,2.0153,2.0153,2.0144,2.0144,2.0135,2.0116,2.0134,2.0171,2.0188,2.0197,2.0203,2.0208,2.025,2.0284,2.0306,2.0339,2.034,2.0341,2.0283,2.0262,2.0262,1.9922,1.9497,1.9032,1.8642,1.8082,1.7277,1.6739,1.6437,1.5974,1.5616,1.5377,1.5398,1.5406,1.541,1.541,1.5408,1.5406,1.5402,1.5403,1.5405,1.5404,1.542,1.5416,1.5529,1.5754,1.5847,1.5539,1.5429,1.5385,1.5509,1.5682,1.6097,1.6526,1.6951,1.7124,1.7202,1.7478,1.7984,1.8362,1.8912,1.9031,1.9057,1.8901,1.8915,1.884,1.8705,1.8394,1.8102,1.7868,1.7086,1.6075,1.5681,1.5403,1.5068,1.4767,1.4248,1.4009,1.3918,1.3767,1.3645,1.3412,1.326,1.2997,1.2706,1.2412,1.2096,1.1912,1.1747,1.1615,1.1431,1.097,1.0643,1.0406,0.9728,0.8547,0.7474,0.6622,0.5918,0.5623,0.5232,0.484,0.4775,0.4662,0.4407,0.4158,0.4012,2.0222,2.0211,2.0214,2.0205,2.0205,2.0205,2.0225,2.0205,2.0225,2.0225,2.0233,2.0233,2.0222,2.023,2.0254,2.0269,2.0304,2.0318,2.0301,2.0302,2.0321,2.0353,2.041,2.0421,2.0418,2.0415,2.0395,2.043,2.0413,2.0341,1.9978,1.9663,1.9463,1.9033,1.8192,1.7673,1.7185,1.6495,1.6075,1.5654,1.5449,1.5409,1.5404,1.5403,1.5419,1.5475,1.5742,1.5784,1.594,1.6017,1.6029,1.5981,1.603,1.6506,1.6534,1.602,1.5831,1.5714,1.5594,1.6343,1.7163,1.8073,1.8054,1.8009,1.8071,1.8248,1.8578,1.9118,1.9616,2.0,1.9869,2.0012,1.9943,1.9812,1.9635,1.9482,1.8933,1.8564,1.83,1.7433,1.6649,1.613,1.586,1.5526,1.5134,1.4687,1.4566,1.4139,1.3939,1.343,1.3192,1.2959,1.2662,1.2383,1.2117,1.1891,1.1747,1.1615,1.146,1.1164,1.088,1.0616,0.9854,0.92,0.8801,0.7957,0.7091,0.615,0.5693,0.5347,0.5176,0.5074,0.5042,0.4801,0.4556,2.0285,2.0304,2.0304,2.0285,2.0296,2.0285,2.0285,2.0285,2.0285,2.0273,2.0269,2.0296,2.0292,2.0308,2.034,2.0379,2.0392,2.0404,2.0383,2.0385,2.0371,2.0425,2.0478,2.0497,2.0476,2.0472,2.0487,2.0492,2.05,2.0488,2.0453,2.0246,2.012,1.9918,1.9105,1.8724,1.8187,1.7005,1.6619,1.6211,1.566,1.5574,1.5587,1.5563,1.5617,1.5886,1.6444,1.6542,1.6775,1.7349,1.7476,1.7555,1.7605,1.7602,1.7639,1.7551,1.7371,1.6871,1.6024,1.6796,1.8136,1.9096,1.9145,1.8841,1.8863,1.9247,1.962,1.9897,2.0088,2.0069,2.0038,1.9966,1.99,1.9818,1.9701,1.9623,1.9355,1.9054,1.8804,1.8617,1.7803,1.718,1.6754,1.6409,1.6055,1.5591,1.5159,1.4727,1.433,1.3935,1.3337,1.3127,1.2668,1.2338,1.2096,1.1891,1.1806,1.166,1.1511,1.1345,1.1038,1.0729,1.0411,0.9841,0.9504,0.8973,0.7946,0.7025,0.6275,0.6044,0.612,0.6036,0.589,0.5571,0.5142,2.0292,2.0292,2.0292,2.0292,2.0292,2.03,2.0289,2.0289,2.0304,2.0299,2.032,2.0346,2.0354,2.0377,2.0374,2.0404,2.0439,2.0463,2.0456,2.0469,2.0457,2.0483,2.0494,2.0516,2.0506,2.0514,2.0543,2.0549,2.0558,2.0533,2.0514,2.0538,2.0506,2.0375,1.9833,1.9506,1.8945,1.8222,1.7688,1.7226,1.6904,1.6792,1.6781,1.6798,1.6772,1.6999,1.7248,1.7377,1.7513,1.787,1.7873,1.7835,1.7959,1.8183,1.8468,1.8505,1.8939,1.8364,1.7201,1.7867,1.889,1.9659,1.9755,1.9583,1.9631,1.9792,2.0019,1.9971,1.9979,1.9966,1.9889,1.9842,1.9757,1.9686,1.9569,1.9518,1.9497,1.9468,1.9243,1.9124,1.8935,1.8261,1.7557,1.6967,1.657,1.6133,1.5727,1.5323,1.5054,1.483,1.413,1.3432,1.2835,1.2257,1.2054,1.1869,1.1889,1.1778,1.1644,1.1425,1.1113,1.0801,1.051,1.0236,0.9843,0.9231,0.8561,0.8167,0.7666,0.74,0.7179,0.695,0.6704,0.6066,0.5638,2.0308,2.0296,2.03,2.03,2.0296,2.0292,2.0306,2.0325,2.0327,2.0328,2.0353,2.0402,2.0415,2.0419,2.0418,2.0449,2.0496,2.05,2.0509,2.0516,2.0504,2.051,2.0513,2.0515,2.0498,2.05,2.0525,2.0546,2.0545,2.0525,2.0523,2.0601,2.0564,2.0507,2.039,2.0,1.9469,1.9009,1.82,1.7806,1.7734,1.7738,1.7784,1.7814,1.7888,1.7995,1.8169,1.8184,1.8222,1.8575,1.8623,1.8678,1.8718,1.9051,1.9265,1.9342,1.9703,1.9484,1.8762,1.8901,1.9411,1.9749,1.9985,1.9874,1.9888,1.9949,1.9919,1.9839,1.9816,1.9794,1.9751,1.9694,1.9628,1.9546,1.9456,1.9416,1.9375,1.936,1.9344,1.924,1.9104,1.9079,1.8351,1.7557,1.7029,1.6637,1.6278,1.5916,1.5634,1.545,1.4819,1.3994,1.3351,1.2765,1.2529,1.2298,1.2178,1.2087,1.1966,1.1759,1.1603,1.1124,1.0656,1.0386,1.0085,0.9729,0.9169,0.9141,0.9069,0.8474,0.7962,0.7754,0.7404,0.6726,0.6251,2.0287,2.0295,2.0299,2.0306,2.0302,2.0302,2.0328,2.0379,2.0398,2.0408,2.0405,2.0449,2.0487,2.0477,2.0489,2.0499,2.0504,2.0511,2.0518,2.0502,2.0505,2.0507,2.0508,2.0508,2.0507,2.0507,2.0524,2.0523,2.0502,2.0519,2.0543,2.0604,2.0564,2.0544,2.0481,2.0298,1.9892,1.94,1.8621,1.8183,1.8106,1.8047,1.8051,1.7987,1.7982,1.8175,1.8941,1.9012,1.9219,1.9774,1.9742,1.9754,1.9692,1.9807,1.9882,1.9897,1.9907,1.9792,1.9602,1.9563,1.9763,1.9823,1.9806,1.9849,1.9832,1.977,1.9726,1.9713,1.9669,1.9623,1.9606,1.955,1.9489,1.9413,1.9353,1.9326,1.928,1.9248,1.9248,1.9248,1.92,1.9101,1.8966,1.8146,1.777,1.7385,1.6955,1.6605,1.6043,1.5747,1.5239,1.4601,1.3959,1.3505,1.3264,1.3175,1.3267,1.3085,1.2873,1.2617,1.2356,1.1724,1.078,1.0436,1.0123,0.9957,0.9802,0.9605,0.9339,0.9026,0.8656,0.8205,0.7831,0.7253,0.6885,2.0328,2.0346,2.0365,2.0359,2.0353,2.0357,2.0374,2.0404,2.0439,2.0463,2.048,2.0492,2.0506,2.0511,2.0501,2.0504,2.0505,2.0508,2.0508,2.0506,2.0504,2.0501,2.0516,2.0515,2.0511,2.051,2.0506,2.0501,2.0499,2.0509,2.05,2.0528,2.0538,2.0543,2.0494,2.0455,2.0192,1.9988,1.9579,1.9347,1.9341,1.9342,1.9349,1.9323,1.9323,1.9478,1.9812,1.9838,2.0043,2.019,2.0253,2.0254,2.0233,2.0171,2.0108,2.0039,1.9985,1.9911,1.9847,1.9854,1.9825,1.9725,1.9686,1.9692,1.9692,1.9647,1.9633,1.9587,1.9555,1.9518,1.9464,1.9416,1.9353,1.9311,1.9264,1.9216,1.9184,1.9152,1.9184,1.92,1.915,1.9066,1.8913,1.8681,1.8422,1.8168,1.7731,1.7253,1.6686,1.6215,1.5801,1.5383,1.4797,1.4276,1.401,1.4141,1.4352,1.4086,1.3777,1.3428,1.2956,1.1637,1.0832,1.0487,1.0302,1.0222,1.009,0.985,0.9593,0.9286,0.8839,0.8336,0.7994,0.7647,0.7392,2.0369,2.042,2.0424,2.0434,2.0429,2.0434,2.0433,2.0441,2.0476,2.0516,2.0521,2.0537,2.0525,2.0507,2.0508,2.0505,2.0504,2.05,2.0513,2.0506,2.0499,2.0509,2.0503,2.05,2.0497,2.0497,2.0471,2.046,2.046,2.0484,2.0472,2.0467,2.0476,2.0465,2.0472,2.0434,2.0388,2.0352,2.0315,2.0288,2.023,2.0229,2.0222,2.0157,2.0118,2.0145,2.0176,2.0169,2.0181,2.0223,2.0219,2.0186,2.0144,2.0089,2.0019,1.9934,1.9854,1.9757,1.9707,1.9655,1.966,1.9592,1.9564,1.9569,1.9555,1.9555,1.9508,1.9475,1.9442,1.9413,1.9341,1.9311,1.9248,1.9184,1.9101,1.9067,1.9069,1.9052,1.9102,1.9135,1.9084,1.9016,1.8825,1.866,1.8391,1.8166,1.7851,1.753,1.7271,1.6858,1.6605,1.6159,1.5735,1.5216,1.4786,1.4902,1.4979,1.4854,1.4537,1.411,1.3441,1.2239,1.1433,1.1256,1.1051,1.0691,1.0393,1.0166,0.9872,0.9579,0.9115,0.8685,0.8262,0.7937,0.7676,2.0448,2.0508,2.0494,2.049,2.0492,2.051,2.05,2.0506,2.0501,2.0533,2.0582,2.0586,2.0545,2.0521,2.0513,2.0506,2.0499,2.0489,2.0477,2.049,2.0492,2.0495,2.0491,2.0487,2.0487,2.0478,2.0454,2.041,2.0405,2.0404,2.0402,2.039,2.0396,2.0388,2.0415,2.039,2.036,2.0328,2.0287,2.0292,2.0304,2.0289,2.03,2.03,2.03,2.0289,2.03,2.0281,2.0246,2.0211,2.0197,2.0153,2.0079,1.9979,1.9892,1.98,1.9675,1.9623,1.9591,1.9485,1.946,1.9479,1.9464,1.9479,1.9483,1.9453,1.942,1.9402,1.9353,1.9308,1.928,1.9235,1.9135,1.9052,1.8983,1.8948,1.8966,1.8984,1.9017,1.9086,1.9035,1.8948,1.8753,1.8547,1.8229,1.8014,1.7839,1.7681,1.7526,1.7287,1.6963,1.6632,1.6218,1.5878,1.5469,1.5581,1.5635,1.5491,1.5198,1.4747,1.444,1.3808,1.3058,1.234,1.2049,1.1885,1.1168,1.0458,1.0361,1.0248,0.9594,0.9089,0.8628,0.8205,0.7966,2.0471,2.0506,2.0501,2.0527,2.0564,2.0564,2.0566,2.0573,2.0561,2.0585,2.0585,2.056,2.0531,2.0499,2.0503,2.0487,2.0496,2.0441,2.0428,2.0434,2.0429,2.0432,2.0427,2.0441,2.0441,2.0416,2.039,2.0365,2.034,2.0341,2.0334,2.034,2.0327,2.0321,2.0341,2.0334,2.0306,2.0299,2.0296,2.03,2.03,2.0292,2.0285,2.0285,2.0292,2.0292,2.0285,2.0265,2.0222,2.0197,2.0153,2.0079,1.9969,1.9881,1.9782,1.9694,1.9569,1.9518,1.9456,1.9387,1.9335,1.9353,1.9368,1.9368,1.9353,1.9338,1.9338,1.9341,1.9311,1.928,1.9235,1.9119,1.9035,1.8948,1.8913,1.8896,1.8896,1.8913,1.893,1.9001,1.9002,1.8861,1.8678,1.8467,1.818,1.7949,1.7772,1.7641,1.7486,1.7313,1.7044,1.6793,1.6486,1.6293,1.6108,1.5898,1.5799,1.5681,1.5492,1.5228,1.4986,1.4766,1.4165,1.3165,1.3129,1.3093,1.2214,1.1513,1.1282,1.0973,1.0618,1.0105,0.9687,0.8985,0.8223,2.054,2.0549,2.0518,2.056,2.0601,2.0599,2.0601,2.0605,2.0605,2.0583,2.0555,2.0525,2.0509,2.0487,2.0461,2.0458,2.0464,2.038,2.0369,2.0371,2.0353,2.036,2.0373,2.0366,2.0354,2.0347,2.036,2.0353,2.0308,2.0301,2.0306,2.0311,2.0296,2.0292,2.028,2.0258,2.0269,2.0262,2.0246,2.0257,2.0257,2.0265,2.0265,2.0285,2.0292,2.0292,2.0257,2.0222,2.0197,2.0144,2.0079,1.9988,1.987,1.9763,1.9668,1.9555,1.9471,1.9413,1.9353,1.9338,1.9305,1.9305,1.9286,1.9286,1.9286,1.9305,1.9305,1.9289,1.928,1.9235,1.917,1.9053,1.8896,1.8843,1.877,1.8751,1.8788,1.8789,1.8878,1.8949,1.8949,1.8788,1.8582,1.8365,1.813,1.7922,1.7687,1.7572,1.7439,1.7224,1.7018,1.6738,1.6501,1.6246,1.6039,1.5913,1.5827,1.5814,1.5624,1.5448,1.5224,1.4904,1.4433,1.4026,1.3782,1.3461,1.3058,1.2626,1.2378,1.2273,1.2155,1.1588,1.0868,1.0049,0.9152,2.0599,2.0601,2.0604,2.0605,2.0605,2.0605,2.0605,2.0601,2.0599,2.0573,2.0516,2.0506,2.0503,2.0491,2.0434,2.0408,2.039,2.0328,2.0315,2.0321,2.0308,2.032,2.0313,2.0313,2.0313,2.0306,2.0299,2.0311,2.0304,2.0296,2.03,2.0273,2.0273,2.0254,2.0227,2.0211,2.0203,2.0203,2.0222,2.0214,2.0222,2.0211,2.0238,2.0265,2.0292,2.0265,2.023,2.0178,2.0144,2.0079,1.9969,1.9889,1.9788,1.9655,1.9541,1.9423,1.9335,1.9323,1.9323,1.9289,1.9289,1.9289,1.9286,1.9286,1.9286,1.9286,1.9286,1.9274,1.928,1.9202,1.9122,1.8931,1.8753,1.8678,1.8582,1.86,1.8656,1.8732,1.8825,1.8878,1.8896,1.8752,1.8505,1.8277,1.807,1.7816,1.7618,1.7392,1.7248,1.7052,1.6825,1.6581,1.6355,1.6151,1.597,1.5856,1.5827,1.5814,1.5654,1.5463,1.5254,1.5027,1.4655,1.4337,1.4111,1.3834,1.3557,1.3454,1.3428,1.3326,1.3011,1.2497,1.1646,1.1251,1.0633,2.0603,2.0604,2.0605,2.0605,2.0605,2.0605,2.0602,2.0596,2.0552,2.0504,2.0503,2.0506,2.048,2.0425,2.0424,2.0377,2.0347,2.0321,2.0301,2.0299,2.0284,2.0296,2.0289,2.0296,2.0289,2.0289,2.03,2.03,2.03,2.0285,2.0257,2.0219,2.023,2.0203,2.0178,2.0143,2.0161,2.0169,2.0188,2.0188,2.0205,2.0195,2.023,2.023,2.0285,2.0238,2.0195,2.0143,2.0098,2.0019,1.9889,1.9788,1.9649,1.9532,1.9402,1.9295,1.9248,1.9248,1.928,1.928,1.9292,1.9289,1.9305,1.9286,1.9286,1.9341,1.9323,1.9292,1.9264,1.9204,1.9053,1.8878,1.8697,1.8582,1.8522,1.8561,1.8619,1.8769,1.8843,1.8896,1.8878,1.866,1.8426,1.8239,1.8031,1.7755,1.7509,1.7296,1.7076,1.6901,1.667,1.6421,1.6274,1.6095,1.597,1.5856,1.5842,1.5785,1.5654,1.5522,1.5344,1.5118,1.4873,1.4624,1.4401,1.4254,1.4149,1.4059,1.3914,1.3695,1.339,1.2947,1.2494,1.2085,1.1787,2.0605,2.0605,2.0605,2.0605,2.0605,2.0603,2.0599,2.0593,2.0547,2.0533,2.0519,2.0511,2.0487,2.0439,2.0408,2.0359,2.0308,2.0294,2.0292,2.0289,2.03,2.0292,2.0292,2.0292,2.0292,2.0292,2.0292,2.0292,2.0285,2.0265,2.0219,2.0211,2.0203,2.0197,2.0162,2.0116,2.0126,2.0135,2.0144,2.0153,2.018,2.0197,2.0214,2.0195,2.0249,2.0222,2.0161,2.0108,2.0029,1.9934,1.9801,1.9673,1.9513,1.9372,1.9264,1.9168,1.9168,1.9202,1.9235,1.9298,1.9311,1.9357,1.9408,1.9608,1.9611,1.9629,1.9448,1.9289,1.9248,1.9188,1.9019,1.8825,1.8677,1.8522,1.8524,1.8524,1.8641,1.8789,1.8861,1.8896,1.8807,1.8603,1.8388,1.8201,1.7988,1.7726,1.7455,1.7224,1.7002,1.6747,1.6554,1.6301,1.6191,1.6067,1.597,1.5885,1.5871,1.5814,1.5683,1.5551,1.5433,1.5284,1.5041,1.4856,1.4669,1.4574,1.4493,1.4365,1.4222,1.3993,1.3762,1.339,1.3091,1.2827,1.2596,2.0605,2.0605,2.0605,2.0605,2.0604,2.0603,2.0599,2.0594,2.0603,2.055,2.0516,2.0508,2.0502,2.0459,2.0402,2.0366,2.0321,2.0287,2.0304,2.0292,2.0292,2.0292,2.0292,2.0292,2.0292,2.0292,2.0285,2.0285,2.0265,2.0238,2.0211,2.0203,2.0205,2.0171,2.0126,2.0108,2.0117,2.0117,2.0098,2.0108,2.0164,2.019,2.0188,2.0169,2.0178,2.0169,2.0098,2.001,1.9915,1.98,1.9681,1.9546,1.9353,1.9214,1.9117,1.9067,1.9067,1.9119,1.9186,1.9248,1.9522,1.9582,1.9612,2.0129,2.0332,1.974,1.9378,1.995,2.0105,2.0042,1.9903,1.9685,1.9513,1.9414,1.9414,1.9257,1.9122,1.9093,1.8896,1.8896,1.8752,1.8565,1.831,1.8121,1.7944,1.7681,1.7432,1.7199,1.7066,1.6811,1.6649,1.6421,1.6274,1.6191,1.6067,1.5998,1.5928,1.5871,1.5741,1.5624,1.5492,1.5388,1.5268,1.5102,1.4949,1.4902,1.4808,1.47,1.4529,1.4351,1.4124,1.3815,1.3594,1.3335,1.3094,2.0605,2.0605,2.0605,2.0605,2.0605,2.0603,2.0601,2.0599,2.0603,2.057,2.0516,2.0496,2.0467,2.0439,2.0413,2.0359,2.0308,2.0287,2.0284,2.03,2.0292,2.0292,2.0292,2.0292,2.0292,2.0292,2.0285,2.0285,2.0257,2.023,2.0205,2.0199,2.0209,2.0164,2.0108,2.0117,2.0117,2.0098,2.0069,2.0069,2.0088,2.0155,2.0173,2.0144,2.0125,2.0126,2.004,1.9958,1.9858,1.9738,1.9596,1.9394,1.918,1.9067,1.9001,1.8967,1.8966,1.9,1.912,1.936,1.9844,2.0411,2.0715,2.1071,2.0896,1.9902,1.9801,2.0629,2.1111,2.1006,2.0753,2.0529,2.0354,2.0312,2.0289,1.9994,1.9695,1.9415,1.9111,1.895,1.8822,1.8612,1.8405,1.816,1.7878,1.7681,1.7439,1.7281,1.728,1.7142,1.713,1.6885,1.6521,1.6367,1.6219,1.6095,1.6055,1.5957,1.5827,1.5712,1.5595,1.5433,1.5344,1.5344,1.5284,1.5193,1.5102,1.5027,1.4873,1.47,1.4383,1.4078,1.3795,1.3539,1.3301,2.0605,2.0605,2.0605,2.0605,2.0605,2.0601,2.0598,2.0597,2.0582,2.0525,2.0513,2.0496,2.0472,2.0425,2.0418,2.0365,2.0308,2.0287,2.0304,2.03,2.0292,2.0292,2.0292,2.0292,2.0292,2.0292,2.0292,2.0285,2.0238,2.0214,2.0197,2.019,2.0173,2.0145,2.0117,2.0117,2.0098,2.006,2.002,2.002,2.0021,2.006,2.0089,2.0079,2.0059,2.0029,1.9966,1.9877,1.977,1.9628,1.9475,1.9277,1.9101,1.9002,1.8896,1.8843,1.8843,1.8931,1.9107,1.96,2.0418,2.1268,2.1558,2.1805,2.234,2.152,2.1005,2.1745,2.2648,2.2703,2.1497,2.102,2.092,2.0858,2.0838,2.0677,2.0596,2.0477,2.0242,2.0071,1.9911,1.9703,1.9497,1.9275,1.906,1.894,1.8518,1.8261,1.8109,1.7811,1.771,1.753,1.7268,1.6733,1.6436,1.6316,1.6179,1.6083,1.5913,1.5799,1.5683,1.5522,1.5418,1.5477,1.5492,1.5433,1.5344,1.5269,1.5163,1.4994,1.4637,1.4319,1.4026,1.3728,1.3493,2.0605,2.0605,2.0605,2.0604,2.0603,2.0578,2.0591,2.057,2.0533,2.0513,2.0496,2.0484,2.0491,2.0468,2.0432,2.0379,2.0321,2.0299,2.0289,2.0292,2.0292,2.0292,2.0292,2.0292,2.0292,2.0292,2.0292,2.0285,2.0265,2.0222,2.0205,2.0188,2.0153,2.0108,2.0108,2.0117,2.0098,2.003,1.999,1.9947,1.9939,1.996,1.9979,1.9958,1.9945,1.99,1.9849,1.9782,1.9665,1.9522,1.9375,1.92,1.9052,1.8967,1.8788,1.8751,1.9074,1.904,1.9182,2.0126,2.1339,2.2304,2.2365,2.2641,2.3179,2.3122,2.2582,2.281,2.3713,2.3619,2.2426,2.1802,2.1702,2.1565,2.1545,2.1435,2.1444,2.136,2.1133,2.0954,2.0766,2.0563,2.0453,2.0252,2.0077,2.0027,1.9898,1.9734,1.9479,1.9062,1.8792,1.8598,1.8343,1.7726,1.6929,1.6795,1.6753,1.6123,1.5955,1.5885,1.5799,1.5639,1.561,1.5668,1.5668,1.5595,1.5536,1.5448,1.5328,1.5222,1.4994,1.4669,1.4319,1.4026,1.3695,2.0603,2.0602,2.0601,2.0601,2.0599,2.0549,2.0501,2.0516,2.051,2.0508,2.0472,2.0444,2.0424,2.0421,2.0398,2.0347,2.0306,2.0304,2.0289,2.0292,2.0292,2.0292,2.0292,2.0292,2.0292,2.0292,2.0285,2.0265,2.0257,2.023,2.0195,2.0197,2.0188,2.0182,2.0183,2.0164,2.0098,2.002,1.9928,1.9892,1.9858,1.987,1.9881,1.9866,1.9837,1.9788,1.9744,1.9665,1.9546,1.9413,1.9295,1.9186,1.9107,1.9004,1.8894,1.9051,1.9358,1.9486,1.9831,2.0838,2.2157,2.3681,2.369,2.3514,2.3905,2.4104,2.3744,2.3621,2.4154,2.4039,2.3226,2.3143,2.3019,2.2754,2.264,2.2389,2.2252,2.1783,2.1345,2.1185,2.1,2.0958,2.1034,2.0747,2.0416,2.0339,2.0286,2.0164,2.0204,2.0027,1.9884,1.9707,1.9472,1.8425,1.7526,1.7626,1.7472,1.6657,1.6072,1.6094,1.6052,1.5814,1.577,1.5799,1.5799,1.5741,1.5668,1.5595,1.5507,1.5388,1.5298,1.5056,1.47,1.4319,1.398]}]]